[[{"header":{"parameterUnit":"m.s-1","parameterCategory":1,"la1":30.6,"la2":29.2853,"lo1":-89.7004,"lo2":-87.6739,"dy":0.0162,"dx":0.0183,"nx":112,"ny":82,"refTime":"2025-12-10T12:00:00:Z","depth":0,"parameterNumber":2,"parameterNumberName":"U-component_of_WINDS"},"data":[0.0,0.0,0.0,0.0,0.0,0.0,0.0,0.0,0.0,0.0,0.0,0.0,0.0,0.0,0.0,0.0,0.0,0.0,0.0,0.0,0.0,0.0,0.0,0.0,0.0,0.0,0.0,0.0,0.0,0.0,0.0,0.0,0.0,0.0,0.0,0.0,0.0,0.0,0.0,0.0,0.0,0.0,0.0,0.0,0.0,0.0,0.0,0.0,0.0,0.0,0.0,0.0,0.0,0.0,0.0,0.0,0.0,0.0,0.0,0.0,0.0,0.0,0.0,0.0,0.0,0.0,0.0,0.0,0.0,0.0,0.0,0.0,0.0,0.0,0.0,0.0,0.0,0.0,0.0,0.0,0.0,0.0,0.0,0.0,0.0,0.0,0.0,0.0,0.0,0.0,1.6647,1.9108,2.1616,2.2684,2.1583,2.0918,1.9397,1.6676,0.0,0.0,0.0,0.0,0.0,0.0,0.0,0.0,0.0,0.0,0.0,0.0,0.0,0.0,0.0,0.0,0.0,0.0,0.0,0.0,0.0,0.0,0.0,0.0,0.0,0.0,0.0,0.0,0.0,0.0,0.0,0.0,0.0,0.0,0.0,0.0,0.0,0.0,0.0,0.0,0.0,0.0,0.0,0.0,0.0,0.0,0.0,0.0,0.0,0.0,0.0,0.0,0.0,0.0,0.0,0.0,0.0,0.0,0.0,0.0,0.0,0.0,0.0,0.0,0.0,0.0,0.0,0.0,0.0,0.0,0.0,0.0,0.0,0.0,0.0,0.0,0.0,0.0,0.0,0.0,0.0,0.0,0.0,0.0,0.0,0.0,0.0,0.0,0.0,0.0,0.0,0.0,0.0,0.0,0.0,0.0,0.0,0.0,0.0,0.0,0.0,0.0,0.0,0.0,1.7074,2.074,2.2307,2.2684,2.1583,2.0552,1.8957,1.6661,0.0,0.0,0.0,0.0,0.0,0.0,0.0,0.0,0.0,0.0,0.0,0.0,0.0,0.0,0.0,0.0,0.0,0.0,0.0,0.0,0.0,0.0,0.0,0.0,0.0,0.0,0.0,0.0,0.0,0.0,0.0,0.0,0.0,0.0,0.0,0.0,0.0,0.0,0.0,0.0,0.0,0.0,0.0,0.0,0.0,0.0,0.0,0.0,0.0,0.0,0.0,0.0,0.0,0.0,0.0,0.0,0.0,0.0,0.0,0.0,0.0,0.0,0.0,0.0,0.0,0.0,0.0,0.0,0.0,0.0,0.0,0.0,0.0,0.0,0.0,0.0,0.0,0.0,0.0,0.0,0.0,0.0,0.0,0.0,0.0,0.0,0.0,0.0,0.0,0.0,0.0,0.0,0.0,0.0,0.0,0.0,0.0,0.0,0.0,0.0,0.0,0.0,0.0,1.6837,1.8619,2.1619,2.2619,2.2684,2.1583,2.0753,1.9183,1.6651,1.4994,0.0,0.0,0.0,0.0,0.0,0.0,0.0,0.0,0.0,0.0,0.0,0.0,0.0,0.0,0.0,0.0,0.0,0.0,0.0,0.0,0.0,0.0,0.0,0.0,0.0,0.0,0.0,0.0,0.0,0.0,0.0,0.0,0.0,0.0,0.0,0.0,0.0,0.0,0.0,0.0,0.0,0.0,0.0,0.0,0.0,0.0,0.0,0.0,0.0,0.0,0.0,0.0,0.0,0.0,0.0,0.0,0.0,0.0,0.0,0.0,0.0,0.0,0.0,0.0,0.0,0.0,0.0,0.0,0.0,0.0,0.0,0.0,0.0,0.0,0.0,0.0,0.0,0.0,0.0,0.0,0.0,0.0,0.0,0.0,0.0,0.0,0.0,0.0,0.0,0.0,0.0,0.0,0.0,0.0,0.0,0.0,0.0,0.0,0.0,0.0,0.0,0.0,1.8819,2.0149,2.2081,2.2769,2.2684,2.1583,2.0753,1.9221,1.6651,1.4733,0.0,0.0,0.0,0.0,0.0,0.0,0.0,0.0,0.0,0.0,0.0,0.0,0.0,0.0,0.0,0.0,0.0,0.0,0.0,0.0,0.0,0.0,0.0,0.0,0.0,0.0,0.0,0.0,0.0,0.0,0.0,0.0,0.0,0.0,0.0,0.0,0.0,0.0,0.0,0.0,0.0,0.0,0.0,0.0,0.0,0.0,0.0,0.0,0.0,0.0,0.0,0.0,0.0,0.0,0.0,0.0,0.0,0.0,0.0,0.0,0.0,0.0,0.0,0.0,0.0,0.0,0.0,0.0,0.0,0.0,0.0,0.0,0.0,0.0,0.0,0.0,0.0,0.0,0.0,0.0,0.0,0.0,0.0,0.0,0.0,0.0,0.0,0.0,0.0,0.0,0.0,0.0,0.0,0.0,0.0,0.0,0.0,0.0,0.0,0.0,0.0,0.0,1.9284,2.1005,2.2182,2.2769,2.2684,2.1583,2.0024,1.8381,1.66,1.4002,0.0,0.0,0.0,0.0,0.0,0.0,0.0,0.0,0.0,0.0,0.0,0.0,0.0,0.0,0.0,0.0,0.0,0.0,0.0,0.0,0.0,0.0,0.0,0.0,0.0,0.0,0.0,0.0,0.0,0.0,0.0,0.0,0.0,0.0,0.0,0.0,0.0,0.0,0.0,0.0,0.0,0.0,0.0,0.0,0.0,0.0,0.0,0.0,0.0,0.0,0.0,0.0,0.0,0.0,0.0,0.0,0.0,0.0,0.0,0.0,0.0,0.0,0.0,0.0,0.0,0.0,0.0,0.0,0.0,0.0,0.0,0.0,0.0,0.0,0.0,0.0,0.0,0.0,0.0,0.0,0.0,0.0,0.0,0.0,0.0,0.0,0.0,0.0,0.0,0.0,0.0,0.0,0.0,0.0,0.0,0.0,0.0,0.0,0.0,0.0,0.0,0.0,1.9221,2.0815,0.0,2.297,2.2684,2.1583,2.0628,1.9032,1.6651,0.0,0.0,0.0,0.0,0.0,0.0,0.0,0.0,0.0,0.0,0.0,0.0,0.0,0.0,0.0,0.0,0.0,0.0,0.0,0.0,0.0,0.0,0.0,0.0,0.0,0.0,0.0,0.0,0.0,0.0,0.0,0.0,0.0,0.0,0.0,0.0,0.0,0.0,0.0,0.0,0.0,0.0,0.0,0.0,0.0,0.0,0.0,0.0,0.0,0.0,0.0,0.0,0.0,0.0,0.0,0.0,0.0,0.0,0.0,0.0,0.0,0.0,0.0,0.0,0.0,0.0,0.0,0.0,0.0,0.0,0.0,0.0,0.0,0.0,0.0,0.0,0.0,0.0,0.0,0.0,0.0,0.0,0.0,0.0,0.0,0.0,0.0,0.0,0.0,0.0,0.0,0.0,0.0,0.0,0.0,0.0,0.0,0.0,0.0,0.0,0.0,0.0,1.7827,1.9459,2.0977,0.0,2.2844,2.2408,2.1331,2.0427,1.8869,1.6385,0.0,0.0,0.0,0.0,0.0,0.0,0.0,0.0,0.0,0.0,0.0,0.0,0.0,0.0,0.0,0.0,0.0,0.0,0.0,0.0,0.0,0.0,0.0,0.0,0.0,0.0,0.0,0.0,0.0,0.0,0.0,0.0,0.0,0.0,0.0,0.0,0.0,0.0,0.0,0.0,0.0,0.0,0.0,0.0,0.0,0.0,0.0,0.0,0.0,0.0,0.0,0.0,0.0,0.0,0.0,0.0,0.0,0.0,0.0,0.0,0.0,0.0,0.0,0.0,0.0,0.0,0.0,0.0,0.0,0.0,0.0,0.0,0.0,0.0,0.0,0.0,0.0,0.0,0.0,0.0,0.0,0.0,0.0,0.0,0.0,0.0,0.0,0.0,0.0,0.0,0.0,0.0,0.0,0.0,0.0,0.0,0.0,0.0,0.0,0.0,0.0,0.0,1.7928,2.0137,2.1694,2.2232,2.2282,2.187,2.0792,1.917,1.7501,0.0,0.0,0.0,0.0,0.0,0.0,0.0,0.0,0.0,0.0,0.0,0.0,0.0,0.0,0.0,0.0,0.0,0.0,0.0,0.0,0.0,0.0,0.0,0.0,0.0,0.0,0.0,0.0,0.0,0.0,0.0,0.0,0.0,0.0,0.0,0.0,0.0,0.0,0.0,0.0,0.0,0.0,0.0,0.0,0.0,0.0,0.0,0.0,0.0,0.0,0.0,0.0,0.0,0.0,0.0,0.0,0.0,0.0,0.0,0.0,0.0,0.0,0.0,0.0,0.0,0.0,0.0,0.0,0.0,0.0,0.0,0.0,0.0,0.0,0.0,0.0,0.0,0.0,0.0,0.0,0.0,0.0,0.0,0.0,0.0,0.0,0.0,0.0,0.0,0.0,0.0,0.0,0.0,0.0,0.0,0.0,0.0,0.0,0.0,0.0,0.0,0.0,0.0,1.7928,1.9799,2.1295,2.2207,2.197,2.1457,2.0755,1.951,1.8055,1.636,0.0,0.0,0.0,0.0,0.0,0.0,0.0,0.0,0.0,0.0,0.0,0.0,0.0,0.0,0.0,0.0,0.0,0.0,0.0,0.0,0.0,0.0,0.0,0.0,0.0,0.0,0.0,0.0,0.0,0.0,0.0,0.0,0.0,0.0,0.0,0.0,0.0,0.0,0.0,0.0,0.0,0.0,0.0,0.0,0.0,0.0,0.0,0.0,0.0,0.0,0.0,0.0,0.0,0.0,0.0,0.0,0.0,0.0,0.0,0.0,0.0,0.0,0.0,0.0,0.0,0.0,0.0,0.0,0.0,0.0,0.0,0.0,0.0,0.0,0.0,0.0,0.0,0.0,0.0,0.0,0.0,0.0,0.0,0.0,0.0,0.0,0.0,0.0,0.0,0.0,0.0,0.0,0.0,0.0,0.0,0.0,0.0,0.0,0.0,0.0,0.0,0.0,1.7893,1.9417,2.0629,2.1566,2.1382,2.082,1.9966,1.9076,1.7666,1.5584,0.0,0.0,0.0,0.0,0.0,0.0,0.0,0.0,0.0,0.0,0.0,0.0,0.0,0.0,0.0,0.0,0.0,0.0,0.0,0.0,0.0,0.0,0.0,0.0,0.0,0.0,0.0,0.0,0.0,0.0,0.0,0.0,0.0,0.0,0.0,0.0,0.0,0.0,0.0,0.0,0.0,0.0,0.0,0.0,0.0,0.0,0.0,0.0,0.0,0.0,0.0,0.0,0.0,0.0,0.0,0.0,0.0,0.0,0.0,0.0,0.0,0.0,0.0,0.0,0.0,0.0,0.0,0.0,0.0,0.0,0.0,0.0,0.0,0.0,0.0,0.0,0.0,0.0,0.0,0.0,0.0,0.0,0.0,0.0,0.0,0.0,0.0,0.0,0.0,0.0,0.0,0.0,0.0,0.0,0.0,0.0,0.0,0.0,0.0,0.0,0.0,0.0,1.7821,1.8956,1.9806,2.0624,2.0534,1.999,1.8895,1.8252,1.6854,1.4382,0.0,0.0,0.0,0.0,0.0,0.0,0.0,0.0,0.0,0.0,0.0,0.0,0.0,0.0,0.0,0.0,0.0,0.0,0.0,0.0,0.0,0.0,0.0,0.0,0.0,0.0,0.0,0.0,0.0,0.0,0.0,0.0,0.0,0.0,0.0,0.0,0.0,0.0,0.0,0.0,0.0,0.0,0.0,0.0,0.0,0.0,0.0,0.0,0.0,0.0,0.0,0.0,0.0,0.0,0.0,0.0,0.0,0.0,0.0,0.0,1.2383,1.1456,0.0,0.0,0.0,0.0,0.0,0.0,0.0,0.0,0.0,0.0,0.0,0.0,0.0,0.0,0.0,0.0,0.0,0.0,0.0,0.0,0.0,0.0,0.0,0.0,0.0,0.0,0.0,0.0,0.0,0.0,0.0,0.0,0.0,0.0,0.0,0.0,0.0,0.0,0.0,0.0,1.7904,1.8614,1.9368,2.0574,1.9238,1.8619,1.9488,1.8536,1.7543,1.6694,1.4346,0.0,0.0,0.0,0.0,0.0,0.0,0.0,0.0,0.0,0.0,0.0,0.0,0.0,0.0,0.0,0.0,0.0,0.0,0.0,0.0,0.0,0.0,0.0,0.0,0.0,0.0,0.0,0.0,0.0,0.0,0.0,0.0,0.0,0.0,0.0,0.0,0.0,0.0,0.0,0.0,0.0,0.0,0.0,0.0,0.0,0.0,0.0,0.0,0.0,0.0,0.0,0.0,0.0,0.0,0.0,0.0,0.0,0.0,0.0,1.4877,1.3998,0.0,0.0,0.0,0.0,0.0,0.0,0.0,0.0,0.0,0.0,0.0,0.0,0.0,0.0,0.0,0.0,0.0,0.0,0.0,0.0,0.0,0.0,0.0,0.0,0.0,0.0,0.0,0.0,0.0,0.0,0.0,0.0,0.0,0.0,0.0,0.0,0.0,0.0,0.0,0.0,1.7931,1.8451,1.8901,1.9656,1.8462,1.792,1.8675,1.8137,1.7347,1.6391,1.4903,0.0,0.0,0.0,0.0,0.0,0.0,0.0,0.0,0.0,0.0,0.0,0.0,0.0,0.0,0.0,0.0,0.0,0.0,0.0,0.0,0.0,0.0,0.0,0.0,0.0,0.0,0.0,0.0,0.0,0.0,0.0,0.0,0.0,0.0,0.0,0.0,0.0,0.0,0.0,0.0,0.0,0.0,0.0,0.0,0.0,0.0,0.0,0.0,0.0,0.0,0.0,0.0,0.0,1.8047,1.8553,1.8771,1.8771,1.8966,1.9182,1.7751,1.7047,1.6804,1.5303,0.0,0.0,0.0,0.0,0.0,0.0,0.0,0.0,0.0,0.0,0.0,0.0,0.0,0.0,0.0,0.0,0.0,0.0,0.0,0.0,0.0,0.0,0.0,0.0,1.9519,1.8734,1.5969,0.0,0.0,0.0,0.0,0.0,0.0,0.0,0.0,0.0,0.0,0.0,1.7918,1.834,1.8574,1.8842,1.8124,1.766,1.7784,1.7674,1.6996,1.5561,1.5297,1.4463,0.0,0.0,0.0,0.0,0.0,0.0,0.0,0.0,0.0,0.0,0.0,0.0,0.0,0.0,0.0,0.0,0.0,0.0,0.0,0.0,0.0,0.0,0.0,0.0,0.0,0.0,0.0,0.0,0.0,0.0,0.0,0.0,1.1568,1.1719,0.0,0.0,0.0,0.0,0.0,0.0,0.0,0.0,0.0,0.0,0.0,0.0,0.0,1.7109,1.7578,1.9178,1.9823,1.9493,2.1485,2.2248,2.1914,2.1914,2.1953,2.1952,2.1367,0.0,1.7776,1.7207,0.0,0.0,0.0,0.0,0.0,0.0,0.0,0.0,0.0,0.0,0.0,0.0,0.0,0.0,0.0,0.0,0.0,0.0,0.0,0.0,0.0,0.0,2.1263,2.1745,2.1609,2.1191,0.0,1.8355,1.616,1.5417,1.4642,0.0,0.0,0.0,0.0,0.0,0.0,0.0,1.7779,1.8162,1.8686,1.9551,1.8421,1.7866,1.8501,1.7975,1.7305,1.6629,1.5717,1.5082,1.4831,1.3063,0.0,0.0,0.0,0.0,0.0,0.0,0.0,0.0,0.0,0.0,0.0,0.0,0.0,0.0,0.0,0.0,0.0,0.0,0.0,0.0,0.0,0.0,0.0,0.0,0.0,0.0,0.0,0.0,0.0,1.1532,1.3169,1.3169,1.314,1.2753,0.0,0.0,0.0,0.0,0.0,0.0,0.0,0.0,0.0,1.8107,1.9053,1.9863,2.0508,2.1544,2.2072,2.2109,2.3088,2.3535,2.3574,2.3574,2.3574,2.3552,2.3379,2.2362,2.0742,1.9121,1.7852,1.684,0.0,0.0,0.0,0.0,1.5684,1.5781,1.6395,1.6512,1.6293,1.5732,0.0,0.0,0.0,0.0,0.0,0.0,0.0,1.8713,0.0,0.0,2.2684,2.352,2.3567,2.3427,2.336,2.1529,1.9405,0.0,1.7688,1.7132,1.499,0.0,0.0,0.0,0.0,1.7345,1.8581,1.8393,1.8174,1.8328,1.7147,1.6659,1.7399,1.7163,1.6868,1.666,1.6572,1.635,1.5876,1.4855,1.4147,0.0,0.0,0.0,0.0,0.0,0.0,0.0,0.0,0.0,0.0,0.0,0.0,0.0,0.0,0.0,0.0,0.0,0.0,0.0,0.0,0.0,0.0,0.0,0.0,0.0,0.0,0.0,0.0,1.3266,1.4718,1.4635,1.4945,1.469,0.0,0.0,0.0,0.0,0.0,0.0,1.7121,1.8135,1.9393,2.0859,2.1523,2.2225,2.2967,2.346,2.3831,2.4121,2.4238,2.443,2.4723,2.4629,2.459,2.457,2.4449,2.404,2.3279,2.1035,1.9727,1.9005,1.7952,1.7464,1.7425,1.7871,1.8027,1.8144,1.8849,1.9044,1.8812,1.8091,1.7623,1.7077,1.5556,0.0,0.0,0.0,0.0,1.9351,2.1172,2.2128,2.2991,2.4493,2.4648,2.4566,2.4944,2.3912,2.236,0.0,2.0302,1.9764,1.7403,0.0,0.0,0.0,0.0,1.7923,1.9034,1.8544,1.8043,1.7841,1.6903,1.6404,1.6656,1.6685,1.6536,1.6247,1.6729,1.6821,1.6339,1.6229,1.5981,1.5565,0.0,0.0,0.0,0.0,0.0,0.0,0.0,0.0,0.0,0.0,0.0,0.0,0.0,0.0,0.0,0.0,0.0,0.0,0.0,0.0,0.0,0.0,0.0,0.0,0.0,0.0,0.0,0.0,0.0,1.6046,1.7389,0.0,0.0,0.0,0.0,1.527,1.761,1.9197,1.9423,2.0868,2.2264,2.3555,2.3633,2.3867,2.4293,2.4769,2.5004,2.5024,2.5406,2.562,2.5615,2.5234,2.5063,2.5043,2.459,2.4371,2.4235,2.2888,2.1602,2.0449,1.9941,1.9512,1.9219,1.961,1.9766,1.9825,2.0332,2.0214,1.9962,2.0742,2.0176,1.8984,1.8086,1.7632,0.0,0.0,1.8965,2.032,2.1186,2.1349,2.1908,2.4407,2.4255,2.3938,2.5251,2.4815,2.3862,0.0,2.1345,2.0108,2.0394,0.0,1.8414,1.8239,1.7856,1.7823,1.8459,1.8511,1.8728,1.9428,1.9026,1.8296,1.7267,1.7166,1.667,1.5517,1.5497,1.5689,1.6106,1.6483,1.6617,1.6532,1.5788,0.0,0.0,0.0,0.0,0.0,0.0,0.0,0.0,0.0,0.0,0.0,0.0,0.0,0.0,0.0,0.0,0.0,0.0,0.0,0.0,0.0,0.0,0.0,0.0,0.0,0.0,0.0,0.0,1.8142,1.9396,0.0,1.8754,1.9383,1.9753,1.9562,2.0951,2.1948,2.2298,2.3368,2.43,2.4996,2.5312,2.5664,2.6069,2.625,2.6328,2.6328,2.6459,2.6537,2.6518,2.6113,2.5942,2.5923,2.5425,2.5074,2.4828,2.4378,2.3577,2.2599,2.1855,2.1504,2.1348,2.123,2.1348,2.1542,2.1466,2.1484,2.1523,2.1268,2.0723,2.0077,1.9765,1.9617,1.9606,1.9959,2.0903,2.194,2.2498,2.3073,2.3749,2.465,2.46,2.4408,2.4649,2.393,2.3261,2.3329,2.2203,2.103,2.0473,1.9849,1.9456,1.9512,1.8785,1.863,1.9705,1.8866,1.8271,1.8532,1.7927,1.7327,1.6923,1.6872,1.6704,1.6254,1.6673,1.6814,1.65,1.6837,1.7063,1.7183,1.5957,1.4899,0.0,0.0,0.0,0.0,0.0,0.0,0.0,0.0,0.0,0.0,0.0,0.0,0.0,0.0,0.0,0.0,0.0,0.0,0.0,0.0,0.0,0.0,0.0,0.0,0.0,1.6982,1.9394,1.9706,2.1133,2.1816,2.1094,2.1797,2.2401,2.2715,2.3694,2.4398,2.4648,2.5332,2.5859,2.6128,2.6445,2.6738,2.6986,2.6986,2.6986,2.6986,2.6986,2.6986,2.6986,2.6719,2.6602,2.6582,2.6128,2.5703,2.5273,2.516,2.475,2.4183,2.3437,2.3123,2.3125,2.2832,2.291,2.3064,2.2676,2.2715,2.2771,2.1913,2.1465,2.1211,2.1075,2.1035,2.1094,2.1347,2.193,2.2491,2.2757,2.3322,2.3902,2.4217,2.4296,2.4283,2.4225,2.3407,2.2757,2.2967,2.2262,2.1538,2.1118,2.0552,2.0193,2.031,1.9349,1.8984,2.0027,1.8902,1.8049,1.8186,1.7561,1.7077,1.6957,1.6937,1.6879,1.6707,1.703,1.7071,1.6703,1.7288,1.768,1.7776,1.6751,1.6075,1.5749,0.0,0.0,0.0,0.0,0.0,0.0,0.0,0.0,0.0,0.0,0.0,0.0,0.0,0.0,0.0,0.0,0.0,0.0,0.0,0.0,0.0,0.0,0.0,1.5718,1.8564,2.0683,2.0723,2.258,2.3359,2.2169,2.3516,2.4469,2.4469,2.5684,2.6431,2.6431,2.6797,2.7031,2.7006,2.7006,2.7025,2.7025,2.7025,2.7025,2.7025,2.7025,2.7025,2.7025,2.7006,2.6986,2.6992,2.6562,2.6133,2.5679,2.5273,2.5102,2.5043,2.459,2.4391,2.441,2.4391,2.4391,2.4332,2.3945,2.3831,2.3672,2.2832,2.2559,2.248,2.2051,2.1954,2.1974,2.1934,2.1954,2.1914,2.1935,2.1935,2.2163,2.3061,2.3283,2.3457,2.4018,2.3371,2.2527,2.2046,2.1551,2.1494,2.247,2.151,2.0591,2.057,1.9477,0.0,1.9238,1.8555,1.8166,1.8578,1.8264,1.7871,1.7477,1.7438,1.7227,1.6746,1.6363,1.6304,1.6687,1.7833,1.8388,1.828,1.8204,1.7933,1.7394,0.0,0.0,0.0,0.0,0.0,0.0,0.0,0.0,0.0,0.0,0.0,0.0,0.0,0.0,0.0,0.0,0.0,0.0,0.0,0.0,0.0,1.608,1.8115,1.8444,2.0495,2.2324,2.3242,2.443,2.5171,2.5156,2.584,2.6309,2.6309,2.6641,2.6836,2.6836,2.6953,2.7168,2.7506,2.7506,2.7663,2.793,2.7949,2.7949,2.7949,2.7949,2.7949,2.793,2.7305,2.6986,2.6947,2.6206,2.5835,2.5698,2.5581,2.5371,2.5043,2.459,2.4609,2.4867,2.4531,2.4391,2.4371,2.4254,2.4238,2.416,2.3613,2.3652,2.3728,2.3006,2.3008,2.3203,2.2869,2.2771,2.2693,2.2401,2.2537,2.2758,2.272,2.2942,2.3047,2.2615,2.2311,2.1889,2.1131,2.0873,2.085,2.1116,2.0864,2.0495,2.0138,1.9777,0.0,1.9335,1.8791,1.8615,1.9062,1.8713,1.8383,1.8283,1.8283,1.7971,1.7246,1.7106,1.6934,1.6707,1.7023,1.7436,1.7926,1.7687,1.7469,0.0,0.0,0.0,0.0,0.0,0.0,0.0,0.0,0.0,0.0,0.0,0.0,0.0,0.0,0.0,0.0,0.0,0.0,0.0,0.0,0.0,0.0,1.7229,1.8856,2.0756,2.2342,2.3487,2.398,2.5179,2.5924,2.5755,2.6679,2.7285,2.7285,2.6876,2.6893,2.7506,2.6946,2.7034,2.793,2.7956,2.8073,2.8301,2.8301,2.8301,2.8301,2.8301,2.8203,2.8034,2.7519,2.7187,2.6947,2.6284,2.5874,2.5698,2.5503,2.5293,2.5063,0.0,0.0,0.0,0.0,2.4391,2.4371,2.4219,2.416,2.4082,2.3652,2.3649,2.3767,2.3237,2.3415,2.3691,2.324,2.324,2.3298,2.2869,2.2906,2.3042,2.281,2.281,2.2674,2.2052,2.1738,2.1406,2.0723,2.0605,0.0,2.0605,2.0605,2.0507,2.0234,2.0039,1.9824,1.959,1.918,1.9004,1.9276,1.9062,1.881,1.8617,1.8791,0.0,0.0,0.0,1.7494,1.7179,1.7516,0.0,0.0,0.0,0.0,0.0,0.0,0.0,0.0,2.0288,2.0425,0.0,0.0,0.0,0.0,0.0,0.0,0.0,0.0,0.0,0.0,0.0,0.0,0.0,0.0,0.0,0.0,1.7919,1.8853,2.2393,2.3632,2.4041,2.3658,2.5014,2.5749,2.5196,2.6581,2.7524,2.7524,2.6801,2.6852,2.7987,2.6798,0.0,0.0,0.0,2.8218,2.8437,2.8398,2.8359,2.8359,2.832,2.8105,2.7761,2.7663,2.7383,2.6967,2.6523,2.6094,2.5679,2.5312,2.5141,2.5102,2.5141,2.4902,2.4528,2.4512,2.4492,2.4434,2.4004,0.0,0.0,2.3337,2.3198,2.3218,2.312,2.3415,2.3691,2.324,2.3396,2.3613,2.3162,2.3062,2.3081,2.3042,2.2791,2.2461,2.2051,2.164,2.121,2.0762,2.0664,2.0644,2.0625,2.0605,2.0586,2.0546,2.0156,1.9883,1.9825,1.9512,1.9315,1.9355,0.0,0.0,1.8773,1.9141,1.916,1.8637,1.8303,1.8114,1.8044,1.8829,1.9372,1.9633,2.1333,2.2419,2.2847,2.4386,2.5126,2.5077,2.294,2.2749,0.0,0.0,0.0,0.0,0.0,0.0,0.0,0.0,0.0,0.0,0.0,0.0,0.0,0.0,0.0,1.7657,1.9194,2.0605,2.2053,2.2628,2.3178,2.4043,2.3695,2.4386,2.6888,2.6705,2.6398,2.6398,2.7319,2.7465,2.6581,2.6236,2.6919,2.8735,2.7648,2.7743,2.9316,2.8965,2.8762,2.8762,2.8457,0.0,2.8144,2.7461,2.709,2.6947,2.6167,2.5796,2.5674,2.562,2.5391,2.5121,2.5469,2.5523,2.5425,2.5078,2.4965,2.4906,2.4453,2.4274,2.4238,2.3809,2.3864,2.402,2.3296,2.3415,0.0,2.324,2.3181,2.3142,2.2713,2.2869,2.3003,2.2693,2.281,2.2867,2.2459,2.2303,2.201,2.123,2.1093,2.0996,2.0664,2.0605,2.0468,2.0098,1.9961,1.9766,1.9453,1.9354,1.9414,1.9746,1.9766,1.9747,1.9649,1.9727,1.9454,1.8656,1.8887,1.9193,1.9477,2.0028,2.0162,1.9853,2.0212,2.0299,2.0088,2.151,2.2215,2.2247,2.4003,2.4983,0.0,0.0,0.0,0.0,0.0,0.0,0.0,0.0,0.0,0.0,0.0,1.2793,1.3735,0.0,1.6593,1.8452,1.9133,1.9833,2.111,2.0833,2.102,2.2439,2.3458,2.4213,2.462,2.5538,2.58,2.5013,2.4958,2.5017,2.5179,2.5252,2.5762,2.677,2.7697,2.8202,2.8352,2.8707,2.8898,2.8879,2.8496,2.8184,2.7995,2.7539,2.7109,2.668,2.625,2.5913,2.5693,2.5693,2.5581,2.543,2.562,2.5421,2.5035,2.4824,2.4746,2.4687,2.4258,2.4102,2.4043,2.3571,2.3591,2.3669,2.3218,2.3415,2.3691,2.324,2.3279,2.3337,2.2908,2.2967,2.3042,2.2849,2.281,2.2752,2.2537,2.2344,2.207,2.162,2.1542,2.1484,2.129,2.125,2.1016,2.0351,2.0253,2.0175,1.998,1.9941,2.0019,2.0234,2.0253,2.0156,1.9923,1.9903,1.9708,1.9279,1.9687,1.9843,1.9609,2.0234,2.0371,1.9903,2.0809,2.1336,2.1394,2.2807,2.3481,2.3542,2.4936,2.5774,0.0,0.0,0.0,0.0,0.0,0.0,0.0,0.0,1.2113,1.2772,1.3554,1.4381,1.5253,1.6029,1.7157,1.9089,1.8695,1.8646,2.0006,1.932,1.9151,2.044,2.2697,2.3573,2.2163,2.3989,2.471,2.3459,2.2595,2.2637,2.3779,2.4003,2.4474,2.5286,2.7573,2.8502,2.7833,2.8715,2.9094,2.9043,2.8613,2.823,2.7819,2.7741,2.7311,2.6646,2.6465,2.6133,2.5693,2.5693,2.5693,2.5693,2.5693,2.5269,2.4645,2.4547,2.4551,2.4492,2.4062,2.3906,2.3848,2.3474,2.3318,2.324,2.324,2.3435,2.3594,2.322,2.3376,2.3574,2.3201,2.3101,2.3101,2.3101,2.2869,2.2615,2.2615,2.2363,2.2109,2.2031,2.2032,2.1973,2.1915,2.1915,2.1661,2.0977,2.084,2.084,2.084,2.084,2.084,2.084,2.084,2.0703,2.0332,2.0293,2.0313,2.0391,2.0762,2.0684,2.0059,2.0723,2.0859,2.041,2.1885,2.2832,2.3182,2.4327,2.4885,2.4885,2.5194,2.567,0.9938,0.9952,1.0072,1.0356,1.0848,1.1686,0.0,0.0,1.4049,1.487,1.5574,1.619,1.6844,1.722,1.7728,1.8496,1.8721,1.8866,1.9062,1.9206,1.9365,1.9537,1.9607,2.0653,2.3287,2.2674,2.2024,2.187,2.3184,2.3489,2.2325,2.254,2.4191,2.7351,2.6484,2.7423,3.0432,3.0207,2.9863,2.952,2.9062,2.8633,2.8203,2.7858,2.7643,2.7506,2.6744,2.6133,2.5693,2.5693,2.5693,2.5693,2.5693,2.5659,2.5523,2.5137,2.5024,2.4965,2.4492,2.4332,2.4313,2.4274,2.4023,2.3711,2.3711,2.3454,2.3159,2.3101,2.314,2.3181,2.3101,2.3101,2.3101,2.3101,2.3062,2.3023,2.3023,2.3006,2.2869,2.2498,2.242,2.2324,2.1974,2.1915,2.1876,2.1778,2.1759,2.1759,2.1759,2.1759,2.1759,2.1759,2.1759,2.1739,2.168,2.1681,2.1816,2.2186,2.2266,2.2401,2.2652,2.2771,2.2635,2.2227,2.241,2.2396,2.2081,2.2244,2.2305,2.2346,2.3722,2.4573,1.1089,1.1159,1.1266,0.0,1.2278,1.302,1.433,1.4745,1.5057,1.5789,1.6404,1.6965,1.7354,1.7822,1.825,0.0,1.8985,1.9185,1.9185,1.9132,1.9105,1.9105,1.8851,1.9345,2.1072,2.1458,2.1259,2.0371,2.1177,2.1481,2.0986,2.2153,2.3626,2.5317,2.6551,2.792,2.9442,2.9949,2.998,2.9598,2.9121,2.8691,2.8281,2.8132,2.7917,2.7663,2.7012,2.6504,2.6113,2.6113,2.5952,2.5693,2.5693,2.5693,2.5698,2.5503,2.5449,2.5391,2.4941,2.4828,2.4746,2.4492,2.4297,2.416,2.416,2.4001,2.3864,2.3864,2.3864,2.3864,2.3864,2.3669,2.3516,2.3516,2.3298,2.3101,2.3101,2.3101,2.3042,2.2888,2.2849,2.2791,2.2615,2.2596,2.2596,2.2596,2.2207,2.1915,2.1915,2.1915,2.1915,2.1915,2.1915,2.1915,2.1915,2.1915,2.1953,2.2129,2.2148,2.2227,2.2381,2.2402,2.2324,2.2148,2.2383,2.2422,2.2246,2.2479,2.2754,2.301,2.3667,2.418,1.1627,0.0,0.0,1.2784,1.344,1.4194,1.5017,1.5498,1.5899,1.6431,1.6939,1.7381,1.7662,1.8143,1.8584,1.885,1.9172,1.9401,1.9401,1.9118,1.889,1.889,1.8664,1.8691,1.9227,2.0245,2.0444,1.9475,1.9706,2.0013,2.0197,2.1697,2.2873,2.3574,2.5849,2.7512,2.8379,2.9158,2.9555,2.9598,2.9121,2.8691,2.8301,2.8301,2.8093,2.7682,2.7324,2.6953,2.6562,2.647,2.6211,2.5874,2.5757,2.5693,2.5693,2.5693,2.5693,2.5659,2.5371,2.5278,2.5195,2.4859,2.4664,2.459,2.459,2.4512,2.4391,2.4391,2.4391,2.4391,2.4391,2.418,2.3965,2.3965,2.3708,2.3474,2.3474,2.3376,2.3298,2.3298,2.3201,2.3101,2.3101,2.3101,2.314,2.3279,2.2695,2.2227,2.2227,2.2227,2.2227,2.2227,2.2227,2.2227,2.2227,2.2227,2.2227,2.2227,2.2227,2.2227,2.2227,2.2227,2.2227,2.2227,2.2656,2.2871,2.2871,2.3259,2.363,2.3965,2.3965,2.4199,0.0,0.0,1.2837,1.312,1.4089,1.5106,1.5648,1.6222,1.6754,1.7112,1.7381,1.7662,1.7942,1.8263,1.8584,1.885,1.9172,1.9401,1.9401,1.9118,1.889,1.889,1.8664,1.8611,0.0,1.896,1.9109,1.9374,1.9893,2.0197,2.0197,2.0806,2.1902,2.3543,2.3698,2.5238,2.8349,2.8059,2.8459,2.9598,2.9121,2.8691,2.8301,2.8301,2.8093,2.7702,2.7682,2.7402,2.6947,2.6562,2.6387,2.6328,2.5874,2.5693,2.5693,2.5693,2.5693,2.5693,2.5698,2.5698,2.5698,2.5679,2.541,2.5082,2.5082,2.4746,2.4391,2.4391,2.4391,2.4391,2.4391,2.4391,2.4371,2.4371,2.4371,2.4352,2.4352,2.4062,2.3769,2.3769,2.3415,2.3101,2.3101,2.3101,2.3259,2.3711,2.3357,2.3062,2.3062,2.3062,2.3062,2.3062,2.3062,2.3062,2.3062,2.3062,2.3062,2.3062,2.3062,2.3062,2.3062,2.3062,2.3062,2.3062,2.3535,2.375,2.375,2.418,2.4352,2.4371,2.4371,2.4629,1.1871,0.0,1.3507,1.4223,1.4963,1.5685,1.6248,1.6739,1.7046,1.7179,1.7286,1.7354,1.7461,1.7715,1.805,1.8557,1.8878,1.9145,1.9361,1.9308,1.9078,1.8677,1.8718,0.0,0.0,0.0,0.0,1.9374,1.9907,2.0197,2.0197,2.0757,2.1884,2.3543,2.4625,2.5626,2.6534,2.7475,2.7852,2.7688,2.8229,2.8437,2.8301,2.8301,2.8249,2.8112,2.8112,2.7858,2.7467,2.7311,2.7096,2.6758,2.6328,2.6172,2.6133,2.5815,2.5693,2.5693,2.5693,2.5693,2.5693,2.5693,2.562,2.5484,2.5484,2.5386,2.5269,2.5269,2.5269,2.5269,2.5269,2.5078,2.4867,2.4867,2.4629,2.4391,2.4391,2.4293,2.4199,2.4199,2.4059,2.3962,2.3962,2.3962,2.402,2.418,2.3848,2.3435,2.314,2.3101,2.3101,2.3101,2.3101,2.324,2.3555,2.3279,2.324,2.3532,2.3279,2.324,2.3555,2.3574,2.3688,2.3962,2.4121,2.4199,2.4199,2.4332,2.457,2.4867,2.4867,2.5078,1.2638,1.3487,1.4127,1.4946,1.5551,1.6112,1.6593,1.6886,1.702,1.702,1.6965,1.6832,1.6725,1.6939,1.7367,1.805,1.8504,1.8945,1.9481,1.9468,1.9254,1.8879,1.8784,1.8731,0.0,0.0,0.0,1.9374,1.9907,2.0197,2.0197,2.0757,2.1601,2.2685,2.3699,2.4454,2.4871,2.5657,2.6186,2.6498,2.7725,2.8301,2.8301,2.8301,2.8301,2.8301,2.8301,2.8144,2.7897,2.7761,2.7526,2.7207,2.6777,2.6602,2.6562,2.6108,2.5952,2.5932,2.5776,2.5693,2.5693,2.5693,2.5693,2.5693,2.5693,2.5693,2.5693,2.5693,2.5693,2.5693,2.5693,2.5503,2.5312,2.5312,2.5074,2.4859,2.4859,2.4742,2.4648,2.4648,2.4508,2.4391,2.4391,2.4551,2.459,2.4434,2.4316,2.4082,2.363,2.3549,2.3549,2.3549,2.3549,2.3688,2.3984,2.3728,2.3688,2.4004,2.3728,2.3708,2.4004,2.4004,2.4141,2.4391,2.457,2.4648,2.4648,2.4781,2.5015,2.5312,2.5493,2.5703,1.34,1.41,1.4687,1.5297,1.5882,1.6377,1.6647,1.67,1.6673,1.6647,1.6406,1.6136,0.0,0.0,1.6565,1.7421,1.809,1.8811,1.9679,1.9615,1.9455,0.0,0.0,0.0,0.0,0.0,0.0,1.9428,1.992,2.021,2.0224,2.0771,2.1109,2.1109,2.1172,2.1964,2.3544,2.2992,2.3841,2.6127,2.7538,2.8228,2.8301,2.8201,2.8228,2.8301,2.8301,2.8301,2.8262,2.7878,2.7721,2.7682,2.7226,2.7051,2.6992,2.6582,2.6426,2.6348,2.5893,2.5737,2.5693,2.5693,2.5693,2.5693,2.5693,2.5693,2.5693,2.5693,2.5693,2.5693,2.5693,2.5693,2.5693,2.5693,2.5693,2.5693,2.5693,2.541,2.5121,2.5121,2.4766,2.4469,2.4469,2.4824,2.4984,2.4528,2.4867,2.4965,2.4449,2.4391,2.4391,2.4391,2.4391,2.441,2.443,2.441,2.441,2.443,2.441,2.441,2.443,2.443,2.4449,2.4469,2.4906,2.5121,2.5121,2.5523,2.5757,2.5757,2.6211,2.6426,1.4034,1.4701,1.5311,1.5922,1.619,1.6377,1.6647,1.654,1.6259,1.5818,1.5521,1.516,0.0,0.0,0.0,1.682,1.7996,0.0,1.9706,2.012,0.0,1.9746,0.0,1.9973,1.9613,1.9743,0.0,1.997,2.0117,2.0304,2.0548,2.0909,2.1109,2.1109,2.231,2.3052,2.3231,2.482,2.5779,2.61,2.6499,2.7249,2.8274,2.7168,2.7249,2.8301,2.8301,2.8301,2.8281,2.8184,2.8151,2.8112,2.7702,2.7526,2.7467,2.7012,2.6855,2.6797,2.6367,2.5991,2.5693,2.5693,2.5693,2.5693,2.5693,2.5693,2.5693,2.5693,2.5693,2.5693,2.5693,2.5693,2.5693,2.5693,2.5693,2.5693,2.5693,2.562,2.5542,2.5542,2.5445,2.5367,2.5367,2.5464,2.5503,2.5386,2.5464,2.5269,2.4489,2.4391,2.4391,2.4391,2.4391,2.4551,2.4887,2.4609,2.4551,2.4906,2.459,2.457,2.4906,2.4926,2.5059,2.5367,2.5484,2.5542,2.5542,2.6016,2.623,2.623,2.666,2.6855,1.4794,1.5431,1.5885,1.6377,1.6484,1.6433,1.6339,1.6099,1.5645,1.4781,1.4496,0.0,1.3655,1.4456,1.5515,0.0,0.0,0.0,1.9867,2.0388,2.0579,0.0,2.0361,0.0,2.0027,2.0104,2.0264,2.0414,2.0428,2.0494,2.0699,2.0949,2.1109,2.1109,2.2748,2.344,2.3111,2.5073,2.5497,2.4334,2.5634,2.6637,2.733,2.7141,2.7538,2.8301,2.8301,2.8301,2.8301,2.8301,2.8301,2.8262,2.8054,2.7956,2.7917,2.7461,2.7305,2.7246,2.6816,2.6504,2.6206,2.581,2.5693,2.5693,2.5693,2.5693,2.5693,2.5693,2.5693,2.5693,2.5693,2.5693,2.5693,2.5693,2.5693,2.5693,2.5693,2.5693,2.5693,2.5693,2.5874,2.5991,2.5991,2.6147,2.6206,2.603,2.5991,2.5757,2.5054,2.4976,2.4976,2.4976,2.4976,2.5074,2.5332,2.5113,2.5074,2.5352,2.5113,2.5195,2.5649,2.5669,2.5859,2.6264,2.6284,2.6284,2.6284,2.6543,2.666,2.668,2.7109,2.7305,1.5581,1.6099,1.6417,1.6647,1.6647,1.6422,1.5875,1.5435,1.4834,1.3727,0.0,1.3247,1.2811,1.3667,1.4856,1.6096,0.0,1.8891,2.0037,2.0494,2.0726,2.0766,2.0508,2.0317,2.0317,2.0317,2.0424,2.0722,2.0766,2.0766,2.0766,2.0975,2.1109,2.1109,2.2748,2.344,2.3081,2.4753,2.4606,2.2644,2.5264,2.647,2.6427,2.7511,2.8121,2.8301,2.8301,2.8301,2.8301,2.8301,2.8301,2.8301,2.8301,2.8301,2.8242,2.7917,2.778,2.7721,2.7246,2.7109,2.6973,2.6147,2.5874,2.5874,2.5874,2.5874,2.5874,2.5874,2.5874,2.5874,2.5874,2.5874,2.5874,2.5874,2.5874,2.5874,2.5874,2.5874,2.5874,2.5874,2.6186,2.6465,2.6465,2.6777,2.6894,2.6523,2.6465,2.6328,2.5932,2.5752,2.5693,2.5693,2.5776,2.5796,2.5796,2.5854,2.5874,2.5874,2.5874,2.605,2.6465,2.6465,2.6641,2.6986,2.6986,2.6986,2.6986,2.7045,2.7109,2.7109,2.7565,2.778,1.6072,1.6406,1.6647,1.67,1.6339,1.5861,1.5551,1.4661,0.0,0.0,1.2537,1.2229,1.2358,1.336,1.4651,1.607,1.7541,1.8891,2.0037,2.0494,2.0762,0.0,2.0989,2.0949,2.0949,2.0949,0.0,2.1029,2.1029,2.1029,2.1029,2.1082,2.1109,2.1109,2.2748,2.3379,2.2928,2.5872,2.6829,2.5743,2.6379,2.7096,2.7906,2.6906,2.7141,2.8301,2.8301,2.8301,2.8301,2.8301,2.8301,2.8301,2.8301,2.8301,2.8281,2.8203,2.821,2.8151,2.7721,2.7585,2.7506,2.6953,2.6771,2.6771,2.6771,2.6771,2.6771,2.6771,2.6771,2.6771,2.6771,2.6771,2.6771,2.6771,2.6771,2.6771,2.6771,2.6771,2.6771,2.6771,2.683,2.6914,2.6914,2.6947,2.6992,2.6914,2.6914,2.6875,2.6771,2.6147,2.5693,2.5693,2.603,2.6269,2.6269,2.6576,2.6771,2.6771,2.6771,2.6811,2.6894,2.6914,2.6934,2.6986,2.6986,2.6986,2.6986,2.7409,2.7585,2.7585,2.7988,2.821,1.6339,1.6739,1.6993,1.7128,1.6607,1.5858,1.511,0.0,0.0,0.0,1.1748,1.1637,1.1623,1.2719,0.0,1.4999,1.6404,1.7849,1.9316,1.9813,0.0,2.1015,2.1109,2.1109,2.1109,2.1109,2.1109,2.1109,2.1109,2.1109,2.1109,2.1109,2.1506,2.2372,2.317,2.3499,2.3273,2.5419,2.5809,2.4433,2.5905,2.6792,2.7141,2.6427,2.6906,2.8274,2.7511,2.7592,2.8301,2.8301,2.8301,2.8301,2.8301,2.8301,2.8301,2.8301,2.8301,2.8262,2.8093,2.8015,2.7976,2.7754,2.7383,2.6986,2.6986,2.6986,2.6986,2.6986,2.6986,2.6986,2.6986,2.6986,2.6986,2.6986,2.6986,2.6986,2.6986,2.6986,2.6986,2.6986,2.7207,2.7344,2.7344,2.7539,2.7598,2.7383,2.7344,2.7266,2.7025,2.6635,2.6381,2.6381,2.6582,2.6719,2.6719,2.6894,2.6986,2.6986,2.6986,2.7109,2.7344,2.7344,2.7461,2.7676,2.7676,2.7676,2.7676,2.7891,2.8015,2.8015,2.8203,2.8418,1.65,1.6993,1.7314,1.7474,1.6859,1.5872,1.4696,1.3674,0.0,0.0,1.1129,1.1192,1.1102,1.2091,1.32,0.0,1.528,1.6727,1.8571,1.9145,1.9803,0.0,2.1069,0.0,2.1109,2.1109,0.0,2.1109,2.1109,2.1109,2.1109,2.1109,2.1695,2.3014,2.3419,2.3544,2.3438,2.5048,2.4841,2.2926,2.5372,2.622,2.5617,2.5964,2.6744,2.778,2.6933,2.7222,2.8301,2.8301,2.8301,2.8301,2.8301,2.8301,2.8301,2.8301,2.8301,2.8301,2.8301,2.8301,2.8301,2.8301,2.7832,2.7285,2.7285,2.7285,2.7285,2.7285,2.7285,2.7285,2.7285,2.7285,2.7285,2.7285,2.7285,2.7285,2.7285,2.7285,2.7285,2.7285,2.7559,2.7839,2.7839,2.8093,2.8184,2.7878,2.7839,2.7702,2.7344,2.7285,2.7285,2.7285,2.7207,2.7148,2.7148,2.7246,2.7285,2.7285,2.7285,2.7441,2.7819,2.7839,2.7976,2.8281,2.8379,2.8437,2.8437,2.8516,2.8601,2.8601,2.8601,2.875,1.6607,1.7114,1.7515,1.73,1.6551,1.5541,1.4389,0.0,0.0,1.1182,1.0825,1.0811,1.1272,1.1717,0.0,0.0,0.0,1.6192,1.8237,1.904,1.9736,2.0632,0.0,0.0,2.1109,2.1109,2.1109,2.1109,2.1109,2.1109,2.1109,2.1109,2.1172,2.133,2.281,2.3394,2.2973,2.6037,2.6394,2.4159,2.5874,2.5747,2.4044,2.5453,2.6182,2.6372,2.7592,2.8174,2.8301,2.8301,2.8301,2.8301,2.8301,2.8301,2.8301,2.8301,2.8301,2.8301,2.8301,2.8301,2.8301,2.8301,2.8242,2.8184,2.8184,2.8184,2.8184,2.8184,2.8184,2.8184,2.8184,2.8184,2.8184,2.8184,2.8184,2.8184,2.8184,2.8184,2.8184,2.8184,2.8203,2.8242,2.8242,2.8262,2.8281,2.8242,2.8242,2.8223,2.8184,2.8184,2.8184,2.8184,2.7858,2.7643,2.7643,2.7976,2.8184,2.8184,2.8184,2.8203,2.8242,2.8242,2.8262,2.8301,2.8672,2.884,2.8867,2.9258,2.9481,2.9481,2.9481,2.95,1.6526,1.7128,1.7582,1.7461,1.6607,1.5501,1.4349,0.0,1.2011,1.0972,1.0667,1.0667,1.0878,1.1159,1.1761,0.0,0.0,0.0,1.6859,1.7381,1.8184,1.9933,2.0254,0.0,0.0,2.1109,2.1109,2.1109,2.1109,2.1109,2.1109,2.1109,2.1109,2.1109,2.1758,2.1919,2.1581,2.3592,2.4031,2.2933,2.4305,2.503,2.5178,2.4848,2.5717,2.7411,2.7114,2.7465,2.8301,2.8301,2.8301,2.8301,2.8301,2.8301,2.8301,2.8301,2.8301,2.8301,2.8301,2.8301,2.8301,2.8301,2.8301,2.8301,2.8301,2.8301,2.8301,2.8301,2.8301,2.8301,2.8301,2.8301,2.8301,2.8301,2.8301,2.8301,2.8301,2.8301,2.8301,2.8301,2.8301,2.8301,2.8301,2.8301,2.8301,2.8301,2.8301,2.8301,2.8301,2.8301,2.8301,2.8301,2.8171,2.8073,2.8073,2.823,2.8398,2.8652,2.8672,2.8789,2.907,2.909,2.909,2.909,2.9246,2.9316,2.9316,2.952,2.9598,2.9598,2.9598,2.9735,1.642,1.7074,1.7488,1.7488,1.6633,1.5475,0.0,1.3093,1.1971,1.0827,1.0602,1.0602,1.0602,1.076,1.1172,0.0,0.0,1.3655,1.5748,1.6337,1.7247,1.9052,0.0,1.9853,2.0641,2.0962,2.1109,2.1109,2.1109,2.1109,2.1109,2.1109,2.1109,2.1109,2.1569,2.1628,2.1241,2.2557,2.298,2.2548,2.3376,2.4378,2.5398,2.4765,2.5635,2.7618,2.7006,2.733,2.8301,2.8301,2.8301,2.8301,2.8301,2.8301,2.8301,2.8301,2.8301,2.8301,2.8301,2.8301,2.8301,2.8301,2.8301,2.8301,2.8301,2.8301,2.8301,2.8301,2.8301,2.8301,2.8301,2.8301,2.8301,2.8301,2.8301,2.8301,2.8301,2.8301,2.8301,2.8301,2.8301,2.8301,2.8301,2.8301,2.834,2.8457,2.8476,2.8516,2.8679,2.8672,2.8672,2.8672,2.8672,2.8613,2.8496,2.8476,2.8652,2.9082,2.9121,2.9258,2.9579,2.9598,2.9598,2.9598,2.9715,2.9794,2.9794,2.9931,2.9989,2.9989,2.9989,3.0146,1.6313,1.6953,1.7206,1.7206,1.6511,1.5398,1.3946,1.2927,1.1971,1.0827,1.0602,1.0602,1.0602,1.06,1.0881,1.1765,0.0,0.0,1.5204,1.6431,1.7394,0.0,1.8543,1.913,1.976,2.0601,2.1109,2.1109,2.1109,2.1109,2.1109,2.1109,2.1109,2.1109,2.2716,2.3229,2.2498,2.4063,2.4519,2.3766,2.3794,2.3794,2.3877,2.5371,2.61,2.6209,2.7645,2.8301,2.8301,2.8301,2.8301,2.8301,2.8301,2.8301,2.8301,2.8301,2.8301,2.8301,2.8301,2.8301,2.8301,2.8301,2.8301,2.8301,2.8301,2.8301,2.8301,2.8301,2.8301,2.8301,2.8301,2.8301,2.8301,2.8301,2.8301,2.8301,2.8301,2.8301,2.8301,2.8301,2.8301,2.8301,2.8301,2.8301,2.8437,2.882,2.8879,2.9062,2.952,2.9579,2.9579,2.9579,2.9579,2.9403,2.8918,2.8879,2.9101,2.9559,2.9598,2.9598,2.9598,2.9598,2.9598,2.9598,2.998,3.0195,3.0195,3.0644,3.0879,3.0879,3.0879,3.0879,1.4439,1.5124,1.5628,1.5404,1.4821,1.4087,1.3246,1.251,1.1765,1.0787,1.0602,1.0602,1.0602,1.0602,1.1082,1.2545,1.3026,0.0,0.0,0.0,0.0,1.7916,1.941,2.0575,2.0993,2.1274,2.1448,2.1448,2.1229,2.1109,2.1109,2.1109,2.1109,2.1109,2.1601,2.1593,2.0923,2.2468,2.2944,2.2307,2.2307,2.2814,2.3766,2.3263,2.3571,2.4599,2.6127,2.6798,2.6852,2.786,2.8301,2.8301,2.8301,2.8301,2.8301,2.8301,2.8301,2.8301,2.8301,2.8301,2.8301,2.8301,2.8301,2.8301,2.8301,2.8301,2.8301,2.8301,2.8301,2.8301,2.8301,2.8301,2.8301,2.8301,2.8301,2.8301,2.8301,2.8516,2.8711,2.8711,2.8965,2.9188,2.9188,2.9188,2.9246,2.9383,2.9383,2.9442,2.9579,2.9598,2.9598,2.9598,2.9598,2.954,2.9403,2.9383,2.9551,2.998,3.0,3.0137,3.0497,3.0497,3.0497,3.0497,3.0605,3.0664,3.0664,3.082,3.0898,3.0898,3.0898,3.0898,0.0,1.4122,1.4611,1.4402,1.398,1.3433,1.2765,1.2136,1.1507,1.0747,1.0602,1.0602,1.0602,1.0602,1.1028,1.23,1.29,1.3667,0.0,0.0,1.7102,1.8223,1.9677,2.0815,2.1368,2.1622,2.1743,2.1743,2.1475,2.1269,2.1269,2.1162,2.138,2.2027,2.1411,2.1109,2.1074,2.2006,2.2493,2.242,2.242,2.2898,2.3794,2.3459,2.3794,2.4737,2.6264,2.6933,0.0,2.7933,2.8301,2.8301,2.8301,2.8301,2.8301,2.8301,2.8301,2.8301,2.8301,2.8301,2.8301,2.8301,2.8301,2.8301,2.8301,2.8301,2.8301,2.8301,2.8301,2.8301,2.8301,2.8301,2.834,2.8496,2.8535,2.8574,2.873,2.8984,2.916,2.916,2.9422,2.9598,2.9598,2.9598,2.9657,2.9813,2.9833,2.9891,3.0067,3.0106,3.0106,3.0106,3.0106,3.0106,3.0106,2.9931,3.0028,3.043,3.0449,3.0586,3.0879,3.0898,3.0898,3.0898,3.0898,3.0898,3.0898,3.0898,3.0976,3.1133,3.1133,3.1211,0.0,1.362,1.3895,1.3868,1.3654,1.32,1.2398,1.1766,0.0,1.0707,1.0602,1.0629,1.0667,1.0669,1.0854,1.1513,1.2566,1.352,1.4122,1.5712,1.7394,1.9033,1.9631,2.0267,2.1122,2.1697,2.2004,2.1991,2.1743,2.1582,2.1555,2.1383,2.1947,2.3387,2.2013,2.1689,2.2662,2.2676,2.3032,2.3794,2.3682,2.371,2.385,2.5178,2.5854,2.6018,2.7492,2.8147,2.8147,2.8274,2.8301,2.8301,2.8301,2.8301,2.8301,2.8301,2.8301,2.8301,2.8301,2.8301,2.8301,2.832,2.8359,2.8379,2.8379,2.834,2.8301,2.832,2.834,2.834,2.8379,2.8379,2.8476,2.884,2.8937,2.9082,2.952,2.9618,2.9637,2.9637,2.9676,2.9696,2.9696,2.9696,2.9833,3.0176,3.0254,3.041,3.084,3.0898,3.0898,3.0898,3.0898,3.0898,3.0898,3.0488,3.043,3.0859,3.0898,3.0898,3.0898,3.0898,3.0898,3.0937,3.0976,3.0976,3.0976,3.0976,3.1191,3.1562,3.1562,3.1777,1.0752,0.0,1.1997,1.177,1.1663,1.1557,0.0,1.1196,1.0995,1.0667,0.0,1.0801,1.1471,1.1213,1.153,1.346,1.4007,1.4474,1.5288,1.6715,1.8878,2.2121,2.1707,2.1435,2.2011,2.2231,2.2218,2.2004,2.1743,2.1489,2.1229,2.2352,2.2623,2.1727,2.2286,2.3172,2.4327,2.4356,2.4174,2.3794,2.2645,2.2702,2.3766,2.3011,2.3263,2.4433,2.5964,2.6635,2.6689,2.7833,2.8301,2.8301,2.8301,2.8301,2.8301,2.8301,2.8301,2.8301,2.8301,2.8301,2.834,2.8672,2.9004,2.9305,2.9305,2.8836,2.8359,2.8672,2.8769,2.8848,2.9207,2.9305,2.9324,2.9422,2.9442,2.9481,2.9579,2.9852,3.0059,3.0059,3.0332,3.0586,3.0586,3.0586,3.0625,3.0703,3.0723,3.0762,3.0879,3.0898,3.0898,3.0898,3.0898,3.0898,3.0898,3.0801,3.0781,3.0879,3.0898,3.0898,3.0898,3.0898,3.1035,3.1367,3.1699,3.1905,3.1905,3.1905,3.1944,3.2042,3.2042,3.2101,1.0033,1.0939,1.1779,1.1637,1.1597,1.1597,1.1597,0.0,0.0,0.0,0.0,1.0814,1.1547,1.1534,1.2141,1.4366,1.5057,1.6151,1.8453,1.8564,2.0046,2.4455,2.3796,2.3196,2.3769,2.3713,2.3558,2.337,2.2266,2.1823,2.2409,2.2443,2.2404,2.2247,2.28,2.3338,2.3785,2.367,2.3652,2.3794,2.2983,2.3039,2.3794,2.371,2.41,2.4931,2.6445,2.7114,2.7168,2.7987,2.8301,2.8301,2.8301,2.8301,2.8301,2.8301,2.8301,2.832,2.8516,2.8711,2.8926,2.9141,2.9403,2.9598,2.9598,2.9266,2.8953,2.916,2.9219,2.9277,2.954,2.9598,2.9657,2.9833,2.9891,2.9922,3.0165,3.0351,3.0508,3.0508,3.0723,3.0898,3.0898,3.0898,3.0898,3.0898,3.0898,3.0898,3.0898,3.0898,3.0898,3.0898,3.0898,3.0898,3.0898,3.0898,3.0898,3.0898,3.1074,3.1172,3.1172,3.1367,3.1582,3.1816,3.2081,3.2198,3.2198,3.2198,3.2296,3.2492,3.2492,3.2559,1.0171,1.1536,1.2778,1.2231,1.2198,1.2315,1.2385,0.0,0.0,0.0,0.0,0.0,1.1919,1.2404,0.0,0.0,1.6603,1.8593,2.2549,2.1221,2.1656,2.6473,2.5643,2.5008,2.581,2.5462,2.5201,2.5227,2.3274,2.2612,2.3866,2.2388,2.2013,2.3127,2.3094,2.2841,2.2438,2.2389,2.2876,2.3794,2.3794,2.3933,2.4211,2.5508,2.6209,2.6527,2.7753,2.8301,2.8301,2.8301,2.8301,2.8301,2.8301,2.8301,2.8301,2.8301,2.8301,2.8359,2.8769,2.9258,2.9696,2.9696,2.9735,2.9794,2.9794,2.9794,2.9794,2.9794,2.9755,2.9715,2.9774,2.9794,2.9891,3.0215,3.0293,3.041,3.0801,3.0898,3.0898,3.0898,3.0898,3.0898,3.0898,3.0898,3.0898,3.0898,3.0898,3.0898,3.0898,3.0898,3.0898,3.0898,3.0898,3.0918,3.0976,3.0996,3.1016,3.1074,3.1367,3.1513,3.1621,3.2031,3.2296,3.2296,3.2355,3.2394,3.2394,3.2394,3.257,3.2891,3.2891,3.3086,1.0842,1.3181,1.4887,1.1936,1.1757,1.239,1.2723,0.0,0.0,0.0,0.0,0.0,0.0,1.5751,1.7139,1.9162,2.0562,2.263,2.6202,2.5326,2.549,2.8677,2.6665,2.5758,2.7603,2.636,2.5799,2.6712,2.5128,2.4008,2.3678,2.3386,2.2587,2.1169,2.2193,2.2527,2.2095,2.3425,2.4015,2.3794,2.3794,2.4488,2.5745,2.5991,2.6771,2.7987,2.8201,2.8301,2.8301,2.8301,2.8301,2.8301,2.8301,2.8301,2.8301,2.8301,2.8301,2.8359,2.8769,2.9434,3.0098,3.0098,3.0371,3.0684,3.0684,3.0684,3.0684,3.0684,3.041,3.0195,3.0586,3.0684,3.0703,3.0762,3.0781,3.0801,3.0879,3.0898,3.0898,3.0898,3.0898,3.0898,3.0898,3.0898,3.0898,3.0898,3.0898,3.0898,3.0898,3.0898,3.0898,3.0898,3.0898,3.1035,3.1387,3.1426,3.1582,3.1983,3.168,3.168,3.2081,3.248,3.2695,3.2695,3.3047,3.3223,3.3223,3.3223,3.3262,3.332,3.332,3.3328,1.1631,1.3417,1.4883,1.3685,1.4436,1.5529,1.5717,0.0,0.0,0.0,0.0,0.0,0.0,0.0,1.9367,2.2134,2.3409,2.5074,2.7872,2.6641,2.6479,2.9189,2.8535,2.7945,2.8163,2.793,2.7581,2.7123,2.5218,2.3919,2.362,2.2748,2.2253,2.2267,2.2479,2.2927,2.3546,2.4777,2.5242,2.5041,2.4211,2.4599,2.61,2.61,2.6454,2.7168,2.796,2.8301,2.8301,2.8301,2.8301,2.8301,2.8301,2.8301,2.832,2.8555,2.8926,2.9355,2.9551,3.0039,3.0566,3.0566,3.0723,3.0898,3.0898,3.0898,3.0898,3.0898,3.0742,3.0625,3.084,3.0898,3.0898,3.0898,3.0898,3.0898,3.0898,3.0898,3.0898,3.0898,3.0898,3.0898,3.0898,3.0898,3.0898,3.0898,3.0898,3.0898,3.0898,3.0898,3.0976,3.1211,3.123,3.1406,3.1836,3.1875,3.2051,3.2511,3.2324,3.2402,3.2832,3.3027,3.3125,3.3125,3.332,3.3386,3.3386,3.3386,3.3386,3.3386,3.3386,3.3386,1.2568,1.3863,1.5206,1.5972,0.0,1.8007,1.8572,0.0,0.0,0.0,0.0,0.0,0.0,2.0005,2.2035,2.4799,2.604,2.7321,2.9092,2.7987,2.7774,2.9891,3.0088,2.9832,2.9319,2.9509,2.9048,2.7667,2.5889,2.4688,2.4178,2.2952,2.2829,2.4024,2.3428,2.362,2.4779,2.5304,2.5563,2.5535,2.4737,2.4958,2.61,2.61,2.6291,2.6689,2.7807,2.8301,2.8301,2.8301,2.8301,2.8301,2.8301,2.8359,2.8476,2.8809,2.9453,3.0195,3.0195,3.0508,3.0898,3.0898,3.0898,3.0898,3.0898,3.0898,3.0898,3.0898,3.0898,3.0898,3.0898,3.0898,3.0898,3.0898,3.0898,3.0898,3.0898,3.0898,3.0898,3.0898,3.0898,3.0898,3.0898,3.0898,3.0898,3.0898,3.0898,3.0918,3.1035,3.1035,3.1191,3.1621,3.168,3.1855,3.2316,3.2433,3.2598,3.293,3.2949,3.3086,3.3386,3.3386,3.3386,3.3386,3.3386,3.3386,3.3386,3.3386,3.3386,3.3386,3.3386,3.3386,1.3634,1.5458,1.7394,1.825,0.0,0.0,1.9719,1.9898,0.0,0.0,0.0,0.0,0.0,2.3852,2.6251,2.7299,2.8836,3.009,3.0684,3.0956,3.1302,3.1908,3.055,3.0314,3.2277,3.068,2.9362,2.8984,2.8791,2.7848,2.594,2.5711,2.5594,2.5476,2.4992,2.4659,2.453,2.416,2.3961,2.3989,2.5288,2.5991,2.61,2.61,2.6852,2.8147,2.8254,2.8301,2.8301,2.8301,2.8301,2.8301,2.8301,2.8535,2.8859,2.8879,2.9453,3.0195,3.0195,3.0508,3.0898,3.0898,3.0898,3.0898,3.0898,3.0898,3.0898,3.0898,3.0898,3.0898,3.0898,3.0898,3.0898,3.0898,3.0898,3.0898,3.0898,3.0898,3.0898,3.0898,3.0898,3.0898,3.0898,3.0898,3.0898,3.0898,3.0898,3.1035,3.1426,3.1465,3.1641,3.2101,3.2159,3.2316,3.2715,3.3105,3.334,3.3347,3.3347,3.3347,3.3386,3.3386,3.3386,3.3386,3.3386,3.3386,3.3386,3.3386,3.3386,3.3386,3.3386,3.3386,1.426,1.5687,1.7232,1.837,0.0,0.0,0.0,0.0,0.0,0.0,0.0,0.0,0.0,2.5402,2.6783,2.7897,2.9258,3.0351,3.082,3.1035,3.0885,3.0244,3.0494,3.0754,3.0748,2.9842,2.9214,2.9113,2.7891,2.6834,2.6045,2.6015,2.5949,2.5847,2.5238,2.5309,2.6121,2.552,2.5233,2.5233,2.4848,2.4682,2.471,2.5663,2.64,2.696,2.7887,2.8301,2.8301,2.8301,2.8301,2.8301,2.8301,2.8711,2.9344,2.9344,2.9883,3.0625,3.0625,3.0742,3.0898,3.0898,3.0898,3.0898,3.0898,3.0898,3.0898,3.0898,3.0898,3.0898,3.0898,3.0898,3.0898,3.0898,3.0898,3.0898,3.0898,3.0898,3.0898,3.0898,3.0898,3.0898,3.0898,3.0898,3.0976,3.125,3.1269,3.1426,3.1875,3.1944,3.209,3.2519,3.2793,3.3008,3.3164,3.3289,3.3386,3.3386,3.3386,3.3386,3.3386,3.3386,3.3386,3.3386,3.3386,3.3386,3.3386,3.3386,3.3386,3.3386,3.3386,3.3386,1.5053,1.6133,1.7408,0.0,0.0,0.0,0.0,0.0,0.0,0.0,2.6875,0.0,0.0,0.0,2.7154,2.8125,2.9492,3.0527,3.084,3.0898,3.0624,2.9821,3.0653,3.0988,3.0198,2.9853,2.9444,2.8914,2.8061,2.7331,2.6802,2.6772,2.6932,2.7319,2.6194,2.6048,2.697,2.6388,2.5854,2.5371,2.4793,2.4516,2.4571,2.5617,2.6345,2.6852,2.786,2.8301,2.8301,2.8301,2.8301,2.8301,2.8301,2.8836,2.9598,2.9598,3.0165,3.0898,3.0898,3.0898,3.0898,3.0898,3.0898,3.0898,3.0898,3.0898,3.0898,3.0898,3.0898,3.0898,3.0898,3.0898,3.0898,3.0898,3.0898,3.0898,3.0898,3.0898,3.0898,3.0898,3.0898,3.0898,3.0898,3.0996,3.1191,3.1465,3.1641,3.1875,3.2335,3.2394,3.2519,3.2949,3.3242,3.3386,3.3386,3.3386,3.3386,3.3386,3.3386,3.3386,3.3386,3.3386,3.3386,3.3386,3.3386,3.3386,3.3386,3.3386,3.3386,3.3386,3.3386,3.3386,1.6085,1.7028,1.8303,0.0,0.0,0.0,0.0,0.0,0.0,0.0,0.0,2.6914,2.6484,2.7135,2.7839,2.8223,2.9746,3.0879,3.0898,3.0898,3.1055,3.1465,3.1133,3.1055,3.1465,3.1103,3.0186,2.8545,2.9962,3.0157,2.8516,2.8408,2.8954,3.0158,2.8169,2.697,2.6687,2.6299,2.5343,2.385,2.5371,2.6127,2.61,2.6127,2.6906,2.8301,2.8301,2.8301,2.8301,2.8301,2.8301,2.8301,2.8301,2.8836,2.9598,2.9598,3.0165,3.0898,3.0898,3.0898,3.0898,3.0898,3.0898,3.0898,3.0898,3.0898,3.0898,3.0898,3.0898,3.0898,3.0898,3.0898,3.0898,3.0898,3.0898,3.0898,3.0898,3.0898,3.0898,3.0898,3.0898,3.0898,3.0898,3.125,3.1523,3.1494,3.1894,3.2355,3.2754,3.2793,3.2969,3.3347,3.3386,3.3386,3.3386,3.3386,3.3386,3.3386,3.3386,3.3386,3.3386,3.3386,3.3386,3.3386,3.3386,3.3386,3.3386,3.3386,3.3386,3.3386,3.3386,3.3386,1.5698,1.6976,1.8732,2.0077,0.0,0.0,0.0,0.0,0.0,0.0,2.9043,2.8196,2.7812,2.7956,2.8242,2.8672,2.9668,3.0508,3.084,3.0898,3.0937,3.1055,3.0957,3.0937,3.1074,2.9901,2.9412,3.0109,2.953,2.9442,3.0109,2.9852,2.9315,2.8547,2.7409,2.6757,2.6547,2.6244,2.6372,2.6979,2.743,2.7114,2.6155,2.7168,2.7906,2.8301,2.8301,2.8301,2.8301,2.8301,2.8301,2.8301,2.8301,2.8836,2.9598,2.9598,3.0165,3.0898,3.0898,3.0898,3.0898,3.0898,3.0898,3.0898,3.0898,3.0898,3.0898,3.0898,3.0898,3.0898,3.0898,3.0898,3.0898,3.0898,3.0898,3.0898,3.0898,3.0898,3.0898,3.0898,3.1133,3.1328,3.1328,3.1699,3.207,3.2363,3.2519,3.2754,3.3184,3.3242,3.3281,3.3386,3.3386,3.3386,3.3386,3.3386,3.3386,3.3386,3.3386,3.3386,3.3386,3.3386,3.3386,3.3386,3.3386,3.3386,3.3386,3.373,3.373,3.3406,3.373,3.3711,1.6934,1.8518,2.043,2.1583,2.3557,2.5742,2.7812,0.0,0.0,0.0,2.9785,2.9141,2.9062,2.8906,2.8945,2.9355,3.0019,3.0566,3.0859,3.0898,3.0898,3.0898,3.0898,3.0898,3.0898,2.9991,2.9815,3.082,2.9791,2.9579,3.0548,2.9575,2.8747,2.8237,2.7193,2.6809,2.7215,2.7037,2.7411,2.8301,2.8301,2.7833,2.6987,2.7887,2.8301,2.8301,2.8301,2.8301,2.8301,2.8301,2.8301,2.8301,2.8301,2.8836,2.9598,2.9598,3.0165,3.0898,3.0898,3.0898,3.0898,3.0898,3.0898,3.0898,3.0898,3.0898,3.0898,3.0898,3.0898,3.0898,3.0898,3.0898,3.0898,3.0898,3.0898,3.0898,3.0898,3.1016,3.1133,3.1133,3.1484,3.1777,3.1777,3.2159,3.2531,3.2754,3.293,3.3144,3.3347,3.3386,3.3386,3.3386,3.3386,3.3386,3.3386,3.3386,3.3386,3.3386,3.3386,3.3386,3.3386,3.3386,3.3386,3.3386,3.3386,3.3496,3.3691,3.3977,3.4055,3.3926,3.4199,3.418,1.8945,2.0781,2.2695,2.3672,2.5336,2.733,2.9668,3.0234,3.0371,3.0801,3.0282,2.9833,3.0195,2.9941,2.9852,3.0195,3.0605,3.0898,3.0898,3.0898,3.0898,3.0898,3.0898,3.0898,3.0898,3.0898,3.0898,3.0898,3.0449,3.0195,3.0195,2.8321,2.7771,2.8871,2.7447,2.7187,2.8301,2.8301,2.8301,2.8301,2.8301,2.8301,2.8301,2.8301,2.8301,2.8301,2.8301,2.8301,2.8301,2.8301,2.8301,2.8301,2.834,2.8848,2.9598,2.9637,3.0185,3.0898,3.0898,3.0898,3.0898,3.0898,3.0898,3.0898,3.0898,3.0898,3.0898,3.0898,3.0898,3.0898,3.0898,3.0898,3.0898,3.0898,3.0898,3.0898,3.0937,3.125,3.1494,3.1562,3.1934,3.2257,3.2257,3.2609,3.2851,3.2851,3.3184,3.3386,3.3386,3.3386,3.3386,3.3386,3.3386,3.3386,3.3386,3.3386,3.3386,3.3386,3.3386,3.3386,3.3386,3.3386,3.3386,3.3386,3.3425,3.3672,3.4114,3.4192,3.4375,3.4707,3.4746,3.4746,1.8144,2.0117,2.2482,2.4339,2.6881,2.9149,3.0,3.0488,3.0762,3.0859,3.0742,3.0654,3.0723,3.0664,3.0644,3.0723,3.082,3.0898,3.0898,3.0898,3.0898,3.0898,3.0898,3.0898,3.0898,3.0898,3.0898,3.0898,3.0449,3.0195,3.0195,2.9119,2.8647,2.8898,2.8269,2.8057,2.8301,2.8301,2.8301,2.8301,2.8301,2.8301,2.8301,2.8301,2.8301,2.8301,2.8301,2.8301,2.8301,2.8301,2.8301,2.832,2.8652,2.9101,2.9637,2.9941,3.041,3.0898,3.0898,3.0898,3.0898,3.0898,3.0898,3.0898,3.0898,3.0898,3.0898,3.0898,3.0898,3.0898,3.0898,3.0898,3.0898,3.0898,3.0898,3.0976,3.1309,3.1416,3.1621,3.1983,3.2394,3.2656,3.2656,3.3008,3.3281,3.3281,3.3328,3.3386,3.3386,3.3386,3.3386,3.3386,3.3386,3.3386,3.3386,3.3386,3.3386,3.3386,3.3386,3.3386,3.3386,3.3386,3.3386,3.3386,3.375,3.4016,3.4114,3.4798,3.4961,3.4707,3.5078,3.5039,1.8576,2.082,2.3457,2.6211,2.8269,2.9755,3.0391,3.0723,3.0898,3.0898,3.0898,3.0898,3.0898,3.0898,3.0898,3.0898,3.0898,3.0898,3.0898,3.0703,3.0566,3.0566,3.0566,3.0566,3.0566,3.0762,3.0801,3.0566,3.0156,2.9805,2.959,2.8965,2.8613,2.8613,2.8398,2.8301,2.8301,2.8301,2.8301,2.8301,2.8301,2.8301,2.8301,2.8301,2.8301,2.8301,2.8301,2.8301,2.8301,2.8301,2.8301,2.834,2.875,2.918,2.9657,3.0039,3.0488,3.0898,3.0898,3.0898,3.0898,3.0898,3.0898,3.0898,3.0898,3.0898,3.0898,3.0898,3.0898,3.0898,3.0898,3.0898,3.0898,3.0898,3.1055,3.125,3.1435,3.1836,3.2187,3.2452,3.2812,3.3105,3.3105,3.325,3.3386,3.3386,3.3386,3.3386,3.3386,3.3386,3.3386,3.3386,3.3386,3.3386,3.3386,3.3386,3.3386,3.3386,3.3386,3.3386,3.3386,3.3633,3.373,3.373,3.3997,3.431,3.4707,3.5176,3.5371,3.5332,3.5586,3.5566,1.8908,2.1641,2.4687,2.7988,2.9199,2.9813,3.0586,3.084,3.0898,3.0898,3.0898,3.0898,3.0898,3.0898,3.0898,3.0898,3.0898,3.0859,3.0781,3.043,3.0176,3.0098,3.0098,3.0098,3.0098,3.043,3.0508,3.0117,2.9707,2.9297,2.8918,2.8516,2.8301,2.8301,2.8301,2.8301,2.8301,2.8301,2.8301,2.8301,2.8301,2.8301,2.8301,2.8301,2.8301,2.8301,2.8301,2.8301,2.8301,2.8301,2.834,2.8437,2.8867,2.9297,2.9755,3.0156,3.0566,3.0898,3.0898,3.0898,3.0898,3.0898,3.0898,3.0898,3.0898,3.0898,3.0898,3.0898,3.0898,3.0898,3.0898,3.0898,3.0898,3.0898,3.1269,3.1621,3.1621,3.2246,3.2812,3.2891,3.3184,3.3386,3.3386,3.3386,3.3386,3.3386,3.3386,3.3386,3.3386,3.3386,3.3386,3.3386,3.3386,3.3386,3.3386,3.3386,3.3386,3.3386,3.3386,3.3386,3.3386,3.3848,3.4134,3.4212,3.429,3.4701,3.5391,3.5469,3.5684,3.5982,3.5982,3.5982,1.7344,2.0957,2.4957,2.7695,2.9012,2.9715,3.0176,3.0605,3.0898,3.0898,3.0898,3.0898,3.0898,3.0898,3.0898,3.0898,3.0898,3.0762,3.0351,3.0234,3.0059,2.9715,2.9676,2.9676,2.9676,2.9735,2.9755,2.9676,2.9258,2.8984,2.8898,2.8516,2.8301,2.8301,2.8301,2.8301,2.8301,2.8301,2.8301,2.8301,2.8301,2.8301,2.8301,2.8301,2.8301,2.8301,2.8301,2.8301,2.8301,2.8301,2.8516,2.8887,2.9316,2.9774,3.0176,3.0625,3.084,3.0898,3.0898,3.0898,3.0898,3.0898,3.0898,3.0898,3.0898,3.0898,3.0898,3.0898,3.0898,3.0898,3.0898,3.0898,3.0898,3.0898,3.1534,3.212,3.212,3.2461,3.291,3.323,3.3347,3.3386,3.3386,3.3386,3.3386,3.3386,3.3386,3.3386,3.3386,3.3386,3.3386,3.3386,3.3386,3.3386,3.3386,3.3386,3.3386,3.3386,3.3386,3.3386,3.3386,3.3848,3.4271,3.4609,3.5019,3.5273,3.5391,3.5762,3.5957,3.5982,3.5982,3.5982,1.8635,2.1758,2.4746,2.7578,2.8574,2.9051,2.9715,3.0195,3.0508,3.0508,3.0703,3.0898,3.0898,3.0898,3.0801,3.0547,3.0508,3.0351,2.9931,2.9629,2.9414,2.9219,2.9199,2.9199,2.9199,2.9461,2.95,2.9219,2.9023,2.8781,2.8574,2.8398,2.8301,2.8301,2.8093,2.7956,2.7956,2.7956,2.8093,2.8301,2.8301,2.8301,2.8301,2.8301,2.8301,2.8301,2.8301,2.8301,2.8301,2.8301,2.8535,2.8965,2.9422,2.9852,3.0254,3.0723,3.0898,3.0898,3.0898,3.0898,3.0898,3.0898,3.0898,3.0898,3.0898,3.0898,3.0898,3.0898,3.0898,3.0898,3.0898,3.0898,3.0898,3.0898,3.1573,3.2237,3.2394,3.2793,3.3203,3.3347,3.3386,3.3386,3.3386,3.3386,3.3386,3.3386,3.3386,3.3386,3.3386,3.3386,3.3386,3.3386,3.3386,3.3386,3.3386,3.3386,3.3386,3.3386,3.3386,3.3386,3.3386,3.3848,3.431,3.4687,3.5156,3.5508,3.5742,3.5903,3.5982,3.5982,3.5982,3.5982,1.9103,2.1426,2.334,2.625,2.748,2.8164,2.8933,2.9598,3.0059,3.0176,3.0469,3.0762,3.0859,3.0801,3.0605,3.0254,3.0098,2.9883,2.9481,2.9121,2.8859,2.8769,2.8769,2.8769,2.8769,2.9062,2.9101,2.8789,2.8769,2.8633,2.832,2.8301,2.8242,2.8144,2.7858,2.7643,2.7526,2.7643,2.7858,2.8151,2.8242,2.8301,2.8301,2.8301,2.8301,2.8301,2.8301,2.8301,2.8301,2.8301,2.8613,2.9121,2.9481,2.9931,3.041,3.0762,3.0898,3.0898,3.0898,3.0898,3.0898,3.0898,3.0898,3.0898,3.0898,3.0898,3.0898,3.0898,3.0898,3.0898,3.0898,3.0898,3.0918,3.1016,3.1651,3.2316,3.2726,3.3125,3.3386,3.3386,3.3386,3.3386,3.3386,3.3386,3.3386,3.3386,3.3386,3.3386,3.3386,3.3386,3.3386,3.3386,3.3386,3.3386,3.3386,3.3386,3.3386,3.3386,3.3386,3.3386,3.3386,3.3848,3.431,3.4687,3.5156,3.5605,3.5982,3.5982,3.5982,3.5982,3.5982,3.5982,1.6871,1.8553,2.0137,2.2732,2.523,2.7207,2.7682,2.8738,2.9755,3.0117,3.0215,3.0371,3.082,3.0527,3.0234,3.0195,2.9891,2.9481,2.9004,2.8926,2.8769,2.8379,2.832,2.832,2.832,2.834,2.8359,2.832,2.832,2.832,2.8301,2.8301,2.8132,2.7741,2.7702,2.7487,2.7051,2.7487,2.7702,2.7741,2.8132,2.8301,2.8301,2.8301,2.8301,2.8301,2.8301,2.8301,2.8301,2.8301,2.8816,2.9579,2.9598,3.0126,3.0859,3.0879,3.0898,3.0898,3.0898,3.0898,3.0898,3.0898,3.0898,3.0898,3.0898,3.0898,3.0898,3.0898,3.0898,3.0898,3.0898,3.0898,3.0996,3.1387,3.1836,3.2413,3.3203,3.3367,3.3386,3.3386,3.3386,3.3386,3.3386,3.3386,3.3386,3.3386,3.3386,3.3386,3.3386,3.3386,3.3386,3.3386,3.3386,3.3386,3.3386,3.3386,3.3386,3.3386,3.3386,3.3386,3.3386,3.3848,3.431,3.4687,3.5156,3.5605,3.5982,3.5982,3.5982,3.5982,3.5982,3.5982,0.0,1.7676,1.9337,2.1366,2.3242,2.4828,2.5806,2.7233,2.8582,2.9238,2.9805,3.0254,3.041,3.0312,3.0117,2.9872,2.9434,2.9004,2.8574,2.8516,2.8457,2.832,2.8301,2.8301,2.8301,2.8301,2.8301,2.8301,2.8301,2.8301,2.8301,2.8073,2.7839,2.7702,2.7154,2.6777,2.6621,2.7031,2.7383,2.7702,2.8112,2.8301,2.8301,2.8301,2.8301,2.8301,2.8301,2.8301,2.832,2.8574,2.9043,2.9618,2.9891,3.0351,3.0898,3.0898,3.0898,3.0898,3.0898,3.0898,3.0898,3.0898,3.0898,3.0898,3.0898,3.0898,3.0898,3.0898,3.0898,3.0898,3.0898,3.0898,3.1074,3.1777,3.2461,3.3066,3.3328,3.3386,3.3386,3.3386,3.3386,3.3386,3.3386,3.3386,3.3289,3.3066,3.3211,3.332,3.3047,3.323,3.3386,3.3386,3.3386,3.3386,3.3386,3.3386,3.3386,3.3386,3.3386,3.3386,3.3386,3.3574,3.3848,3.4329,3.4726,3.5312,3.5982,3.5982,3.5982,3.5982,3.5982,3.5982,1.5073,0.0,0.0,1.9845,2.1113,2.2443,2.4593,2.5981,2.7194,2.8437,2.916,2.9609,2.9746,2.9531,2.9324,2.9188,2.8769,2.8398,2.8151,2.8112,2.8151,2.8281,2.8164,2.8112,2.8112,2.7949,2.7871,2.7871,2.7871,2.7871,2.7871,2.7598,2.7409,2.7272,2.6543,2.6172,2.6172,2.6713,2.7168,2.7487,2.8027,2.8301,2.8301,2.8301,2.8301,2.8301,2.8301,2.8301,2.832,2.8723,2.918,2.9637,3.0039,3.0488,3.0898,3.0898,3.0898,3.0898,3.0898,3.0898,3.0898,3.0898,3.0898,3.0898,3.0898,3.0898,3.0898,3.0898,3.0898,3.0898,3.0898,3.1113,3.1494,3.2061,3.2812,3.3386,3.3386,3.3386,3.3386,3.3386,3.3386,3.3386,3.3386,3.3386,3.332,3.3047,3.3242,3.3289,3.3047,3.3211,3.3386,3.3386,3.3386,3.3386,3.3386,3.3386,3.3386,3.3386,3.3386,3.3386,3.3386,3.3386,3.3691,3.431,3.4551,3.5137,3.5982,3.5982,3.5982,3.5982,3.5982,3.5982,0.0,0.0,0.0,0.0,1.8849,2.0214,2.4027,2.4926,2.5571,2.7754,2.8203,2.834,2.8781,2.8223,2.7819,2.8164,2.7936,2.7682,2.7682,2.7682,2.7819,2.8203,2.7917,2.7682,2.7682,2.7266,2.6986,2.6986,2.6986,2.6986,2.6986,2.6986,2.6797,2.6387,2.5932,2.5693,2.5693,2.6557,2.6986,2.7006,2.7871,2.8281,2.8301,2.8301,2.8301,2.8301,2.8301,2.8301,2.832,2.8769,2.918,2.9637,3.0059,3.0488,3.0898,3.0898,3.0898,3.0898,3.0898,3.0898,3.0898,3.0898,3.0898,3.0898,3.0898,3.0898,3.0898,3.0898,3.0898,3.0898,3.0898,3.1573,3.2198,3.2218,3.2812,3.3386,3.3386,3.3386,3.3386,3.3386,3.3386,3.3386,3.3386,3.3386,3.3386,3.3367,3.3367,3.3367,3.3367,3.3367,3.3386,3.3386,3.3386,3.3386,3.3386,3.3386,3.3386,3.3386,3.3386,3.3386,3.3386,3.3406,3.3796,3.4648,3.4707,3.5137,3.5942,3.5982,3.5982,3.5982,3.5982,3.5982,1.3581,0.0,0.0,0.0,0.0,0.0,1.9883,2.0898,2.2305,2.5718,2.6191,2.649,2.8164,2.8054,2.7526,2.7018,2.707,2.7187,2.7187,2.7187,2.7246,2.7363,2.7266,2.7187,2.7187,2.709,2.6986,2.6986,2.6986,2.6986,2.6986,2.6719,2.6367,2.5913,2.5776,2.5693,2.5693,2.6289,2.6719,2.7031,2.7604,2.8015,2.8301,2.8301,2.8301,2.8301,2.8301,2.8301,2.8359,2.9109,2.9481,2.9676,3.0439,3.0781,3.0898,3.0898,3.0898,3.0898,3.0898,3.0898,3.0898,3.0898,3.0898,3.0898,3.0898,3.0898,3.0898,3.0898,3.0898,3.0957,3.1269,3.1758,3.2276,3.2559,3.3027,3.3386,3.3386,3.3386,3.3386,3.3386,3.3386,3.3386,3.3386,3.3386,3.3289,3.3008,3.2969,3.2969,3.2969,3.2969,3.3086,3.3347,3.3386,3.3386,3.3386,3.3386,3.3386,3.3386,3.3386,3.3386,3.3386,3.373,3.3848,3.3769,3.4707,3.5156,3.5059,3.5669,3.5982,3.5982,3.5982,3.5982,0.0,0.0,0.0,0.0,0.0,0.0,1.8809,1.9551,2.0703,2.4391,2.498,2.5293,2.6934,2.69,2.6509,2.6172,2.6303,2.6518,2.6719,2.6758,2.6816,2.6992,2.6855,2.6758,2.6758,2.6557,2.6459,2.6459,2.6459,2.6459,2.6459,2.625,2.5971,2.5718,2.5693,2.5693,2.5693,2.6172,2.6602,2.7031,2.7487,2.7917,2.8301,2.8301,2.8301,2.8301,2.8301,2.8301,2.834,2.9023,2.9422,2.9676,3.0547,3.0898,3.0898,3.0898,3.0898,3.0898,3.0898,3.0898,3.0898,3.0898,3.0898,3.0898,3.0898,3.0898,3.0898,3.0898,3.0898,3.0996,3.1406,3.1836,3.2316,3.2695,3.3105,3.3386,3.3386,3.3386,3.3386,3.3386,3.3386,3.3386,3.3386,3.3386,3.3308,3.3086,3.3066,3.3066,3.3066,3.3066,3.3144,3.3367,3.3386,3.3386,3.3386,3.3386,3.3386,3.3386,3.3594,3.3613,3.3406,3.4004,3.4219,3.3965,3.4902,3.5351,3.5254,3.5728,3.5982,3.5982,3.5982,3.5982,0.0,0.0,0.0,0.0,0.0,0.0,1.9041,1.9393,1.9844,2.3084,2.3669,2.3942,2.5015,2.4961,2.4824,2.5152,2.5382,2.5737,2.625,2.6309,2.6445,2.6811,2.6543,2.6309,2.6309,2.5932,2.5693,2.5693,2.5693,2.5693,2.5693,2.5693,2.5693,2.5693,2.5693,2.5693,2.5693,2.6113,2.6543,2.7031,2.7428,2.7858,2.8301,2.8301,2.8301,2.8301,2.8301,2.8301,2.832,2.8723,2.918,2.9676,3.0488,3.084,3.0898,3.0898,3.0898,3.0898,3.0898,3.0898,3.0898,3.0898,3.0898,3.0898,3.0898,3.0898,3.0898,3.0898,3.0898,3.0996,3.1465,3.1875,3.2316,3.2754,3.3144,3.3386,3.3386,3.3386,3.3386,3.3386,3.3386,3.3386,3.3386,3.3386,3.3386,3.3386,3.3347,3.3347,3.3386,3.3347,3.3347,3.3386,3.3386,3.3386,3.3386,3.3386,3.3386,3.3386,3.3789,3.3848,3.3484,3.4277,3.4707,3.4707,3.5156,3.5605,3.5982,3.5982,3.5982,3.5982,3.5982,3.5982,0.0,0.0,0.0,0.0,0.0,0.0,1.5571,1.6055,1.7301,1.9318,1.9238,1.9453,2.1679,2.2324,2.2422,2.2127,2.3532,2.4937,2.5737,2.5835,2.5874,2.5952,2.5893,2.5835,2.5835,2.5757,2.5693,2.5693,2.5693,2.5693,2.5693,2.5693,2.5693,2.5693,2.5693,2.5693,2.5693,2.5796,2.6225,2.6986,2.7109,2.7539,2.8301,2.8301,2.8301,2.8301,2.8301,2.8301,2.832,2.8723,2.918,2.9657,3.0137,3.0566,3.0898,3.0898,3.0898,3.0898,3.0898,3.0898,3.0898,3.0898,3.0898,3.0898,3.0898,3.0898,3.0898,3.0898,3.0898,3.1074,3.1866,3.214,3.2394,3.3125,3.3328,3.3386,3.3386,3.3386,3.3386,3.3386,3.3386,3.3386,3.3386,3.3386,3.3386,3.3386,3.3125,3.3047,3.3347,3.3125,3.3047,3.3347,3.3386,3.3386,3.3386,3.3386,3.3386,3.3386,3.3496,3.3672,3.3945,3.4434,3.4707,3.4707,3.5156,3.5605,3.5982,3.5982,3.5982,3.5982,3.5982,3.5982,0.0,0.0,0.0,1.7113,0.0,0.0,0.0,1.5883,1.6422,1.8771,1.8262,1.8123,2.0469,2.0898,2.0977,2.1171,2.2654,2.3867,2.4079,2.484,2.541,2.541,2.541,2.541,2.541,2.5581,2.5693,2.5693,2.5693,2.5693,2.5693,2.5693,2.5693,2.5693,2.5693,2.5693,2.5693,2.5693,2.6147,2.6986,2.6986,2.7461,2.8301,2.8301,2.8301,2.8301,2.8301,2.8301,2.832,2.8516,2.8867,2.9316,2.9941,3.0332,3.0566,3.0801,3.0898,3.0898,3.0898,3.0898,3.0898,3.0898,3.0898,3.0898,3.0898,3.0898,3.0898,3.0898,3.0898,3.1094,3.1983,3.2198,3.2413,3.3223,3.3386,3.3386,3.3386,3.3386,3.3386,3.3386,3.3386,3.3386,3.3386,3.3386,3.3386,3.3386,3.3242,3.3184,3.3367,3.3211,3.3184,3.3367,3.3386,3.3386,3.3386,3.3386,3.3386,3.3386,3.3828,3.4062,3.4114,3.4902,3.5351,3.5351,3.5586,3.5801,3.5982,3.5982,3.5982,3.5982,3.5982,3.5982,0.0,0.0,0.0,0.0,0.0,1.7024,0.0,0.0,0.0,1.8477,1.7832,1.7458,1.9256,1.9355,1.9375,1.9982,2.1406,2.2248,2.1719,2.3125,2.432,2.4574,2.4887,2.5024,2.4867,2.5,2.5269,2.5654,2.5406,2.5367,2.5674,2.5693,2.5693,2.5693,2.5693,2.5693,2.5693,2.5693,2.6147,2.6986,2.6986,2.7461,2.8301,2.8301,2.8301,2.8301,2.8301,2.8301,2.8301,2.8301,2.8496,2.8887,2.9746,3.0117,3.0254,3.0723,3.0898,3.0898,3.0898,3.0898,3.0898,3.0898,3.0898,3.0898,3.0898,3.0898,3.0898,3.0898,3.0898,3.1094,3.1983,3.2198,3.2413,3.3223,3.3386,3.3386,3.3386,3.3386,3.3386,3.3386,3.3386,3.3386,3.3386,3.3386,3.3386,3.3386,3.3386,3.3386,3.3386,3.3386,3.3386,3.3386,3.3386,3.3386,3.3386,3.3386,3.3386,3.3386,3.4141,3.4453,3.4231,3.5371,3.5982,3.5982,3.5982,3.5982,3.5982,3.5982,3.5982,3.5982,3.5982,3.5982,0.0,0.0,0.0,0.0,1.91,0.0,0.0,0.0,1.6332,1.5547,0.0,1.5288,1.5879,0.0,0.0,1.6098,1.8125,1.9453,1.8633,2.0019,2.1524,2.2656,2.4163,2.4789,2.4004,2.3301,2.3649,2.5562,2.4316,2.4121,2.5615,2.5693,2.5693,2.5693,2.5693,2.5693,2.5693,2.5693,2.6147,2.6986,2.6986,2.7461,2.8301,2.8301,2.8301,2.8301,2.8301,2.8301,2.8301,2.8301,2.832,2.8437,2.9344,2.9891,3.0254,3.0723,3.0898,3.0898,3.0898,3.0898,3.0898,3.0898,3.0898,3.0898,3.0898,3.0898,3.0898,3.0898,3.0898,3.1094,3.1983,3.2198,3.2413,3.3223,3.3386,3.3386,3.3386,3.3386,3.3386,3.3386,3.3386,3.3386,3.3386,3.3386,3.3386,3.3386,3.3386,3.3386,3.3386,3.3386,3.3386,3.3386,3.3386,3.3386,3.3386,3.3386,3.3386,3.3386,3.3867,3.4329,3.4609,3.5527,3.5982,3.5982,3.5982,3.5982,3.5982,3.5982,3.5982,3.5982,3.5982,3.5982,0.0,0.0,0.0,0.0,0.0,0.0,1.6602,0.0,1.5664,0.0,0.0,0.0,0.0,0.0,0.0,0.0,1.6758,1.7581,1.6989,1.8162,1.9667,2.1211,2.2032,2.2736,2.3318,2.2849,2.3181,2.482,2.3613,2.3535,2.5254,2.5352,2.5469,2.5674,2.5693,2.5693,2.5693,2.5693,2.6147,2.6986,2.6986,2.7461,2.8301,2.8301,2.8301,2.8301,2.8301,2.8301,2.8301,2.8301,2.8301,2.8359,2.8965,2.9453,2.9911,3.0332,3.0664,3.0898,3.0898,3.0898,3.0898,3.0898,3.0898,3.0898,3.0898,3.0898,3.0898,3.0898,3.0898,3.1094,3.1983,3.2198,3.2413,3.3223,3.3386,3.3386,3.3386,3.3386,3.3386,3.3386,3.3386,3.3386,3.3386,3.3386,3.3386,3.3386,3.3386,3.3386,3.3386,3.3386,3.3386,3.3386,3.3386,3.3386,3.3386,3.3386,3.3386,3.3386,3.4062,3.4648,3.5078,3.5684,3.5982,3.5982,3.5982,3.5982,3.5982,3.5982,3.5982,3.5982,3.5982,3.5982,2.1971,0.0,0.0,0.0,0.0,0.0,0.0,0.0,0.0,0.0,0.0,0.0,0.0,0.0,0.0,0.0,0.0,1.6157,1.562,1.6461,1.7773,1.9529,2.0117,2.1035,2.2615,2.1854,2.2051,2.3926,2.2635,2.2754,2.4965,2.5082,2.5273,2.5698,2.5693,2.5693,2.5693,2.5835,2.6264,2.6986,2.7129,2.7578,2.8301,2.8301,2.8301,2.8301,2.8301,2.8301,2.8301,2.8301,2.8301,2.832,2.8633,2.9082,2.9657,3.0039,3.0488,3.0898,3.0898,3.0898,3.0898,3.0898,3.0898,3.0898,3.0898,3.0898,3.0898,3.0898,3.0976,3.123,3.2003,3.2276,3.255,3.3211,3.3386,3.3386,3.3386,3.3386,3.3386,3.3386,3.3386,3.3386,3.3386,3.3386,3.3386,3.3386,3.3386,3.3386,3.3386,3.3386,3.3386,3.3386,3.3386,3.3386,3.3386,3.3386,3.3484,3.3718,3.3964,3.4327,3.4767,3.5073,3.5226,3.5226,3.5743,3.5982,3.5982,3.5982,3.5982,3.5982,3.5982,3.5982,0.0,0.0,0.0,1.9961,0.0,0.0,0.0,0.0,1.7086,0.0,0.0,0.0,0.0,0.0,0.0,0.0,0.0,0.0,0.0,1.459,1.5542,1.7301,1.8926,2.0449,2.1817,1.9648,1.9551,2.2971,2.1211,2.1484,2.4906,2.5082,2.5273,2.5698,2.5693,2.5693,2.5693,2.6152,2.6582,2.7031,2.7467,2.7897,2.8301,2.8301,2.8301,2.8301,2.8301,2.8301,2.8301,2.8301,2.8301,2.8301,2.8301,2.8855,2.9657,3.0039,3.0488,3.0898,3.0898,3.0898,3.0898,3.0898,3.0898,3.0898,3.0898,3.0898,3.0898,3.0898,3.1191,3.1601,3.2081,3.2511,3.2891,3.3289,3.3386,3.3386,3.3386,3.3386,3.3386,3.3386,3.3386,3.3386,3.3386,3.3386,3.3386,3.3386,3.3386,3.3386,3.3386,3.3386,3.3386,3.3386,3.3386,3.3386,3.3386,3.3386,3.3769,3.4609,3.3353,3.2771,3.3238,3.3274,3.3274,3.3274,3.5055,3.5982,3.5982,3.5982,3.5982,3.5982,3.5982,3.5982,0.0,0.0,2.389,2.1602,0.0,0.0,0.0,0.0,0.0,0.0,0.0,0.0,0.0,0.0,0.0,0.0,0.0,0.0,0.0,0.0,1.4674,1.5581,1.7441,1.873,1.8905,1.8596,1.924,2.1309,2.0488,2.1289,2.4473,2.4629,2.4957,2.5698,2.5693,2.5693,2.5693,2.6172,2.6602,2.7031,2.7487,2.7917,2.8301,2.8301,2.8301,2.8301,2.8301,2.8301,2.8301,2.8301,2.8301,2.8301,2.8301,2.8836,2.9618,2.9755,3.0282,3.0898,3.0898,3.0898,3.0898,3.0898,3.0898,3.0898,3.0898,3.0898,3.0898,3.0898,3.1191,3.1621,3.2081,3.2511,3.291,3.3289,3.3386,3.3386,3.3386,3.3386,3.3386,3.3386,3.3386,3.3386,3.3386,3.3386,3.3386,3.3386,3.3386,3.3386,3.3386,3.3386,3.3386,3.3386,3.3386,3.3386,3.3386,3.3691,3.4101,3.4668,3.4532,3.4503,3.4636,3.4903,3.5055,3.5055,3.5655,3.5982,3.5982,3.5982,3.5982,3.5982,3.5982,3.5982,2.4609,2.4746,2.4418,2.2559,2.17,0.0,1.8572,0.0,1.8789,0.0,0.0,0.0,0.0,0.0,0.0,0.0,0.0,0.0,0.0,1.3756,0.0,1.4512,1.6191,0.0,1.7578,1.7522,1.8322,2.0449,1.9883,2.0762,2.3786,2.4235,2.4723,2.5445,2.564,2.5796,2.5952,2.6387,2.6816,2.7246,2.7702,2.8054,2.8301,2.8301,2.8301,2.8301,2.8301,2.8301,2.8301,2.8301,2.8301,2.8301,2.8301,2.8836,2.9598,2.9598,3.0165,3.0898,3.0898,3.0898,3.0898,3.0898,3.0898,3.0898,3.0898,3.0898,3.0918,3.1074,3.1426,3.1855,3.2316,3.2695,3.3086,3.3328,3.3386,3.3386,3.3386,3.3386,3.3386,3.3386,3.3386,3.3386,3.3386,3.3386,3.3386,3.3386,3.3386,3.3386,3.3386,3.3386,3.3386,3.3386,3.3386,3.3386,3.3386,3.3965,3.4414,3.4687,3.4653,3.4621,3.4621,3.4888,3.4986,3.4986,3.5655,3.5982,3.5982,3.5982,3.5982,3.5982,3.5982,3.5982]},{"header":{"parameterUnit":"m.s-1","parameterCategory":1,"la1":30.6,"la2":29.2853,"lo1":-89.7004,"lo2":-87.6739,"dy":0.0162,"dx":0.0183,"nx":112,"ny":82,"refTime":"2025-12-10T12:00:00:Z","depth":0,"parameterNumber":3,"parameterNumberName":"V-component_of_WINDS"},"data":[0.0,0.0,0.0,0.0,0.0,0.0,0.0,0.0,0.0,0.0,0.0,0.0,0.0,0.0,0.0,0.0,0.0,0.0,0.0,0.0,0.0,0.0,0.0,0.0,0.0,0.0,0.0,0.0,0.0,0.0,0.0,0.0,0.0,0.0,0.0,0.0,0.0,0.0,0.0,0.0,0.0,0.0,0.0,0.0,0.0,0.0,0.0,0.0,0.0,0.0,0.0,0.0,0.0,0.0,0.0,0.0,0.0,0.0,0.0,0.0,0.0,0.0,0.0,0.0,0.0,0.0,0.0,0.0,0.0,0.0,0.0,0.0,0.0,0.0,0.0,0.0,0.0,0.0,0.0,0.0,0.0,0.0,0.0,0.0,0.0,0.0,0.0,0.0,0.0,0.0,1.9839,2.2823,2.5818,2.7063,2.5693,2.4874,2.309,1.9917,0.0,0.0,0.0,0.0,0.0,0.0,0.0,0.0,0.0,0.0,0.0,0.0,0.0,0.0,0.0,0.0,0.0,0.0,0.0,0.0,0.0,0.0,0.0,0.0,0.0,0.0,0.0,0.0,0.0,0.0,0.0,0.0,0.0,0.0,0.0,0.0,0.0,0.0,0.0,0.0,0.0,0.0,0.0,0.0,0.0,0.0,0.0,0.0,0.0,0.0,0.0,0.0,0.0,0.0,0.0,0.0,0.0,0.0,0.0,0.0,0.0,0.0,0.0,0.0,0.0,0.0,0.0,0.0,0.0,0.0,0.0,0.0,0.0,0.0,0.0,0.0,0.0,0.0,0.0,0.0,0.0,0.0,0.0,0.0,0.0,0.0,0.0,0.0,0.0,0.0,0.0,0.0,0.0,0.0,0.0,0.0,0.0,0.0,0.0,0.0,0.0,0.0,0.0,0.0,2.0348,2.4717,2.6614,2.7063,2.5693,2.4466,2.2592,1.9878,0.0,0.0,0.0,0.0,0.0,0.0,0.0,0.0,0.0,0.0,0.0,0.0,0.0,0.0,0.0,0.0,0.0,0.0,0.0,0.0,0.0,0.0,0.0,0.0,0.0,0.0,0.0,0.0,0.0,0.0,0.0,0.0,0.0,0.0,0.0,0.0,0.0,0.0,0.0,0.0,0.0,0.0,0.0,0.0,0.0,0.0,0.0,0.0,0.0,0.0,0.0,0.0,0.0,0.0,0.0,0.0,0.0,0.0,0.0,0.0,0.0,0.0,0.0,0.0,0.0,0.0,0.0,0.0,0.0,0.0,0.0,0.0,0.0,0.0,0.0,0.0,0.0,0.0,0.0,0.0,0.0,0.0,0.0,0.0,0.0,0.0,0.0,0.0,0.0,0.0,0.0,0.0,0.0,0.0,0.0,0.0,0.0,0.0,0.0,0.0,0.0,0.0,0.0,2.0088,2.2213,2.5764,2.7016,2.7063,2.5693,2.4706,2.2862,1.9887,1.781,0.0,0.0,0.0,0.0,0.0,0.0,0.0,0.0,0.0,0.0,0.0,0.0,0.0,0.0,0.0,0.0,0.0,0.0,0.0,0.0,0.0,0.0,0.0,0.0,0.0,0.0,0.0,0.0,0.0,0.0,0.0,0.0,0.0,0.0,0.0,0.0,0.0,0.0,0.0,0.0,0.0,0.0,0.0,0.0,0.0,0.0,0.0,0.0,0.0,0.0,0.0,0.0,0.0,0.0,0.0,0.0,0.0,0.0,0.0,0.0,0.0,0.0,0.0,0.0,0.0,0.0,0.0,0.0,0.0,0.0,0.0,0.0,0.0,0.0,0.0,0.0,0.0,0.0,0.0,0.0,0.0,0.0,0.0,0.0,0.0,0.0,0.0,0.0,0.0,0.0,0.0,0.0,0.0,0.0,0.0,0.0,0.0,0.0,0.0,0.0,0.0,0.0,2.2453,2.404,2.6345,2.7195,2.7063,2.5693,2.4706,2.2881,1.9887,1.7519,0.0,0.0,0.0,0.0,0.0,0.0,0.0,0.0,0.0,0.0,0.0,0.0,0.0,0.0,0.0,0.0,0.0,0.0,0.0,0.0,0.0,0.0,0.0,0.0,0.0,0.0,0.0,0.0,0.0,0.0,0.0,0.0,0.0,0.0,0.0,0.0,0.0,0.0,0.0,0.0,0.0,0.0,0.0,0.0,0.0,0.0,0.0,0.0,0.0,0.0,0.0,0.0,0.0,0.0,0.0,0.0,0.0,0.0,0.0,0.0,0.0,0.0,0.0,0.0,0.0,0.0,0.0,0.0,0.0,0.0,0.0,0.0,0.0,0.0,0.0,0.0,0.0,0.0,0.0,0.0,0.0,0.0,0.0,0.0,0.0,0.0,0.0,0.0,0.0,0.0,0.0,0.0,0.0,0.0,0.0,0.0,0.0,0.0,0.0,0.0,0.0,0.0,2.293,2.5005,2.6465,2.7195,2.7063,2.5693,2.389,2.1954,1.9828,1.6705,0.0,0.0,0.0,0.0,0.0,0.0,0.0,0.0,0.0,0.0,0.0,0.0,0.0,0.0,0.0,0.0,0.0,0.0,0.0,0.0,0.0,0.0,0.0,0.0,0.0,0.0,0.0,0.0,0.0,0.0,0.0,0.0,0.0,0.0,0.0,0.0,0.0,0.0,0.0,0.0,0.0,0.0,0.0,0.0,0.0,0.0,0.0,0.0,0.0,0.0,0.0,0.0,0.0,0.0,0.0,0.0,0.0,0.0,0.0,0.0,0.0,0.0,0.0,0.0,0.0,0.0,0.0,0.0,0.0,0.0,0.0,0.0,0.0,0.0,0.0,0.0,0.0,0.0,0.0,0.0,0.0,0.0,0.0,0.0,0.0,0.0,0.0,0.0,0.0,0.0,0.0,0.0,0.0,0.0,0.0,0.0,0.0,0.0,0.0,0.0,0.0,0.0,2.2881,2.4807,0.0,2.7435,2.7063,2.5693,2.4556,2.2682,1.9887,0.0,0.0,0.0,0.0,0.0,0.0,0.0,0.0,0.0,0.0,0.0,0.0,0.0,0.0,0.0,0.0,0.0,0.0,0.0,0.0,0.0,0.0,0.0,0.0,0.0,0.0,0.0,0.0,0.0,0.0,0.0,0.0,0.0,0.0,0.0,0.0,0.0,0.0,0.0,0.0,0.0,0.0,0.0,0.0,0.0,0.0,0.0,0.0,0.0,0.0,0.0,0.0,0.0,0.0,0.0,0.0,0.0,0.0,0.0,0.0,0.0,0.0,0.0,0.0,0.0,0.0,0.0,0.0,0.0,0.0,0.0,0.0,0.0,0.0,0.0,0.0,0.0,0.0,0.0,0.0,0.0,0.0,0.0,0.0,0.0,0.0,0.0,0.0,0.0,0.0,0.0,0.0,0.0,0.0,0.0,0.0,0.0,0.0,0.0,0.0,0.0,0.0,2.1246,2.3191,2.5028,0.0,2.7285,2.6734,2.5393,2.4317,2.2462,1.9549,0.0,0.0,0.0,0.0,0.0,0.0,0.0,0.0,0.0,0.0,0.0,0.0,0.0,0.0,0.0,0.0,0.0,0.0,0.0,0.0,0.0,0.0,0.0,0.0,0.0,0.0,0.0,0.0,0.0,0.0,0.0,0.0,0.0,0.0,0.0,0.0,0.0,0.0,0.0,0.0,0.0,0.0,0.0,0.0,0.0,0.0,0.0,0.0,0.0,0.0,0.0,0.0,0.0,0.0,0.0,0.0,0.0,0.0,0.0,0.0,0.0,0.0,0.0,0.0,0.0,0.0,0.0,0.0,0.0,0.0,0.0,0.0,0.0,0.0,0.0,0.0,0.0,0.0,0.0,0.0,0.0,0.0,0.0,0.0,0.0,0.0,0.0,0.0,0.0,0.0,0.0,0.0,0.0,0.0,0.0,0.0,0.0,0.0,0.0,0.0,0.0,0.0,2.1365,2.3999,2.5854,2.6524,2.6584,2.6063,2.4724,2.2821,2.0857,0.0,0.0,0.0,0.0,0.0,0.0,0.0,0.0,0.0,0.0,0.0,0.0,0.0,0.0,0.0,0.0,0.0,0.0,0.0,0.0,0.0,0.0,0.0,0.0,0.0,0.0,0.0,0.0,0.0,0.0,0.0,0.0,0.0,0.0,0.0,0.0,0.0,0.0,0.0,0.0,0.0,0.0,0.0,0.0,0.0,0.0,0.0,0.0,0.0,0.0,0.0,0.0,0.0,0.0,0.0,0.0,0.0,0.0,0.0,0.0,0.0,0.0,0.0,0.0,0.0,0.0,0.0,0.0,0.0,0.0,0.0,0.0,0.0,0.0,0.0,0.0,0.0,0.0,0.0,0.0,0.0,0.0,0.0,0.0,0.0,0.0,0.0,0.0,0.0,0.0,0.0,0.0,0.0,0.0,0.0,0.0,0.0,0.0,0.0,0.0,0.0,0.0,0.0,2.1365,2.3569,2.5322,2.6494,2.6183,2.5543,2.4653,2.3251,2.1565,1.9519,0.0,0.0,0.0,0.0,0.0,0.0,0.0,0.0,0.0,0.0,0.0,0.0,0.0,0.0,0.0,0.0,0.0,0.0,0.0,0.0,0.0,0.0,0.0,0.0,0.0,0.0,0.0,0.0,0.0,0.0,0.0,0.0,0.0,0.0,0.0,0.0,0.0,0.0,0.0,0.0,0.0,0.0,0.0,0.0,0.0,0.0,0.0,0.0,0.0,0.0,0.0,0.0,0.0,0.0,0.0,0.0,0.0,0.0,0.0,0.0,0.0,0.0,0.0,0.0,0.0,0.0,0.0,0.0,0.0,0.0,0.0,0.0,0.0,0.0,0.0,0.0,0.0,0.0,0.0,0.0,0.0,0.0,0.0,0.0,0.0,0.0,0.0,0.0,0.0,0.0,0.0,0.0,0.0,0.0,0.0,0.0,0.0,0.0,0.0,0.0,0.0,0.0,2.1395,2.3581,2.5164,2.5758,2.5453,2.5006,2.4546,2.3557,2.2085,1.9946,0.0,0.0,0.0,0.0,0.0,0.0,0.0,0.0,0.0,0.0,0.0,0.0,0.0,0.0,0.0,0.0,0.0,0.0,0.0,0.0,0.0,0.0,0.0,0.0,0.0,0.0,0.0,0.0,0.0,0.0,0.0,0.0,0.0,0.0,0.0,0.0,0.0,0.0,0.0,0.0,0.0,0.0,0.0,0.0,0.0,0.0,0.0,0.0,0.0,0.0,0.0,0.0,0.0,0.0,0.0,0.0,0.0,0.0,0.0,0.0,0.0,0.0,0.0,0.0,0.0,0.0,0.0,0.0,0.0,0.0,0.0,0.0,0.0,0.0,0.0,0.0,0.0,0.0,0.0,0.0,0.0,0.0,0.0,0.0,0.0,0.0,0.0,0.0,0.0,0.0,0.0,0.0,0.0,0.0,0.0,0.0,0.0,0.0,0.0,0.0,0.0,0.0,2.1404,2.3804,2.5124,2.4661,2.4635,2.4576,2.4349,2.376,2.2467,2.021,0.0,0.0,0.0,0.0,0.0,0.0,0.0,0.0,0.0,0.0,0.0,0.0,0.0,0.0,0.0,0.0,0.0,0.0,0.0,0.0,0.0,0.0,0.0,0.0,0.0,0.0,0.0,0.0,0.0,0.0,0.0,0.0,0.0,0.0,0.0,0.0,0.0,0.0,0.0,0.0,0.0,0.0,0.0,0.0,0.0,0.0,0.0,0.0,0.0,0.0,0.0,0.0,0.0,0.0,0.0,0.0,0.0,0.0,0.0,0.0,2.1448,1.9818,0.0,0.0,0.0,0.0,0.0,0.0,0.0,0.0,0.0,0.0,0.0,0.0,0.0,0.0,0.0,0.0,0.0,0.0,0.0,0.0,0.0,0.0,0.0,0.0,0.0,0.0,0.0,0.0,0.0,0.0,0.0,0.0,0.0,0.0,0.0,0.0,0.0,0.0,0.0,0.0,2.1385,2.3427,2.4624,2.4601,2.4874,2.4708,2.3826,2.3539,2.258,2.0661,1.8633,0.0,0.0,0.0,0.0,0.0,0.0,0.0,0.0,0.0,0.0,0.0,0.0,0.0,0.0,0.0,0.0,0.0,0.0,0.0,0.0,0.0,0.0,0.0,0.0,0.0,0.0,0.0,0.0,0.0,0.0,0.0,0.0,0.0,0.0,0.0,0.0,0.0,0.0,0.0,0.0,0.0,0.0,0.0,0.0,0.0,0.0,0.0,0.0,0.0,0.0,0.0,0.0,0.0,0.0,0.0,0.0,0.0,0.0,0.0,2.5736,2.4214,0.0,0.0,0.0,0.0,0.0,0.0,0.0,0.0,0.0,0.0,0.0,0.0,0.0,0.0,0.0,0.0,0.0,0.0,0.0,0.0,0.0,0.0,0.0,0.0,0.0,0.0,0.0,0.0,0.0,0.0,0.0,0.0,0.0,0.0,0.0,0.0,0.0,0.0,0.0,0.0,2.1464,2.3803,2.5082,2.4545,2.4922,2.4979,2.442,2.4288,2.3658,2.2227,2.0653,0.0,0.0,0.0,0.0,0.0,0.0,0.0,0.0,0.0,0.0,0.0,0.0,0.0,0.0,0.0,0.0,0.0,0.0,0.0,0.0,0.0,0.0,0.0,0.0,0.0,0.0,0.0,0.0,0.0,0.0,0.0,0.0,0.0,0.0,0.0,0.0,0.0,0.0,0.0,0.0,0.0,0.0,0.0,0.0,0.0,0.0,0.0,0.0,0.0,0.0,0.0,0.0,0.0,3.1258,3.2094,3.2554,3.2554,3.2892,3.3309,3.0707,2.949,2.9179,2.6573,0.0,0.0,0.0,0.0,0.0,0.0,0.0,0.0,0.0,0.0,0.0,0.0,0.0,0.0,0.0,0.0,0.0,0.0,0.0,0.0,0.0,0.0,0.0,0.0,2.3548,2.2727,1.9031,0.0,0.0,0.0,0.0,0.0,0.0,0.0,0.0,0.0,0.0,0.0,2.1881,2.4477,2.5712,2.439,2.4831,2.5163,2.5076,2.5154,2.4816,2.3849,2.2947,2.1342,0.0,0.0,0.0,0.0,0.0,0.0,0.0,0.0,0.0,0.0,0.0,0.0,0.0,0.0,0.0,0.0,0.0,0.0,0.0,0.0,0.0,0.0,0.0,0.0,0.0,0.0,0.0,0.0,0.0,0.0,0.0,0.0,2.2074,2.2216,0.0,0.0,0.0,0.0,0.0,0.0,0.0,0.0,0.0,0.0,0.0,0.0,0.0,2.9634,3.0446,3.3176,3.4292,3.3806,3.7166,3.8485,3.7956,3.7956,3.8024,3.807,3.7009,0.0,3.0828,2.9803,0.0,0.0,0.0,0.0,0.0,0.0,0.0,0.0,0.0,0.0,0.0,0.0,0.0,0.0,0.0,0.0,0.0,0.0,0.0,0.0,0.0,0.0,2.7307,2.632,2.6984,2.7215,0.0,2.1874,1.928,1.8373,1.7392,0.0,0.0,0.0,0.0,0.0,0.0,0.0,2.3039,2.4997,2.563,2.3876,2.4612,2.5018,2.4552,2.494,2.4887,2.4167,2.3746,2.2949,2.1706,2.0115,0.0,0.0,0.0,0.0,0.0,0.0,0.0,0.0,0.0,0.0,0.0,0.0,0.0,0.0,0.0,0.0,0.0,0.0,0.0,0.0,0.0,0.0,0.0,0.0,0.0,0.0,0.0,0.0,0.0,2.2182,2.3696,2.3696,2.4202,2.4143,0.0,0.0,0.0,0.0,0.0,0.0,0.0,0.0,0.0,3.2168,3.3293,3.4404,3.5566,3.7268,3.8181,3.8294,3.994,4.0764,4.0832,4.0832,4.0832,4.0844,4.0493,3.878,3.5972,3.3119,3.092,2.9204,0.0,0.0,0.0,0.0,2.7165,2.7334,2.8468,2.8671,2.8256,2.7317,0.0,0.0,0.0,0.0,0.0,0.0,0.0,2.5174,0.0,0.0,2.8075,2.8248,2.8716,2.893,2.8025,2.6497,2.4395,0.0,2.1057,2.035,1.7864,0.0,0.0,0.0,0.0,2.3901,2.4491,2.6176,2.6849,2.5695,2.5845,2.5837,2.5345,2.5505,2.5514,2.523,2.4773,2.4498,2.4389,2.263,2.0754,0.0,0.0,0.0,0.0,0.0,0.0,0.0,0.0,0.0,0.0,0.0,0.0,0.0,0.0,0.0,0.0,0.0,0.0,0.0,0.0,0.0,0.0,0.0,0.0,0.0,0.0,0.0,0.0,2.44,2.5557,2.538,2.6686,2.6916,0.0,0.0,0.0,0.0,0.0,0.0,3.1863,3.3313,3.4761,3.6175,3.7325,3.8543,3.9829,4.0582,4.1225,4.1779,4.1982,4.2367,4.2875,4.2658,4.2591,4.2557,4.2401,4.169,4.0371,3.6434,3.4167,3.296,3.1133,3.0287,3.0219,3.0954,3.1224,3.1427,3.2689,3.3028,3.2666,3.1413,3.0601,2.9653,2.7013,0.0,0.0,0.0,0.0,2.7508,2.9376,2.9498,2.9328,3.0179,3.0506,3.0472,2.9959,2.9994,2.8879,0.0,2.4573,2.4055,2.0786,0.0,0.0,0.0,0.0,2.617,2.6439,2.7589,2.8152,2.7538,2.7116,2.6736,2.6303,2.6284,2.624,2.619,2.5792,2.5872,2.6501,2.4812,2.3144,2.1572,0.0,0.0,0.0,0.0,0.0,0.0,0.0,0.0,0.0,0.0,0.0,0.0,0.0,0.0,0.0,0.0,0.0,0.0,0.0,0.0,0.0,0.0,0.0,0.0,0.0,0.0,0.0,0.0,0.0,2.7722,3.0194,0.0,0.0,0.0,0.0,3.071,3.2265,3.393,3.5726,3.6979,3.8611,4.0798,4.0933,4.1339,4.213,4.2848,4.3254,4.3288,4.4059,4.4432,4.4479,4.3707,4.3355,4.3321,4.2591,4.2266,4.2029,3.9694,3.7415,3.5329,3.4539,3.3795,3.3288,3.4009,3.428,3.4381,3.5171,3.4968,3.4618,3.5972,3.4945,3.2882,3.1326,2.96,0.0,0.0,3.0203,3.0019,3.2585,3.3271,3.3139,3.2574,3.2929,3.2872,3.0871,3.1023,3.068,0.0,2.6895,2.6028,2.4548,0.0,2.4715,2.5807,2.7202,2.8384,2.9045,2.9197,2.9011,2.85,2.7781,2.7285,2.7071,2.7043,2.6939,2.6674,2.6641,2.6936,2.7687,2.6411,2.5165,2.4139,2.1458,0.0,0.0,0.0,0.0,0.0,0.0,0.0,0.0,0.0,0.0,0.0,0.0,0.0,0.0,0.0,0.0,0.0,0.0,0.0,0.0,0.0,0.0,0.0,0.0,0.0,0.0,0.0,0.0,3.1383,3.3637,0.0,3.3148,3.3869,3.4692,3.5382,3.6842,3.8207,3.9312,4.068,4.2036,4.3349,4.3842,4.4451,4.521,4.5466,4.5602,4.5602,4.5887,4.6022,4.5988,4.5229,4.4877,4.4843,4.4093,4.3484,4.2949,4.2172,4.0785,3.9094,3.7855,3.7246,3.6975,3.6772,3.6975,3.7359,3.7133,3.7212,3.7325,3.6931,3.5893,3.4731,3.419,3.3553,3.3243,3.4439,3.4195,3.3866,3.5272,3.5319,3.4962,3.4717,3.4848,3.4697,3.3464,3.3743,3.3687,3.1817,3.0559,2.9382,2.805,2.8447,2.8811,2.849,2.9809,3.1005,3.1307,3.0862,3.0446,3.0242,2.9147,2.8415,2.8339,2.8324,2.8288,2.8188,2.7852,2.7949,2.8543,2.7341,2.6087,2.4972,2.2684,1.9929,0.0,0.0,0.0,0.0,0.0,0.0,0.0,0.0,0.0,0.0,0.0,0.0,0.0,0.0,0.0,0.0,0.0,0.0,0.0,0.0,0.0,0.0,0.0,0.0,0.0,3.1317,3.3592,3.4089,3.6603,3.7787,3.649,3.7753,3.8848,3.9343,4.0988,4.2205,4.2692,4.3876,4.479,4.5311,4.5805,4.6312,4.68,4.68,4.68,4.68,4.68,4.68,4.68,4.6278,4.6075,4.6041,4.5311,4.4519,4.3775,4.3524,4.2814,4.1833,4.0595,4.01,4.0054,3.9546,3.9681,3.9999,3.9276,3.9343,3.9491,3.8002,3.7178,3.6693,3.6456,3.6389,3.649,3.7021,3.6815,3.6567,3.7045,3.683,3.6457,3.6201,3.6148,3.5874,3.492,3.5239,3.5337,3.4171,3.3044,3.1931,3.0799,3.1273,3.1506,3.0684,3.1574,3.243,3.2762,3.1889,3.1302,3.1539,3.0456,2.9653,2.9407,2.9373,2.9271,2.901,2.8412,2.8342,2.8967,2.7566,2.6428,2.5654,2.3269,2.0949,1.8706,0.0,0.0,0.0,0.0,0.0,0.0,0.0,0.0,0.0,0.0,0.0,0.0,0.0,0.0,0.0,0.0,0.0,0.0,0.0,0.0,0.0,0.0,0.0,3.2405,3.4325,3.5735,3.5802,3.906,4.046,3.835,4.073,4.2435,4.2435,4.4485,4.5722,4.5722,4.6413,4.6819,4.6834,4.6834,4.6868,4.6868,4.6868,4.6868,4.6868,4.6868,4.6868,4.6868,4.6834,4.68,4.6752,4.6007,4.5263,4.4533,4.3775,4.3423,4.3321,4.2591,4.23,4.2333,4.23,4.23,4.2198,4.1474,4.1225,4.1001,3.9546,3.9073,3.8937,3.8193,3.7978,3.8012,3.799,3.7978,3.7956,3.7944,3.7944,3.7766,3.704,3.6901,3.6512,3.511,3.531,3.5531,3.4772,3.4115,3.3456,3.2809,3.2653,3.2595,3.2562,3.2456,0.0,3.3322,3.2138,3.1505,3.2259,3.1674,3.0954,3.0234,3.0166,2.9837,2.9077,2.8306,2.8205,2.8976,2.7264,2.6322,2.635,2.3352,2.1514,2.0844,0.0,0.0,0.0,0.0,0.0,0.0,0.0,0.0,0.0,0.0,0.0,0.0,0.0,0.0,0.0,0.0,0.0,0.0,0.0,0.0,0.0,3.2924,3.4431,3.4964,3.6785,3.8667,4.0257,4.2367,4.3653,4.3572,4.4756,4.5568,4.5568,4.6143,4.6481,4.6481,4.6684,4.7056,4.7582,4.7582,4.7853,4.8376,4.8409,4.8409,4.8409,4.8409,4.8409,4.8376,4.7293,4.68,4.6733,4.5447,4.4804,4.4567,4.4364,4.3944,4.3321,4.2591,4.2625,4.3017,4.2489,4.23,4.2266,4.2063,4.1982,4.1847,4.0899,4.0967,4.1149,3.9897,3.9851,4.0189,3.966,3.9491,3.9356,3.8848,3.9085,3.9318,3.8571,3.8803,3.8786,3.7314,3.7178,3.6884,3.5563,3.5171,3.5003,3.4798,3.4767,3.4578,3.4017,3.3912,0.0,3.3446,3.2588,3.2283,3.3017,3.2452,3.1921,3.1708,3.1708,3.1166,2.9871,2.9591,2.933,2.901,2.8507,2.8073,2.7669,2.5526,2.4293,0.0,0.0,0.0,0.0,0.0,0.0,0.0,0.0,0.0,0.0,0.0,0.0,0.0,0.0,0.0,0.0,0.0,0.0,0.0,0.0,0.0,0.0,3.6531,3.8131,3.9398,4.0049,4.1197,4.3429,4.4504,4.5473,4.6464,4.6976,4.7259,4.7259,4.7807,4.8021,4.7763,4.7992,4.8211,4.8376,4.836,4.8563,4.9018,4.9018,4.9018,4.9018,4.9018,4.8849,4.8496,4.7665,4.709,4.6733,4.5582,4.4871,4.4567,4.4228,4.3809,4.3355,0.0,0.0,0.0,0.0,4.23,4.2266,4.1948,4.1847,4.1711,4.0967,4.1014,4.1217,4.035,4.0608,4.1035,4.0303,4.0303,4.0405,3.966,3.9774,4.0011,3.9559,3.9559,3.9322,3.8147,3.7652,3.7077,3.5847,3.56,0.0,3.56,3.56,3.543,3.5047,3.4709,3.4336,3.3931,3.322,3.2916,3.3345,3.3017,3.2621,3.2327,3.2588,0.0,0.0,0.0,2.9998,2.8732,2.9259,0.0,0.0,0.0,0.0,0.0,0.0,0.0,0.0,2.4178,2.4369,0.0,0.0,0.0,0.0,0.0,0.0,0.0,0.0,0.0,0.0,0.0,0.0,0.0,0.0,0.0,0.0,4.0425,4.2532,4.4487,4.3752,4.3707,4.5507,4.5891,4.6512,4.77,4.8016,4.8158,4.8158,4.9232,4.9649,4.9153,4.9678,0.0,0.0,0.0,4.9246,4.9255,4.9187,4.912,4.912,4.9052,4.868,4.8022,4.7853,4.7428,4.6766,4.594,4.5196,4.4533,4.3842,4.349,4.3423,4.349,4.3132,4.2536,4.2455,4.2422,4.232,4.1576,0.0,0.0,4.0472,4.0282,4.0316,4.0146,4.0608,4.1035,4.0303,4.0574,4.0899,4.0168,4.0045,4.0079,4.0011,3.9525,3.8903,3.8193,3.7528,3.6784,3.5915,3.5746,3.5712,3.5633,3.56,3.5566,3.5498,3.4912,3.4483,3.4381,3.3795,3.3413,3.3525,0.0,0.0,3.2598,3.3152,3.3186,3.2361,3.1742,3.0676,2.8982,3.0242,3.0408,2.921,2.9838,3.0401,3.0911,3.0865,3.0822,3.0761,2.7613,2.7111,0.0,0.0,0.0,0.0,0.0,0.0,0.0,0.0,0.0,0.0,0.0,0.0,0.0,0.0,0.0,4.1221,4.3364,4.5214,4.6825,4.7373,4.7324,4.6495,4.746,4.8119,4.789,4.8929,4.9582,4.9582,4.9349,4.9357,4.9795,4.9933,4.9968,4.9895,5.0461,5.0765,5.0777,5.0168,4.988,4.988,4.9289,0.0,4.8748,4.7564,4.6921,4.6733,4.5379,4.4736,4.4581,4.4432,4.3978,4.3457,4.4113,4.4262,4.4093,4.3436,4.3186,4.3085,4.2354,4.2097,4.1982,4.1238,4.1386,4.1657,4.0451,4.0608,0.0,4.0303,4.0202,4.0134,3.9389,3.966,3.9943,3.9356,3.9559,3.9706,3.8949,3.8679,3.8171,3.6818,3.6581,3.6366,3.5701,3.56,3.5408,3.481,3.4573,3.428,3.3694,3.348,3.3626,3.4201,3.428,3.4246,3.4077,3.4212,3.3738,3.2395,3.2713,3.3077,3.3273,3.4128,3.4185,3.3369,3.3472,3.3328,3.2862,3.2887,3.2935,3.2866,3.0619,2.9774,0.0,0.0,0.0,0.0,0.0,0.0,0.0,0.0,0.0,0.0,0.0,3.5209,3.7609,0.0,4.2123,4.4616,4.6406,4.7807,4.8623,4.9379,4.9596,4.8885,4.8838,4.9166,4.9923,4.9987,5.016,5.0513,5.054,5.0729,5.1128,5.1136,5.1319,5.1769,5.1412,5.1405,5.1813,5.0676,5.0117,5.0083,4.9357,4.8815,4.8428,4.7699,4.6955,4.621,4.5466,4.4939,4.4615,4.4615,4.4364,4.4045,4.4432,4.4141,4.3416,4.2997,4.2861,4.276,4.2016,4.1745,4.1644,4.0878,4.0912,4.1048,4.0316,4.0608,4.1035,4.0303,4.0371,4.0472,3.9728,3.9829,4.0011,3.9626,3.9559,3.9457,3.9085,3.87,3.8227,3.7494,3.7359,3.7212,3.6828,3.6761,3.6355,3.5205,3.5036,3.4901,3.4562,3.4495,3.463,3.5002,3.5036,3.4912,3.455,3.4516,3.4178,3.3434,3.41,3.4326,3.3964,3.5002,3.5239,3.4516,3.4891,3.5075,3.504,3.5119,3.5143,3.5149,3.4126,3.325,0.0,0.0,0.0,0.0,0.0,0.0,0.0,0.0,3.3336,3.5092,3.7301,3.9578,4.1837,4.3966,4.5965,4.7772,4.9184,5.012,5.0225,5.0827,5.1308,5.1397,5.0313,5.0124,5.1742,5.1008,5.0662,5.1254,5.1811,5.2218,5.2481,5.2594,5.2936,5.3462,5.2408,5.2087,5.2624,5.1209,5.0455,5.0304,4.956,4.8834,4.8124,4.7988,4.7244,4.6094,4.5838,4.5263,4.4615,4.4615,4.4615,4.4615,4.4615,4.3822,4.274,4.257,4.2523,4.2422,4.1677,4.1407,4.1305,4.0709,4.0438,4.0303,4.0303,4.0641,4.0865,4.0269,4.054,4.0832,4.0235,4.0113,4.0113,4.0113,3.966,3.922,3.922,3.8734,3.8294,3.8159,3.8113,3.8058,3.791,3.791,3.7471,3.6242,3.605,3.605,3.605,3.605,3.605,3.605,3.605,3.5814,3.5216,3.5148,3.5227,3.5362,3.5915,3.578,3.4742,3.5847,3.6129,3.5396,3.6021,3.6539,3.6919,3.6972,3.7024,3.7024,3.7003,3.6196,2.7352,2.7389,2.7719,2.8405,2.9806,3.2161,0.0,0.0,3.8534,4.0855,4.2718,4.4406,4.6122,4.7232,4.8461,5.0134,5.1175,5.1746,5.1757,5.2412,5.2936,5.2956,5.218,5.1522,5.1246,5.1606,5.1886,5.1994,5.2149,5.2526,5.3158,5.3916,5.4095,5.3535,5.3926,5.3893,5.338,5.2518,5.1725,5.1066,5.0338,4.9593,4.8849,4.8191,4.7819,4.7582,4.6264,4.5263,4.4615,4.4615,4.4615,4.4615,4.4615,4.4499,4.4262,4.3538,4.3288,4.3186,4.2422,4.2198,4.2164,4.2097,4.161,4.1068,4.1068,4.0675,4.0214,4.0113,4.018,4.0202,4.0113,4.0113,4.0113,4.0113,4.0045,3.9977,3.9977,3.9897,3.966,3.9017,3.8882,3.8667,3.8012,3.791,3.7843,3.7674,3.764,3.764,3.764,3.764,3.764,3.764,3.764,3.7606,3.755,3.7505,3.7787,3.8476,3.8565,3.8848,3.9334,3.9491,3.9254,3.8497,3.8572,3.8354,3.7769,3.7764,3.7773,3.7794,3.7733,3.695,3.0467,3.0607,3.0901,0.0,3.3733,3.5833,3.9305,4.0443,4.1368,4.3305,4.4993,4.6452,4.7599,4.8884,5.0141,0.0,5.216,5.2711,5.2711,5.2564,5.2491,5.2491,5.1793,5.1569,5.2238,5.2207,5.2289,5.2725,5.3248,5.3842,5.4581,5.5003,5.5323,5.5472,5.4892,5.4428,5.4155,5.2935,5.1928,5.1201,5.0439,4.9695,4.8984,4.8665,4.8293,4.7853,4.6786,4.5906,4.5229,4.5229,4.5007,4.4615,4.4615,4.4615,4.4567,4.4228,4.4079,4.3978,4.32,4.2949,4.2861,4.2422,4.2083,4.1847,4.1847,4.1623,4.1386,4.1386,4.1386,4.1386,4.1386,4.1048,4.073,4.073,4.0405,4.0113,4.0113,4.0113,4.0011,3.9694,3.9626,3.9525,3.922,3.9186,3.9186,3.9186,3.8464,3.791,3.791,3.791,3.791,3.791,3.791,3.791,3.791,3.791,3.8024,3.8328,3.8362,3.8497,3.8814,3.8802,3.8667,3.8362,3.8768,3.8836,3.8531,3.8983,3.9411,3.9804,3.9781,3.97,3.1892,0.0,0.0,3.5004,3.6927,3.9064,4.1258,4.258,4.3681,4.5067,4.6461,4.7672,4.8526,4.9848,5.1059,5.1877,5.2674,5.3214,5.3214,5.2527,5.1987,5.1987,5.1279,5.1353,5.2737,5.2397,5.2403,5.3146,5.4142,5.4987,5.5585,5.6065,5.6524,5.6912,5.583,5.5029,5.4587,5.3286,5.2171,5.1201,5.0439,4.9695,4.9018,4.9018,4.8597,4.7887,4.7327,4.6684,4.6007,4.579,4.5399,4.4871,4.4668,4.4615,4.4615,4.4615,4.4615,4.4499,4.3944,4.3727,4.3639,4.3112,4.2773,4.2591,4.2591,4.2455,4.23,4.23,4.23,4.23,4.23,4.188,4.1508,4.1508,4.1115,4.0709,4.0709,4.054,4.0405,4.0405,4.0235,4.0113,4.0113,4.0113,4.018,4.0371,3.9309,3.8497,3.8497,3.8497,3.8497,3.8497,3.8497,3.8497,3.8497,3.8497,3.8497,3.8497,3.8497,3.8497,3.8497,3.8497,3.8497,3.8497,3.9242,3.9614,3.9614,4.0337,4.098,4.1508,4.1508,4.1914,0.0,0.0,3.5151,3.6046,3.8644,4.1434,4.3065,4.4644,4.603,4.6856,4.7672,4.8526,4.938,5.0261,5.1059,5.1877,5.2674,5.3214,5.3214,5.2527,5.1987,5.1987,5.1279,5.1132,0.0,5.2003,5.2323,5.3141,5.4656,5.5585,5.5585,5.7068,5.7618,5.6925,5.6861,5.6108,5.4603,5.3829,5.2688,5.1201,5.0439,4.9695,4.9018,4.9018,4.8597,4.7921,4.7887,4.7462,4.6733,4.6007,4.5703,4.5602,4.4871,4.4615,4.4615,4.4615,4.4615,4.4615,4.4567,4.4567,4.4567,4.4533,4.4012,4.3389,4.3389,4.2861,4.23,4.23,4.23,4.23,4.23,4.23,4.2266,4.2266,4.2266,4.2232,4.2232,4.1677,4.117,4.117,4.0608,4.0113,4.0113,4.0113,4.0337,4.1068,4.0506,4.0045,4.0045,4.0045,4.0045,4.0045,4.0045,4.0045,4.0045,4.0045,4.0045,4.0045,4.0045,4.0045,4.0045,4.0045,4.0045,4.0045,4.0764,4.1136,4.1136,4.188,4.2232,4.2266,4.2266,4.2658,3.3008,0.0,3.711,3.9011,4.1111,4.3094,4.4718,4.5911,4.6755,4.7039,4.7333,4.7599,4.7893,4.859,4.9591,5.0986,5.1867,5.2601,5.3104,5.2957,5.2417,5.1316,5.1426,0.0,0.0,0.0,0.0,5.3141,5.4693,5.5585,5.5585,5.7127,5.7667,5.6925,5.638,5.5588,5.4553,5.3778,5.2658,5.1195,4.9959,4.9255,4.9018,4.9018,4.8868,4.8631,4.8631,4.8191,4.7515,4.7244,4.6872,4.6346,4.5602,4.5331,4.5263,4.477,4.4615,4.4615,4.4615,4.4615,4.4615,4.4615,4.4432,4.4195,4.4195,4.4025,4.3822,4.3822,4.3822,4.3822,4.3822,4.3436,4.3017,4.3017,4.2658,4.23,4.23,4.213,4.1914,4.1914,4.1724,4.1555,4.1555,4.1555,4.1657,4.188,4.1305,4.0641,4.018,4.0113,4.0113,4.0113,4.0113,4.0303,4.0798,4.0371,4.0303,4.0811,4.0371,4.0303,4.0798,4.0832,4.1081,4.1555,4.1779,4.1914,4.1914,4.2198,4.2557,4.3017,4.3017,4.3436,3.514,3.7118,3.888,4.0993,4.2727,4.4268,4.559,4.6315,4.6682,4.6682,4.6452,4.6168,4.5874,4.6461,4.7636,4.9591,5.0839,5.205,5.3434,5.3398,5.281,5.1783,5.161,5.1463,0.0,0.0,0.0,5.3141,5.4693,5.5585,5.5585,5.7127,5.7774,5.7314,5.6776,5.6156,5.5374,5.4324,5.2809,5.0766,4.957,4.9018,4.9018,4.9018,4.9018,4.9018,4.9018,4.8748,4.8259,4.8022,4.7616,4.7124,4.638,4.6075,4.6007,4.5277,4.5007,4.4973,4.4702,4.4615,4.4615,4.4615,4.4615,4.4615,4.4615,4.4615,4.4615,4.4615,4.4615,4.4615,4.4615,4.4228,4.3842,4.3842,4.3484,4.3112,4.3112,4.2909,4.2692,4.2692,4.2503,4.23,4.23,4.2523,4.2591,4.232,4.2117,4.1711,4.098,4.0891,4.0891,4.0891,4.0891,4.1081,4.1542,4.1149,4.1081,4.1576,4.1149,4.1115,4.1576,4.1576,4.1813,4.23,4.2557,4.2692,4.2692,4.2976,4.3382,4.3842,4.4099,4.4519,3.6942,3.8807,4.0422,4.2029,4.3562,4.492,4.5736,4.5883,4.581,4.5736,4.5076,4.4259,0.0,0.0,4.5434,4.7783,4.9701,5.1683,5.4069,5.3801,5.3361,0.0,0.0,0.0,0.0,0.0,0.0,5.3287,5.473,5.5622,5.5658,5.7164,5.7997,5.7997,5.7973,5.7594,5.684,5.5251,5.2925,4.999,4.9361,4.9015,4.9018,4.9031,4.9015,4.9018,4.9018,4.9018,4.8951,4.8225,4.7954,4.7887,4.7158,4.6853,4.6752,4.6041,4.5771,4.5635,4.4905,4.4635,4.4615,4.4615,4.4615,4.4615,4.4615,4.4615,4.4615,4.4615,4.4615,4.4615,4.4615,4.4615,4.4615,4.4615,4.4615,4.4615,4.4615,4.4012,4.3457,4.3457,4.2895,4.2435,4.2435,4.2997,4.322,4.2536,4.3017,4.3186,4.2401,4.23,4.23,4.23,4.23,4.2333,4.2367,4.2333,4.2333,4.2367,4.2333,4.2333,4.2367,4.2367,4.2401,4.2435,4.3085,4.3457,4.3457,4.4262,4.4668,4.4668,4.5399,4.5771,3.8623,4.0459,4.2066,4.3672,4.4406,4.492,4.5736,4.5443,4.4672,4.3461,4.2571,4.158,0.0,0.0,0.0,4.6214,4.9444,0.0,5.4142,5.528,0.0,5.4252,0.0,5.4876,5.3885,5.4337,0.0,5.4961,5.5365,5.5879,5.6455,5.7446,5.7997,5.7997,5.7462,5.6788,5.5997,5.3379,5.1354,5.0004,4.9838,4.9477,4.9034,4.9521,4.9477,4.9018,4.9018,4.9018,4.8984,4.8815,4.8698,4.8631,4.7921,4.7616,4.7515,4.6786,4.6515,4.6413,4.5669,4.5074,4.4615,4.4615,4.4615,4.4615,4.4615,4.4615,4.4615,4.4615,4.4615,4.4615,4.4615,4.4615,4.4615,4.4615,4.4615,4.4615,4.4615,4.4432,4.4296,4.4296,4.4127,4.3992,4.3992,4.4161,4.4228,4.4025,4.4161,4.3822,4.2469,4.23,4.23,4.23,4.23,4.2523,4.3051,4.2625,4.2523,4.3085,4.2591,4.2557,4.3085,4.3118,4.3403,4.3992,4.4195,4.4296,4.4296,4.506,4.5432,4.5432,4.6177,4.6515,4.0716,4.2396,4.3644,4.492,4.5214,4.5149,4.4892,4.4232,4.2983,4.0679,3.9827,0.0,3.7389,3.9717,4.2698,0.0,0.0,0.0,5.4583,5.6014,5.6444,0.0,5.5941,0.0,5.5023,5.5328,5.5768,5.6088,5.6124,5.6308,5.6774,5.7556,5.7997,5.7997,5.729,5.6503,5.5709,5.3692,5.2277,5.145,5.0858,5.0163,4.9432,4.9536,4.9361,4.9018,4.9018,4.9018,4.9018,4.9018,4.9018,4.8951,4.8529,4.836,4.8293,4.7564,4.7293,4.7192,4.6447,4.5906,4.5447,4.4818,4.4615,4.4615,4.4615,4.4615,4.4615,4.4615,4.4615,4.4615,4.4615,4.4615,4.4615,4.4615,4.4615,4.4615,4.4615,4.4615,4.4615,4.4615,4.4871,4.5074,4.5074,4.5345,4.5447,4.5142,4.5074,4.4668,4.345,4.3315,4.3315,4.3315,4.3315,4.3484,4.3876,4.3552,4.3484,4.391,4.3552,4.3639,4.437,4.4404,4.479,4.5548,4.5582,4.5582,4.5582,4.5974,4.6177,4.621,4.6955,4.7293,4.2882,4.4232,4.503,4.5736,4.5736,4.5195,4.369,4.2478,4.0826,3.7779,0.0,3.6457,3.5078,3.7551,4.0818,4.4149,0.0,5.1903,5.5144,5.6308,5.6847,5.6957,5.6345,5.5915,5.5915,5.5915,5.6209,5.6932,5.6957,5.6957,5.6957,5.7629,5.7997,5.7997,5.729,5.6503,5.5721,5.487,5.3993,5.3023,5.187,5.0781,4.9833,4.9376,4.9077,4.9018,4.9018,4.9018,4.9018,4.9018,4.9018,4.9018,4.9018,4.9018,4.8917,4.8293,4.8056,4.7954,4.7192,4.6955,4.6718,4.5345,4.4871,4.4871,4.4871,4.4871,4.4871,4.4871,4.4871,4.4871,4.4871,4.4871,4.4871,4.4871,4.4871,4.4871,4.4871,4.4871,4.4871,4.4871,4.5413,4.5838,4.5838,4.638,4.6583,4.594,4.5838,4.5602,4.4973,4.4716,4.4615,4.4615,4.4702,4.4736,4.4736,4.4838,4.4871,4.4871,4.4871,4.5176,4.5838,4.5838,4.6143,4.68,4.68,4.68,4.68,4.6902,4.6955,4.6955,4.7684,4.8056,4.4158,4.5076,4.5736,4.5883,4.4892,4.3653,4.2727,4.0349,0.0,0.0,3.4387,3.3543,3.3954,3.6707,4.0186,4.4076,4.8113,5.1903,5.5144,5.6308,5.7042,0.0,5.7666,5.7556,5.7556,5.7556,0.0,5.7776,5.7776,5.7776,5.7776,5.7923,5.7997,5.7997,5.729,5.6528,5.5784,5.4395,5.3012,5.1633,5.1356,5.0494,4.9199,4.962,4.9536,4.9018,4.9018,4.9018,4.9018,4.9018,4.9018,4.9018,4.9018,4.9018,4.8984,4.8849,4.88,4.8698,4.7954,4.7718,4.7582,4.6684,4.6428,4.6428,4.6428,4.6428,4.6428,4.6428,4.6428,4.6428,4.6428,4.6428,4.6428,4.6428,4.6428,4.6428,4.6428,4.6428,4.6428,4.6428,4.653,4.6616,4.6616,4.6733,4.6752,4.6616,4.6616,4.6549,4.6428,4.5345,4.4615,4.4615,4.5142,4.55,4.55,4.609,4.6428,4.6428,4.6428,4.6496,4.6583,4.6616,4.665,4.68,4.68,4.68,4.68,4.7413,4.7718,4.7718,4.8477,4.88,4.4892,4.5911,4.6608,4.7058,4.5626,4.3571,4.1515,0.0,0.0,0.0,3.2222,3.1971,3.1935,3.4945,0.0,4.114,4.4993,4.904,5.3162,5.4436,0.0,5.774,5.7997,5.7997,5.7997,5.7997,5.7997,5.7997,5.7997,5.7997,5.7997,5.7997,5.7809,5.7437,5.7078,5.6732,5.636,5.4823,5.3732,5.2999,5.1815,5.0655,4.9536,4.9833,4.962,4.9034,4.9376,4.9331,4.9018,4.9018,4.9018,4.9018,4.9018,4.9018,4.9018,4.9018,4.9018,4.8951,4.8597,4.8462,4.8394,4.8071,4.7428,4.68,4.68,4.68,4.68,4.68,4.68,4.68,4.68,4.68,4.68,4.68,4.68,4.68,4.68,4.68,4.68,4.68,4.7124,4.7361,4.7361,4.7699,4.78,4.7428,4.7361,4.7225,4.6868,4.6191,4.5751,4.5751,4.6041,4.6278,4.6278,4.6583,4.68,4.68,4.68,4.6955,4.7361,4.7361,4.7564,4.7936,4.7936,4.7936,4.7936,4.8308,4.8462,4.8462,4.8849,4.9221,4.5333,4.6608,4.7489,4.7929,4.6241,4.3608,4.0377,3.7632,0.0,0.0,3.0577,3.0803,3.0503,3.322,3.6266,0.0,4.1911,4.5957,5.1022,5.2601,5.4315,0.0,5.7886,0.0,5.7997,5.7997,0.0,5.7997,5.7997,5.7997,5.7997,5.7997,5.7738,5.7141,5.6976,5.684,5.6672,5.5123,5.4273,5.4092,5.2165,5.091,5.0209,5.0075,4.9707,4.9226,4.9605,4.9492,4.9018,4.9018,4.9018,4.9018,4.9018,4.9018,4.9018,4.9018,4.9018,4.9018,4.9018,4.9018,4.9018,4.9018,4.8206,4.7259,4.7259,4.7259,4.7259,4.7259,4.7259,4.7259,4.7259,4.7259,4.7259,4.7259,4.7259,4.7259,4.7259,4.7259,4.7259,4.7259,4.7733,4.8157,4.8157,4.8597,4.8815,4.8225,4.8157,4.7921,4.7361,4.7259,4.7259,4.7259,4.7124,4.7022,4.7022,4.7192,4.7259,4.7259,4.7259,4.753,4.8124,4.8157,4.8394,4.8984,4.9154,4.9255,4.9255,4.939,4.9476,4.9476,4.9476,4.9796,4.5626,4.7021,4.8039,4.7369,4.5397,4.2772,3.9533,0.0,0.0,3.0723,2.969,2.9653,3.1023,3.2192,0.0,0.0,0.0,4.4488,5.0105,5.2223,5.4132,5.659,0.0,0.0,5.7997,5.7997,5.7997,5.7997,5.7997,5.7997,5.7997,5.7997,5.7973,5.7916,5.7265,5.6564,5.5892,5.4359,5.3229,5.248,5.1612,5.1151,5.0981,5.0293,4.9962,4.9861,4.9331,4.9046,4.9018,4.9018,4.9018,4.9018,4.9018,4.9018,4.9018,4.9018,4.9018,4.9018,4.9018,4.9018,4.9018,4.9018,4.8917,4.8815,4.8815,4.8815,4.8815,4.8815,4.8815,4.8815,4.8815,4.8815,4.8815,4.8815,4.8815,4.8815,4.8815,4.8815,4.8815,4.8815,4.8849,4.8917,4.8917,4.8951,4.8984,4.8917,4.8917,4.8883,4.8815,4.8815,4.8815,4.8815,4.8191,4.7819,4.7819,4.8394,4.8815,4.8815,4.8815,4.8849,4.8917,4.8917,4.8951,4.9018,4.9661,5.0015,4.9999,5.0676,5.0998,5.0998,5.0998,5.1032,4.5406,4.7058,4.8223,4.7893,4.5626,4.2662,3.9423,0.0,3.2999,3.0093,2.9207,2.9207,2.9837,3.0607,3.2259,0.0,0.0,0.0,4.6241,4.7672,4.9874,5.4766,5.5647,0.0,0.0,5.7997,5.7997,5.7997,5.7997,5.7997,5.7997,5.7997,5.7997,5.7997,5.7714,5.7194,5.6403,5.4912,5.3738,5.2899,5.1679,5.0897,5.0431,5.0595,5.0202,4.9387,4.9551,4.9357,4.9018,4.9018,4.9018,4.9018,4.9018,4.9018,4.9018,4.9018,4.9018,4.9018,4.9018,4.9018,4.9018,4.9018,4.9018,4.9018,4.9018,4.9018,4.9018,4.9018,4.9018,4.9018,4.9018,4.9018,4.9018,4.9018,4.9018,4.9018,4.9018,4.9018,4.9018,4.9018,4.9018,4.9018,4.9018,4.9018,4.9018,4.9018,4.9018,4.9018,4.9018,4.9018,4.9018,4.9018,4.8732,4.8563,4.8563,4.8834,4.9187,4.9627,4.9661,4.9864,5.0288,5.0322,5.0322,5.0322,5.0592,5.0777,5.0777,5.1066,5.1201,5.1201,5.1201,5.1438,4.5112,4.6911,4.7966,4.7966,4.57,4.2588,0.0,3.5973,3.2889,2.9647,2.8981,2.8981,2.8981,2.9464,3.0644,0.0,0.0,3.7389,4.3195,4.481,4.7305,5.2344,0.0,5.4546,5.6712,5.7593,5.7997,5.7997,5.7997,5.7997,5.7997,5.7997,5.7997,5.7997,5.7785,5.7179,5.6156,5.4881,5.3729,5.264,5.1592,5.0823,5.0321,5.0635,5.0244,4.9316,4.961,4.9432,4.9018,4.9018,4.9018,4.9018,4.9018,4.9018,4.9018,4.9018,4.9018,4.9018,4.9018,4.9018,4.9018,4.9018,4.9018,4.9018,4.9018,4.9018,4.9018,4.9018,4.9018,4.9018,4.9018,4.9018,4.9018,4.9018,4.9018,4.9018,4.9018,4.9018,4.9018,4.9018,4.9018,4.9018,4.9018,4.9018,4.9086,4.9289,4.9323,4.939,4.9612,4.9661,4.9661,4.9661,4.9661,4.956,4.9357,4.9323,4.9627,5.0371,5.0439,5.0676,5.1167,5.1201,5.1201,5.1201,5.1404,5.1539,5.1539,5.1776,5.1877,5.1877,5.1877,5.2148,4.4819,4.6498,4.7113,4.7113,4.5287,4.245,3.8447,3.5576,3.2889,2.9647,2.8981,2.8981,2.8981,2.9023,2.9794,3.2216,0.0,0.0,4.1772,4.5067,4.7709,0.0,5.1032,5.2648,5.4289,5.6602,5.7997,5.7997,5.7997,5.7997,5.7997,5.7997,5.7997,5.7997,5.7302,5.6167,5.4652,5.381,5.2657,5.1112,5.1099,5.1099,5.106,5.0335,5.0004,4.9947,4.9301,4.9018,4.9018,4.9018,4.9018,4.9018,4.9018,4.9018,4.9018,4.9018,4.9018,4.9018,4.9018,4.9018,4.9018,4.9018,4.9018,4.9018,4.9018,4.9018,4.9018,4.9018,4.9018,4.9018,4.9018,4.9018,4.9018,4.9018,4.9018,4.9018,4.9018,4.9018,4.9018,4.9018,4.9018,4.9018,4.9018,4.9018,4.9255,4.9981,5.0083,5.0338,5.1066,5.1167,5.1167,5.1167,5.1167,5.0863,5.015,5.0083,5.0405,5.1133,5.1201,5.1201,5.1201,5.1201,5.1201,5.1201,5.1928,5.23,5.23,5.3078,5.3484,5.3484,5.3484,5.3484,3.9806,4.1552,4.2865,4.2323,4.0789,3.877,3.6332,3.4314,3.2216,2.9537,2.8981,2.8981,2.8981,2.8981,3.0344,3.4468,3.5789,0.0,0.0,0.0,0.0,4.9307,5.3419,5.6528,5.7581,5.8352,5.8829,5.8829,5.8327,5.7997,5.7997,5.7997,5.7997,5.7997,5.7774,5.69,5.5316,5.458,5.3405,5.1765,5.1765,5.1544,5.1112,5.1343,5.1202,5.0716,4.999,4.9678,4.9649,4.918,4.9018,4.9018,4.9018,4.9018,4.9018,4.9018,4.9018,4.9018,4.9018,4.9018,4.9018,4.9018,4.9018,4.9018,4.9018,4.9018,4.9018,4.9018,4.9018,4.9018,4.9018,4.9018,4.9018,4.9018,4.9018,4.9018,4.9018,4.939,4.9729,4.9729,5.0168,5.0491,5.0491,5.0491,5.0592,5.0829,5.0829,5.093,5.1167,5.1201,5.1201,5.1201,5.1201,5.11,5.0863,5.0829,5.1183,5.1928,5.1961,5.2198,5.2757,5.2757,5.2757,5.2757,5.301,5.3112,5.3112,5.3382,5.3518,5.3518,5.3518,5.3518,0.0,3.8799,4.0076,3.957,3.8476,3.6971,3.5011,3.3286,3.1561,2.9427,2.8981,2.8981,2.8981,2.8981,3.0198,3.385,3.5502,3.7551,0.0,0.0,4.7067,5.0151,5.4153,5.7189,5.8609,5.9306,5.9636,5.9636,5.8902,5.8437,5.8437,5.8143,5.7856,5.757,5.7844,5.7123,5.5259,5.481,5.3639,5.1716,5.1716,5.1506,5.1099,5.1254,5.1099,5.0649,4.9919,4.9605,0.0,4.9184,4.9018,4.9018,4.9018,4.9018,4.9018,4.9018,4.9018,4.9018,4.9018,4.9018,4.9018,4.9018,4.9018,4.9018,4.9018,4.9018,4.9018,4.9018,4.9018,4.9018,4.9018,4.9018,4.9086,4.9357,4.9424,4.9492,4.9763,5.0202,5.0507,5.0507,5.0897,5.1201,5.1201,5.1201,5.1302,5.1573,5.1607,5.1708,5.2013,5.208,5.208,5.208,5.208,5.208,5.208,5.1776,5.1945,5.2706,5.2739,5.2976,5.3484,5.3518,5.3518,5.3518,5.3518,5.3518,5.3518,5.3518,5.3653,5.3923,5.3923,5.4059,0.0,3.7485,3.8175,3.8102,3.7514,3.6391,3.4064,3.2382,0.0,2.9317,2.8981,2.9054,2.9207,2.9164,2.9721,3.1684,3.4585,3.7147,3.8799,4.3167,4.7709,5.1852,5.3754,5.5684,5.8033,5.9612,6.0456,6.0419,5.9636,5.9196,5.9123,5.8354,5.7643,5.6989,5.7534,5.678,5.4542,5.4493,5.3367,5.1099,5.1151,5.1138,5.1073,5.0431,5.0132,5.0047,4.9342,4.9061,4.9061,4.9034,4.9018,4.9018,4.9018,4.9018,4.9018,4.9018,4.9018,4.9018,4.9018,4.9018,4.9018,4.9052,4.912,4.9154,4.9154,4.9086,4.9018,4.9052,4.9086,4.9086,4.9154,4.9154,4.9323,5.0015,5.0184,5.0371,5.1066,5.1235,5.1269,5.1269,5.1336,5.137,5.137,5.137,5.1607,5.2266,5.2401,5.2672,5.3416,5.3518,5.3518,5.3518,5.3518,5.3518,5.3518,5.2807,5.2706,5.345,5.3518,5.3518,5.3518,5.3518,5.3518,5.3585,5.3653,5.3653,5.3653,5.3653,5.4025,5.4668,5.4668,5.504,2.9591,0.0,3.2963,3.2339,3.2045,3.1751,0.0,3.076,3.021,2.9207,0.0,2.9574,3.1408,3.0754,3.1678,3.7044,3.855,3.9835,4.2074,4.6003,5.0409,5.5184,5.7107,5.8792,6.0578,6.108,6.1043,6.0456,5.9636,5.8939,5.8327,5.7571,5.7339,5.7726,5.6758,5.5429,5.3691,5.3678,5.2816,5.1099,5.1618,5.1593,5.1112,5.1456,5.1343,5.0796,5.0075,4.9766,4.9737,4.9195,4.9018,4.9018,4.9018,4.9018,4.9018,4.9018,4.9018,4.9018,4.9018,4.9018,4.9086,4.9661,5.0236,5.0694,5.0694,4.9882,4.912,4.9661,4.983,4.9965,5.0525,5.0694,5.0728,5.0897,5.093,5.0998,5.1167,5.1641,5.2063,5.2063,5.2536,5.2976,5.2976,5.2976,5.3044,5.3179,5.3213,5.3281,5.3484,5.3518,5.3518,5.3518,5.3518,5.3518,5.3518,5.3348,5.3315,5.3484,5.3518,5.3518,5.3518,5.3518,5.3754,5.4329,5.4905,5.5192,5.5192,5.5192,5.5259,5.5428,5.5428,5.553,2.7567,3.0105,3.2418,3.1971,3.1861,3.1861,3.1861,0.0,0.0,0.0,0.0,2.961,3.1672,3.1635,3.2744,3.7122,3.8781,4.087,4.4827,4.844,5.2222,5.6411,5.8257,5.9841,6.142,6.1275,6.0874,6.0486,5.9652,5.8858,5.8093,5.7619,5.7425,5.7486,5.6343,5.5148,5.3976,5.3557,5.2582,5.1099,5.1469,5.1444,5.1099,5.1138,5.0955,5.0554,4.9867,4.9551,4.9521,4.9153,4.9018,4.9018,4.9018,4.9018,4.9018,4.9018,4.9018,4.9052,4.939,4.9729,5.0101,5.0473,5.0863,5.1201,5.1201,5.0626,5.0085,5.0507,5.0608,5.071,5.11,5.1201,5.1302,5.1607,5.1708,5.1826,5.2182,5.257,5.2841,5.2841,5.3213,5.3518,5.3518,5.3518,5.3518,5.3518,5.3518,5.3518,5.3518,5.3518,5.3518,5.3518,5.3518,5.3518,5.3518,5.3518,5.3518,5.3518,5.3822,5.3991,5.3991,5.4329,5.4702,5.5108,5.5496,5.5699,5.5699,5.5699,5.5868,5.6206,5.6206,5.6393,2.7849,3.101,3.3839,3.3376,3.3513,3.372,3.3403,0.0,0.0,0.0,0.0,0.0,3.1826,3.2686,0.0,0.0,3.8528,4.2007,4.7541,5.0529,5.335,5.653,5.8365,5.9912,6.127,6.0907,6.0466,6.0159,5.9559,5.881,5.7975,5.785,5.7534,5.6884,5.6012,5.5144,5.4423,5.3555,5.2455,5.1099,5.1099,5.1034,5.0903,5.0265,4.9947,4.9824,4.9241,4.9018,4.9018,4.9018,4.9018,4.9018,4.9018,4.9018,4.9018,4.9018,4.9018,4.912,4.983,5.0676,5.137,5.137,5.1438,5.1539,5.1539,5.1539,5.1539,5.1539,5.1472,5.1404,5.1505,5.1539,5.1708,5.2334,5.2469,5.2672,5.3348,5.3518,5.3518,5.3518,5.3518,5.3518,5.3518,5.3518,5.3518,5.3518,5.3518,5.3518,5.3518,5.3518,5.3518,5.3518,5.3518,5.3551,5.3653,5.3687,5.3721,5.3822,5.4329,5.4651,5.4769,5.548,5.5868,5.5868,5.5969,5.6037,5.6037,5.6037,5.6341,5.6968,5.6968,5.7306,2.9142,3.217,3.4035,3.1402,3.2302,3.3359,3.1639,0.0,0.0,0.0,0.0,0.0,0.0,3.5533,3.6703,4.0975,4.3597,4.6592,5.0875,5.2361,5.3971,5.6586,5.885,6.0316,6.0569,6.1078,6.0596,5.8614,5.8929,5.8592,5.7165,5.7074,5.6975,5.6809,5.545,5.4302,5.3508,5.2768,5.1944,5.1099,5.1099,5.077,5.0188,5.0061,4.9693,4.9153,4.9031,4.9018,4.9018,4.9018,4.9018,4.9018,4.9018,4.9018,4.9018,4.9018,4.9018,4.912,4.983,5.098,5.2131,5.2131,5.2604,5.3145,5.3145,5.3145,5.3145,5.3145,5.2672,5.23,5.2976,5.3145,5.3179,5.3281,5.3315,5.3348,5.3484,5.3518,5.3518,5.3518,5.3518,5.3518,5.3518,5.3518,5.3518,5.3518,5.3518,5.3518,5.3518,5.3518,5.3518,5.3518,5.3518,5.3754,5.4363,5.4431,5.4702,5.5327,5.4871,5.4871,5.5496,5.6258,5.663,5.663,5.7239,5.7543,5.7543,5.7543,5.7611,5.7712,5.7712,5.7798,2.778,3.0628,3.2753,3.1661,3.3804,3.5928,3.4992,0.0,0.0,0.0,0.0,0.0,0.0,0.0,3.9708,4.4092,4.638,4.8425,5.0739,5.2712,5.4667,5.6675,5.8184,5.9421,6.0311,5.9557,5.8729,5.8166,5.7997,5.7657,5.6936,5.729,5.7316,5.6891,5.5377,5.4176,5.3355,5.1801,5.0836,5.05,5.0903,5.0716,5.0004,5.0004,4.9818,4.9521,4.9168,4.9018,4.9018,4.9018,4.9018,4.9018,4.9018,4.9018,4.9052,4.9458,5.0101,5.0845,5.1183,5.2029,5.2942,5.2942,5.3213,5.3518,5.3518,5.3518,5.3518,5.3518,5.3247,5.3044,5.3416,5.3518,5.3518,5.3518,5.3518,5.3518,5.3518,5.3518,5.3518,5.3518,5.3518,5.3518,5.3518,5.3518,5.3518,5.3518,5.3518,5.3518,5.3518,5.3518,5.3653,5.4059,5.4093,5.4397,5.5141,5.5209,5.5513,5.624,5.5987,5.6122,5.6867,5.7205,5.7374,5.7374,5.7712,5.79,5.79,5.79,5.79,5.79,5.79,5.79,2.7068,2.9352,3.1524,3.2976,0.0,3.7805,3.8184,0.0,0.0,0.0,0.0,0.0,0.0,3.996,4.2784,4.6274,4.84,4.9928,5.0771,5.2984,5.5029,5.644,5.7264,5.8233,5.9453,5.7915,5.701,5.752,5.6972,5.6609,5.6616,5.7166,5.7131,5.6342,5.5025,5.392,5.3139,5.1241,5.0237,5.0251,5.0649,5.054,5.0004,5.0004,4.9904,4.9737,4.9211,4.9018,4.9018,4.9018,4.9018,4.9018,4.9018,4.912,4.9323,4.9898,5.1014,5.23,5.23,5.2841,5.3518,5.3518,5.3518,5.3518,5.3518,5.3518,5.3518,5.3518,5.3518,5.3518,5.3518,5.3518,5.3518,5.3518,5.3518,5.3518,5.3518,5.3518,5.3518,5.3518,5.3518,5.3518,5.3518,5.3518,5.3518,5.3518,5.3518,5.3551,5.3754,5.3754,5.4025,5.4769,5.4871,5.5175,5.5902,5.6105,5.6461,5.7036,5.707,5.7306,5.79,5.79,5.79,5.79,5.79,5.79,5.79,5.79,5.79,5.79,5.79,5.79,2.9114,3.0134,3.1179,3.5198,0.0,0.0,3.8133,3.7819,0.0,0.0,0.0,0.0,0.0,4.3142,4.5871,4.7522,5.0198,5.2315,5.3145,5.4025,5.4907,5.5686,5.6486,5.7012,5.7049,5.6949,5.663,5.5901,5.5826,5.5778,5.5787,5.5851,5.5517,5.4711,5.3902,5.3109,5.2307,5.1445,5.1021,5.1008,5.0376,5.0061,5.0004,5.0004,4.9649,4.9061,4.9,4.9018,4.9018,4.9018,4.9018,4.9018,4.9018,4.9424,5.0049,5.0083,5.1014,5.23,5.23,5.2841,5.3518,5.3518,5.3518,5.3518,5.3518,5.3518,5.3518,5.3518,5.3518,5.3518,5.3518,5.3518,5.3518,5.3518,5.3518,5.3518,5.3518,5.3518,5.3518,5.3518,5.3518,5.3518,5.3518,5.3518,5.3518,5.3518,5.3518,5.3754,5.4431,5.4499,5.4803,5.553,5.5631,5.5902,5.6664,5.734,5.7746,5.7832,5.7832,5.7832,5.79,5.79,5.79,5.79,5.79,5.79,5.79,5.79,5.79,5.79,5.79,5.79,2.6749,2.8374,3.0149,3.314,0.0,0.0,0.0,0.0,0.0,0.0,0.0,0.0,0.0,4.4557,4.6331,4.8259,5.0676,5.257,5.3382,5.3754,5.4381,5.563,5.5583,5.5841,5.6779,5.6422,5.6046,5.5702,5.5713,5.571,5.5695,5.5709,5.5568,5.5271,5.4046,5.3062,5.2318,5.1046,5.0404,5.0404,5.0595,5.0676,5.0662,5.023,4.9847,4.959,4.9165,4.9018,4.9018,4.9018,4.9018,4.9018,4.9018,4.9729,5.0761,5.0761,5.1758,5.3044,5.3044,5.3247,5.3518,5.3518,5.3518,5.3518,5.3518,5.3518,5.3518,5.3518,5.3518,5.3518,5.3518,5.3518,5.3518,5.3518,5.3518,5.3518,5.3518,5.3518,5.3518,5.3518,5.3518,5.3518,5.3518,5.3518,5.3653,5.4126,5.416,5.4431,5.5209,5.5259,5.5581,5.6325,5.6799,5.7171,5.7442,5.773,5.79,5.79,5.79,5.79,5.79,5.79,5.79,5.79,5.79,5.79,5.79,5.79,5.79,5.79,5.79,5.79,2.604,2.7943,3.0228,0.0,0.0,0.0,0.0,0.0,0.0,0.0,4.6549,0.0,0.0,0.0,4.6974,4.8714,5.1082,5.2875,5.3416,5.3518,5.399,5.5282,5.4735,5.4771,5.6055,5.5487,5.5086,5.5322,5.5146,5.5119,5.5335,5.535,5.5142,5.4645,5.3632,5.2747,5.2017,5.0691,5.0132,5.0335,5.0622,5.0756,5.073,5.0209,4.9876,4.9649,4.918,4.9018,4.9018,4.9018,4.9018,4.9018,4.9018,4.9882,5.1201,5.1201,5.2182,5.3518,5.3518,5.3518,5.3518,5.3518,5.3518,5.3518,5.3518,5.3518,5.3518,5.3518,5.3518,5.3518,5.3518,5.3518,5.3518,5.3518,5.3518,5.3518,5.3518,5.3518,5.3518,5.3518,5.3518,5.3518,5.3518,5.3687,5.4025,5.4499,5.4803,5.5209,5.5936,5.6037,5.6325,5.707,5.7577,5.79,5.79,5.79,5.79,5.79,5.79,5.79,5.79,5.79,5.79,5.79,5.79,5.79,5.79,5.79,5.79,5.79,5.79,5.79,2.779,2.9456,3.1742,0.0,0.0,0.0,0.0,0.0,0.0,0.0,0.0,4.6616,4.5872,4.694,4.8157,4.8883,5.1522,5.3484,5.3518,5.3518,5.3788,5.4499,5.3923,5.3788,5.4499,5.394,5.3833,5.4544,5.3913,5.3849,5.456,5.4572,5.3886,5.2366,5.2356,5.2017,5.1196,5.0385,5.0348,5.1073,5.0335,4.999,5.0004,4.999,4.962,4.9018,4.9018,4.9018,4.9018,4.9018,4.9018,4.9018,4.9018,4.9882,5.1201,5.1201,5.2182,5.3518,5.3518,5.3518,5.3518,5.3518,5.3518,5.3518,5.3518,5.3518,5.3518,5.3518,5.3518,5.3518,5.3518,5.3518,5.3518,5.3518,5.3518,5.3518,5.3518,5.3518,5.3518,5.3518,5.3518,5.3518,5.3518,5.4126,5.46,5.4617,5.5243,5.5969,5.6731,5.6799,5.7103,5.7832,5.79,5.79,5.79,5.79,5.79,5.79,5.79,5.79,5.79,5.79,5.79,5.79,5.79,5.79,5.79,5.79,5.79,5.79,5.79,5.79,2.7156,2.9441,3.2486,3.4731,0.0,0.0,0.0,0.0,0.0,0.0,5.0304,4.8898,4.8173,4.836,4.8917,4.9661,5.1386,5.2841,5.3416,5.3518,5.3585,5.3788,5.3619,5.3585,5.3822,5.4081,5.4171,5.3832,5.4106,5.4155,5.3832,5.3304,5.3022,5.3129,5.2097,5.1468,5.1269,5.0414,4.9861,4.9625,4.9421,4.9551,4.9976,4.9521,4.9199,4.9018,4.9018,4.9018,4.9018,4.9018,4.9018,4.9018,4.9018,4.9882,5.1201,5.1201,5.2182,5.3518,5.3518,5.3518,5.3518,5.3518,5.3518,5.3518,5.3518,5.3518,5.3518,5.3518,5.3518,5.3518,5.3518,5.3518,5.3518,5.3518,5.3518,5.3518,5.3518,5.3518,5.3518,5.3518,5.3923,5.4262,5.4262,5.4905,5.5547,5.6055,5.6325,5.6731,5.7476,5.7577,5.7645,5.79,5.79,5.79,5.79,5.79,5.79,5.79,5.79,5.79,5.79,5.79,5.79,5.79,5.79,5.79,5.79,5.8423,5.8423,5.7934,5.8423,5.8389,2.933,3.2114,3.543,3.7335,4.0751,4.4587,4.8173,0.0,0.0,0.0,5.1589,5.0473,5.0338,5.0067,5.0135,5.0845,5.1995,5.2942,5.345,5.3518,5.3518,5.3518,5.3518,5.3518,5.3518,5.3897,5.3995,5.3517,5.3606,5.35,5.3043,5.2608,5.2264,5.2142,5.1548,5.0956,5.0385,4.986,4.9387,4.9018,4.9018,4.9195,4.9576,4.9165,4.9018,4.9018,4.9018,4.9018,4.9018,4.9018,4.9018,4.9018,4.9018,4.9882,5.1201,5.1201,5.2182,5.3518,5.3518,5.3518,5.3518,5.3518,5.3518,5.3518,5.3518,5.3518,5.3518,5.3518,5.3518,5.3518,5.3518,5.3518,5.3518,5.3518,5.3518,5.3518,5.3518,5.3721,5.3923,5.3923,5.4532,5.504,5.504,5.5631,5.6274,5.6731,5.7036,5.7408,5.7832,5.79,5.79,5.79,5.79,5.79,5.79,5.79,5.79,5.79,5.79,5.79,5.79,5.79,5.79,5.79,5.79,5.8017,5.8355,5.8776,5.8912,5.8761,5.9235,5.9201,3.2814,3.5994,3.9309,4.1001,4.3829,4.7278,5.1386,5.2367,5.2604,5.3348,5.2385,5.1607,5.23,5.186,5.1641,5.23,5.301,5.3518,5.3518,5.3518,5.3518,5.3518,5.3518,5.3518,5.3518,5.3518,5.3518,5.3518,5.2739,5.23,5.23,5.2229,5.155,5.0132,5.0748,5.04,4.9018,4.9018,4.9018,4.9018,4.9018,4.9018,4.9018,4.9018,4.9018,4.9018,4.9018,4.9018,4.9018,4.9018,4.9018,4.9018,4.9086,4.9965,5.1201,5.1269,5.2216,5.3518,5.3518,5.3518,5.3518,5.3518,5.3518,5.3518,5.3518,5.3518,5.3518,5.3518,5.3518,5.3518,5.3518,5.3518,5.3518,5.3518,5.3518,5.3518,5.3585,5.4126,5.4617,5.4668,5.531,5.58,5.58,5.6409,5.69,5.69,5.7476,5.79,5.79,5.79,5.79,5.79,5.79,5.79,5.79,5.79,5.79,5.79,5.79,5.79,5.79,5.79,5.79,5.79,5.7967,5.8321,5.9013,5.9148,5.9539,6.0114,6.0182,6.0182,3.1427,3.4844,3.8891,4.2104,4.65,5.0423,5.1961,5.2807,5.3281,5.345,5.3247,5.3027,5.3213,5.3112,5.3078,5.3213,5.3382,5.3518,5.3518,5.3518,5.3518,5.3518,5.3518,5.3518,5.3518,5.3518,5.3518,5.3518,5.2739,5.23,5.23,5.1206,5.0441,5.0117,4.9712,4.9338,4.9018,4.9018,4.9018,4.9018,4.9018,4.9018,4.9018,4.9018,4.9018,4.9018,4.9018,4.9018,4.9018,4.9018,4.9018,4.9052,4.9627,5.0405,5.1269,5.186,5.2672,5.3518,5.3518,5.3518,5.3518,5.3518,5.3518,5.3518,5.3518,5.3518,5.3518,5.3518,5.3518,5.3518,5.3518,5.3518,5.3518,5.3518,5.3518,5.3653,5.4228,5.4482,5.4769,5.5327,5.6037,5.6562,5.6562,5.7171,5.7645,5.7645,5.7798,5.79,5.79,5.79,5.79,5.79,5.79,5.79,5.79,5.79,5.79,5.79,5.79,5.79,5.79,5.79,5.79,5.79,5.8457,5.8844,5.9013,6.0197,6.0554,6.0114,6.0757,6.0689,3.2215,3.6062,4.0629,4.5399,4.8901,5.1472,5.2638,5.3213,5.3518,5.3518,5.3518,5.3518,5.3518,5.3518,5.3518,5.3518,5.3518,5.3518,5.3518,5.3179,5.2942,5.2942,5.2942,5.2942,5.2942,5.3281,5.3348,5.2942,5.2232,5.1623,5.1251,5.0168,4.956,4.956,4.9187,4.9018,4.9018,4.9018,4.9018,4.9018,4.9018,4.9018,4.9018,4.9018,4.9018,4.9018,4.9018,4.9018,4.9018,4.9018,4.9018,4.9086,4.9796,5.0541,5.1302,5.2029,5.2807,5.3518,5.3518,5.3518,5.3518,5.3518,5.3518,5.3518,5.3518,5.3518,5.3518,5.3518,5.3518,5.3518,5.3518,5.3518,5.3518,5.3518,5.3788,5.4126,5.4516,5.5141,5.575,5.6139,5.6833,5.734,5.734,5.7663,5.79,5.79,5.79,5.79,5.79,5.79,5.79,5.79,5.79,5.79,5.79,5.79,5.79,5.79,5.79,5.79,5.79,5.8254,5.8423,5.8423,5.881,5.9351,6.0114,6.0926,6.1264,6.1197,6.1637,6.1603,3.2791,3.7483,4.276,4.8477,5.0574,5.1573,5.2976,5.3416,5.3518,5.3518,5.3518,5.3518,5.3518,5.3518,5.3518,5.3518,5.3518,5.345,5.3315,5.2706,5.2266,5.2131,5.2131,5.2131,5.2131,5.2706,5.2841,5.2164,5.1454,5.0744,5.015,4.939,4.9018,4.9018,4.9018,4.9018,4.9018,4.9018,4.9018,4.9018,4.9018,4.9018,4.9018,4.9018,4.9018,4.9018,4.9018,4.9018,4.9018,4.9018,4.9086,4.9255,4.9999,5.0744,5.1472,5.2232,5.2942,5.3518,5.3518,5.3518,5.3518,5.3518,5.3518,5.3518,5.3518,5.3518,5.3518,5.3518,5.3518,5.3518,5.3518,5.3518,5.3518,5.3518,5.416,5.4769,5.4769,5.5852,5.6833,5.6968,5.7476,5.79,5.79,5.79,5.79,5.79,5.79,5.79,5.79,5.79,5.79,5.79,5.79,5.79,5.79,5.79,5.79,5.79,5.79,5.79,5.79,5.8626,5.9047,5.9182,5.9317,6.0028,6.1298,6.1434,6.1806,6.24,6.24,6.24,3.004,3.6299,4.3281,4.797,5.0186,5.1404,5.2266,5.301,5.3518,5.3518,5.3518,5.3518,5.3518,5.3518,5.3518,5.3518,5.3518,5.3281,5.257,5.2367,5.2063,5.1404,5.1336,5.1336,5.1336,5.1438,5.1472,5.1336,5.0676,5.0202,5.0117,4.939,4.9018,4.9018,4.9018,4.9018,4.9018,4.9018,4.9018,4.9018,4.9018,4.9018,4.9018,4.9018,4.9018,4.9018,4.9018,4.9018,4.9018,4.9018,4.939,5.0033,5.0777,5.1505,5.2266,5.3044,5.3416,5.3518,5.3518,5.3518,5.3518,5.3518,5.3518,5.3518,5.3518,5.3518,5.3518,5.3518,5.3518,5.3518,5.3518,5.3518,5.3518,5.3518,5.4549,5.5564,5.5564,5.6224,5.7002,5.7629,5.7832,5.79,5.79,5.79,5.79,5.79,5.79,5.79,5.79,5.79,5.79,5.79,5.79,5.79,5.79,5.79,5.79,5.79,5.79,5.79,5.79,5.8626,5.9284,5.9945,6.0655,6.1095,6.1298,6.1941,6.2279,6.24,6.24,6.24,3.2317,3.7686,4.2861,4.7767,4.9492,5.0254,5.1404,5.23,5.2841,5.2841,5.3179,5.3518,5.3518,5.3518,5.3348,5.2909,5.2841,5.257,5.1776,5.1319,5.0947,5.0608,5.0574,5.0574,5.0574,5.0964,5.1032,5.0608,5.027,4.9914,4.9492,4.9187,4.9018,4.9018,4.8597,4.836,4.836,4.836,4.8597,4.9018,4.9018,4.9018,4.9018,4.9018,4.9018,4.9018,4.9018,4.9018,4.9018,4.9018,4.9424,5.0168,5.0897,5.1641,5.2401,5.3213,5.3518,5.3518,5.3518,5.3518,5.3518,5.3518,5.3518,5.3518,5.3518,5.3518,5.3518,5.3518,5.3518,5.3518,5.3518,5.3518,5.3518,5.3518,5.4617,5.5767,5.6037,5.6799,5.7509,5.7832,5.79,5.79,5.79,5.79,5.79,5.79,5.79,5.79,5.79,5.79,5.79,5.79,5.79,5.79,5.79,5.79,5.79,5.79,5.79,5.79,5.79,5.8626,5.9351,6.008,6.0892,6.1501,6.1907,6.2265,6.24,6.24,6.24,6.24,3.3129,3.711,4.0426,4.5466,4.7597,4.8781,5.0051,5.1201,5.2063,5.2266,5.2773,5.3281,5.345,5.3348,5.301,5.2401,5.2131,5.1758,5.0998,5.0439,5.0049,4.983,4.983,4.983,4.983,5.0338,5.0405,4.9864,4.983,4.9593,4.9052,4.9018,4.8917,4.8748,4.8191,4.7819,4.7616,4.7819,4.8191,4.8698,4.8917,4.9018,4.9018,4.9018,4.9018,4.9018,4.9018,4.9018,4.9018,4.9018,4.956,5.0439,5.0998,5.1776,5.2672,5.3281,5.3518,5.3518,5.3518,5.3518,5.3518,5.3518,5.3518,5.3518,5.3518,5.3518,5.3518,5.3518,5.3518,5.3518,5.3518,5.3518,5.3551,5.3721,5.4752,5.5902,5.6612,5.7374,5.79,5.79,5.79,5.79,5.79,5.79,5.79,5.79,5.79,5.79,5.79,5.79,5.79,5.79,5.79,5.79,5.79,5.79,5.79,5.79,5.79,5.79,5.79,5.8626,5.9351,6.008,6.0892,6.167,6.24,6.24,6.24,6.24,6.24,6.24,2.9185,3.2094,3.4878,3.9423,4.3755,4.7124,4.7887,4.9713,5.1472,5.2164,5.2334,5.2604,5.3382,5.2875,5.2367,5.23,5.1708,5.0998,5.0236,5.0101,4.983,4.9154,4.9052,4.9052,4.9052,4.9086,4.912,4.9052,4.9052,4.9052,4.9018,4.9018,4.8665,4.7988,4.7921,4.7549,4.6853,4.7549,4.7921,4.7988,4.8665,4.9018,4.9018,4.9018,4.9018,4.9018,4.9018,4.9018,4.9018,4.9018,4.9848,5.1167,5.1201,5.2114,5.345,5.3484,5.3518,5.3518,5.3518,5.3518,5.3518,5.3518,5.3518,5.3518,5.3518,5.3518,5.3518,5.3518,5.3518,5.3518,5.3518,5.3518,5.3687,5.4363,5.5141,5.6071,5.7509,5.7866,5.79,5.79,5.79,5.79,5.79,5.79,5.79,5.79,5.79,5.79,5.79,5.79,5.79,5.79,5.79,5.79,5.79,5.79,5.79,5.79,5.79,5.79,5.79,5.8626,5.9351,6.008,6.0892,6.167,6.24,6.24,6.24,6.24,6.24,6.24,0.0,3.0615,3.3535,3.71,4.0257,4.2949,4.464,4.7109,4.9442,5.0642,5.1623,5.2401,5.2672,5.2503,5.2164,5.1674,5.098,5.0236,4.9492,4.939,4.9289,4.9052,4.9018,4.9018,4.9018,4.9018,4.9018,4.9018,4.9018,4.9018,4.9018,4.8563,4.8157,4.7921,4.6974,4.638,4.6109,4.6819,4.7428,4.7921,4.8631,4.9018,4.9018,4.9018,4.9018,4.9018,4.9018,4.9018,4.9052,4.9492,5.0304,5.1235,5.1708,5.257,5.3518,5.3518,5.3518,5.3518,5.3518,5.3518,5.3518,5.3518,5.3518,5.3518,5.3518,5.3518,5.3518,5.3518,5.3518,5.3518,5.3518,5.3518,5.3822,5.504,5.6224,5.7273,5.7798,5.79,5.79,5.79,5.79,5.79,5.79,5.79,5.773,5.7273,5.7595,5.7712,5.7239,5.7629,5.79,5.79,5.79,5.79,5.79,5.79,5.79,5.79,5.79,5.79,5.79,5.8152,5.8626,5.9385,6.0148,6.1163,6.24,6.24,6.24,6.24,6.24,6.24,2.6074,0.0,0.0,3.446,3.6569,3.8824,4.2544,4.4945,4.7041,4.9255,5.0507,5.1285,5.1522,5.115,5.0728,5.0491,4.983,4.9187,4.8698,4.8631,4.8698,4.8984,4.8781,4.8631,4.8631,4.8409,4.8274,4.8274,4.8274,4.8274,4.8274,4.78,4.7413,4.7177,4.5974,4.5331,4.5331,4.6327,4.7056,4.7549,4.8545,4.9018,4.9018,4.9018,4.9018,4.9018,4.9018,4.9018,4.9052,4.9812,5.0541,5.1269,5.2029,5.2807,5.3518,5.3518,5.3518,5.3518,5.3518,5.3518,5.3518,5.3518,5.3518,5.3518,5.3518,5.3518,5.3518,5.3518,5.3518,5.3518,5.3518,5.389,5.4481,5.5462,5.6833,5.79,5.79,5.79,5.79,5.79,5.79,5.79,5.79,5.79,5.7712,5.7239,5.7577,5.773,5.7239,5.7595,5.79,5.79,5.79,5.79,5.79,5.79,5.79,5.79,5.79,5.79,5.79,5.79,5.8355,5.9351,5.9844,6.0858,6.24,6.24,6.24,6.24,6.24,6.24,0.0,0.0,0.0,0.0,3.2689,3.4968,4.1563,4.3118,4.4234,4.8071,4.8849,4.9086,4.9914,4.8883,4.8124,4.8781,4.8326,4.7887,4.7887,4.7887,4.8124,4.8849,4.8293,4.7887,4.7887,4.7225,4.68,4.68,4.68,4.68,4.68,4.68,4.6413,4.5703,4.4973,4.4615,4.4615,4.6056,4.68,4.6834,4.8274,4.8984,4.9018,4.9018,4.9018,4.9018,4.9018,4.9018,4.9052,4.983,5.0541,5.1269,5.2063,5.2807,5.3518,5.3518,5.3518,5.3518,5.3518,5.3518,5.3518,5.3518,5.3518,5.3518,5.3518,5.3518,5.3518,5.3518,5.3518,5.3518,5.3518,5.4617,5.5699,5.5733,5.6833,5.79,5.79,5.79,5.79,5.79,5.79,5.79,5.79,5.79,5.79,5.7866,5.7866,5.7866,5.7866,5.7866,5.79,5.79,5.79,5.79,5.79,5.79,5.79,5.79,5.79,5.79,5.79,5.7934,5.861,6.0013,6.0114,6.0858,6.2333,6.24,6.24,6.24,6.24,6.24,2.3552,0.0,0.0,0.0,0.0,0.0,3.4438,3.6197,3.8633,4.4601,4.5365,4.5824,4.8781,4.8529,4.7616,4.6737,4.6887,4.709,4.709,4.709,4.7192,4.7394,4.7225,4.709,4.709,4.6921,4.68,4.68,4.68,4.68,4.68,4.6278,4.5669,4.4939,4.4702,4.4615,4.4615,4.5534,4.6278,4.6819,4.7752,4.8462,4.9018,4.9018,4.9018,4.9018,4.9018,4.9018,4.912,5.0356,5.0998,5.1336,5.2655,5.3315,5.3518,5.3518,5.3518,5.3518,5.3518,5.3518,5.3518,5.3518,5.3518,5.3518,5.3518,5.3518,5.3518,5.3518,5.3518,5.3619,5.416,5.5006,5.5834,5.6393,5.7205,5.79,5.79,5.79,5.79,5.79,5.79,5.79,5.79,5.79,5.773,5.7171,5.7103,5.7103,5.7103,5.7103,5.7306,5.7832,5.79,5.79,5.79,5.79,5.79,5.79,5.79,5.79,5.79,5.8423,5.8626,5.849,6.0114,6.0892,6.0723,6.1859,6.24,6.24,6.24,6.24,0.0,0.0,0.0,0.0,0.0,0.0,3.2577,3.3863,3.5859,4.23,4.3267,4.3809,4.665,4.6534,4.5858,4.5331,4.5616,4.5988,4.6278,4.6346,4.6447,4.6752,4.6515,4.6346,4.6346,4.6056,4.5887,4.5887,4.5887,4.5887,4.5887,4.5466,4.5041,4.4601,4.4615,4.4615,4.4615,4.5331,4.6075,4.6819,4.7549,4.8293,4.9018,4.9018,4.9018,4.9018,4.9018,4.9018,4.9086,5.027,5.0897,5.1336,5.2909,5.3518,5.3518,5.3518,5.3518,5.3518,5.3518,5.3518,5.3518,5.3518,5.3518,5.3518,5.3518,5.3518,5.3518,5.3518,5.3518,5.3687,5.4397,5.5141,5.5902,5.663,5.734,5.79,5.79,5.79,5.79,5.79,5.79,5.79,5.79,5.79,5.7764,5.7306,5.7273,5.7273,5.7273,5.7273,5.7408,5.7866,5.79,5.79,5.79,5.79,5.79,5.79,5.8186,5.822,5.7934,5.8896,5.9268,5.8829,6.0452,6.1231,6.1061,6.196,6.24,6.24,6.24,6.24,0.0,0.0,0.0,0.0,0.0,0.0,3.2939,3.3548,3.437,4.0032,4.1048,4.1521,4.3382,4.3234,4.2997,4.3619,4.4073,4.4635,4.5466,4.5568,4.5805,4.6496,4.5974,4.5568,4.5568,4.4973,4.4615,4.4615,4.4615,4.4615,4.4615,4.4615,4.4615,4.4615,4.4615,4.4615,4.4615,4.5229,4.5974,4.6819,4.7447,4.8191,4.9018,4.9018,4.9018,4.9018,4.9018,4.9018,4.9052,4.9812,5.0541,5.1336,5.2807,5.3416,5.3518,5.3518,5.3518,5.3518,5.3518,5.3518,5.3518,5.3518,5.3518,5.3518,5.3518,5.3518,5.3518,5.3518,5.3518,5.3687,5.4499,5.5209,5.5902,5.6731,5.7408,5.79,5.79,5.79,5.79,5.79,5.79,5.79,5.79,5.79,5.79,5.79,5.7832,5.7832,5.79,5.7832,5.7832,5.79,5.79,5.79,5.79,5.79,5.79,5.79,5.8524,5.8626,5.8069,5.937,6.0114,6.0114,6.0892,6.167,6.24,6.24,6.24,6.24,6.24,6.24,0.0,0.0,0.0,0.0,0.0,0.0,2.7004,2.7807,2.9929,3.3501,3.3322,3.3694,3.7596,3.8667,3.8836,3.8374,4.0811,4.3247,4.4635,4.4804,4.4871,4.5007,4.4905,4.4804,4.4804,4.4668,4.4615,4.4615,4.4615,4.4615,4.4615,4.4615,4.4615,4.4615,4.4615,4.4615,4.4615,4.4736,4.5481,4.68,4.6955,4.7699,4.9018,4.9018,4.9018,4.9018,4.9018,4.9018,4.9052,4.9812,5.0541,5.1302,5.2198,5.2942,5.3518,5.3518,5.3518,5.3518,5.3518,5.3518,5.3518,5.3518,5.3518,5.3518,5.3518,5.3518,5.3518,5.3518,5.3518,5.3822,5.5124,5.5597,5.6037,5.7374,5.7798,5.79,5.79,5.79,5.79,5.79,5.79,5.79,5.79,5.79,5.79,5.79,5.7374,5.7239,5.7832,5.7374,5.7239,5.7832,5.79,5.79,5.79,5.79,5.79,5.79,5.8017,5.8321,5.8795,5.9641,6.0114,6.0114,6.0892,6.167,6.24,6.24,6.24,6.24,6.24,6.24,0.0,0.0,0.0,2.9677,0.0,0.0,0.0,2.7546,2.8407,3.2554,3.163,3.135,3.5453,3.6197,3.6332,3.6761,3.9288,4.1339,4.1758,4.3078,4.4012,4.4012,4.4012,4.4012,4.4012,4.4364,4.4615,4.4615,4.4615,4.4615,4.4615,4.4615,4.4615,4.4615,4.4615,4.4615,4.4615,4.4615,4.5345,4.68,4.68,4.7564,4.9018,4.9018,4.9018,4.9018,4.9018,4.9018,4.9052,4.939,4.9999,5.0777,5.186,5.2536,5.2942,5.3348,5.3518,5.3518,5.3518,5.3518,5.3518,5.3518,5.3518,5.3518,5.3518,5.3518,5.3518,5.3518,5.3518,5.3856,5.5327,5.5699,5.6071,5.7543,5.79,5.79,5.79,5.79,5.79,5.79,5.79,5.79,5.79,5.79,5.79,5.79,5.7577,5.7476,5.7866,5.7595,5.7476,5.7866,5.79,5.79,5.79,5.79,5.79,5.79,5.8592,5.8998,5.9013,6.0452,6.1231,6.1231,6.1637,6.2009,6.24,6.24,6.24,6.24,6.24,6.24,0.0,0.0,0.0,0.0,0.0,2.9413,0.0,0.0,0.0,3.2002,3.0886,3.02,3.3311,3.3525,3.3558,3.4697,3.7077,3.8485,3.7618,4.0054,4.207,4.251,4.3051,4.3288,4.3017,4.3301,4.3822,4.4547,4.4059,4.3992,4.4581,4.4615,4.4615,4.4615,4.4615,4.4615,4.4615,4.4615,4.5345,4.68,4.68,4.7564,4.9018,4.9018,4.9018,4.9018,4.9018,4.9018,4.9018,4.9018,4.9357,5.0033,5.1522,5.2164,5.2401,5.3213,5.3518,5.3518,5.3518,5.3518,5.3518,5.3518,5.3518,5.3518,5.3518,5.3518,5.3518,5.3518,5.3518,5.3856,5.5327,5.5699,5.6071,5.7543,5.79,5.79,5.79,5.79,5.79,5.79,5.79,5.79,5.79,5.79,5.79,5.79,5.79,5.79,5.79,5.79,5.79,5.79,5.79,5.79,5.79,5.79,5.79,5.79,5.9133,5.9674,5.9216,6.1264,6.24,6.24,6.24,6.24,6.24,6.24,6.24,6.24,6.24,6.24,0.0,0.0,0.0,0.0,3.3041,0.0,0.0,0.0,2.8324,2.6928,0.0,2.6446,2.7503,0.0,0.0,2.7918,3.1393,3.3694,3.2273,3.463,3.7234,3.9242,4.18,4.2882,4.1576,4.0358,4.1014,4.433,4.2117,4.1779,4.4479,4.4615,4.4615,4.4615,4.4615,4.4615,4.4615,4.4615,4.5345,4.68,4.68,4.7564,4.9018,4.9018,4.9018,4.9018,4.9018,4.9018,4.9018,4.9018,4.9052,4.9255,5.0761,5.1708,5.2401,5.3213,5.3518,5.3518,5.3518,5.3518,5.3518,5.3518,5.3518,5.3518,5.3518,5.3518,5.3518,5.3518,5.3518,5.3856,5.5327,5.5699,5.6071,5.7543,5.79,5.79,5.79,5.79,5.79,5.79,5.79,5.79,5.79,5.79,5.79,5.79,5.79,5.79,5.79,5.79,5.79,5.79,5.79,5.79,5.79,5.79,5.79,5.79,5.866,5.9385,5.9945,6.1535,6.24,6.24,6.24,6.24,6.24,6.24,6.24,6.24,6.24,6.24,0.0,0.0,0.0,0.0,0.0,0.0,2.8755,0.0,2.7131,0.0,0.0,0.0,0.0,0.0,0.0,0.0,2.9025,3.049,2.9388,3.1417,3.4021,3.6693,3.8113,3.9331,4.0438,3.9626,4.0202,4.3044,4.0899,4.0764,4.3741,4.391,4.4113,4.4581,4.4615,4.4615,4.4615,4.4615,4.5345,4.68,4.68,4.7564,4.9018,4.9018,4.9018,4.9018,4.9018,4.9018,4.9018,4.9018,4.9018,4.912,5.0168,5.1014,5.1742,5.2536,5.3112,5.3518,5.3518,5.3518,5.3518,5.3518,5.3518,5.3518,5.3518,5.3518,5.3518,5.3518,5.3518,5.3856,5.5327,5.5699,5.6071,5.7543,5.79,5.79,5.79,5.79,5.79,5.79,5.79,5.79,5.79,5.79,5.79,5.79,5.79,5.79,5.79,5.79,5.79,5.79,5.79,5.79,5.79,5.79,5.79,5.79,5.8998,6.0013,6.0757,6.1806,6.24,6.24,6.24,6.24,6.24,6.24,6.24,6.24,6.24,6.24,3.8103,0.0,0.0,0.0,0.0,0.0,0.0,0.0,0.0,0.0,0.0,0.0,0.0,0.0,0.0,0.0,0.0,2.8019,2.7021,2.8475,3.0784,3.374,3.4799,3.6389,3.922,3.79,3.8193,4.1441,3.9254,3.9411,4.3186,4.3389,4.3775,4.4567,4.4615,4.4615,4.4615,4.4804,4.5548,4.68,4.6989,4.7767,4.9018,4.9018,4.9018,4.9018,4.9018,4.9018,4.9018,4.9018,4.9018,4.9052,4.9593,5.0371,5.1302,5.2029,5.2807,5.3518,5.3518,5.3518,5.3518,5.3518,5.3518,5.3518,5.3518,5.3518,5.3518,5.3518,5.3653,5.4093,5.5361,5.5834,5.6308,5.7595,5.79,5.79,5.79,5.79,5.79,5.79,5.79,5.79,5.79,5.79,5.79,5.79,5.79,5.79,5.79,5.79,5.79,5.79,5.79,5.79,5.79,5.79,5.8069,5.8475,5.9954,6.1139,6.1923,6.2468,6.274,6.274,6.2537,6.24,6.24,6.24,6.24,6.24,6.24,6.24,0.0,0.0,0.0,3.4573,0.0,0.0,0.0,0.0,2.9557,0.0,0.0,0.0,0.0,0.0,0.0,0.0,0.0,0.0,0.0,2.527,2.6886,2.9929,3.278,3.5419,3.7741,3.4032,3.3863,3.9737,3.6738,3.7212,4.3085,4.3389,4.3775,4.4567,4.4615,4.4615,4.4615,4.5297,4.6041,4.6819,4.7515,4.8259,4.9018,4.9018,4.9018,4.9018,4.9018,4.9018,4.9018,4.9018,4.9018,4.9018,4.9018,4.9916,5.1302,5.2029,5.2807,5.3518,5.3518,5.3518,5.3518,5.3518,5.3518,5.3518,5.3518,5.3518,5.3518,5.3518,5.4025,5.4735,5.5496,5.624,5.6968,5.773,5.79,5.79,5.79,5.79,5.79,5.79,5.79,5.79,5.79,5.79,5.79,5.79,5.79,5.79,5.79,5.79,5.79,5.79,5.79,5.79,5.79,5.79,5.849,5.9945,6.1588,6.287,6.3596,6.3665,6.3665,6.3665,6.2836,6.24,6.24,6.24,6.24,6.24,6.24,6.24,0.0,0.0,4.1326,3.7369,0.0,0.0,0.0,0.0,0.0,0.0,0.0,0.0,0.0,0.0,0.0,0.0,0.0,0.0,0.0,0.0,2.5447,2.6953,3.0209,3.2442,3.2702,3.2249,3.3366,3.6862,3.5487,3.6874,4.2388,4.2658,4.3281,4.4567,4.4615,4.4615,4.4615,4.5331,4.6075,4.6819,4.7549,4.8293,4.9018,4.9018,4.9018,4.9018,4.9018,4.9018,4.9018,4.9018,4.9018,4.9018,4.9018,4.9882,5.1235,5.1472,5.2385,5.3518,5.3518,5.3518,5.3518,5.3518,5.3518,5.3518,5.3518,5.3518,5.3518,5.3518,5.4025,5.4769,5.5496,5.624,5.7002,5.773,5.79,5.79,5.79,5.79,5.79,5.79,5.79,5.79,5.79,5.79,5.79,5.79,5.79,5.79,5.79,5.79,5.79,5.79,5.79,5.79,5.79,5.8355,5.9066,6.0047,6.1114,6.1847,6.2086,6.2563,6.2836,6.2836,6.2542,6.24,6.24,6.24,6.24,6.24,6.24,6.24,4.2625,4.2861,4.2239,3.9073,3.7538,0.0,3.2127,0.0,3.2544,0.0,0.0,0.0,0.0,0.0,0.0,0.0,0.0,0.0,0.0,2.3857,0.0,2.5135,2.8044,0.0,3.0446,3.0388,3.1775,3.5329,3.4438,3.6005,4.1251,4.2029,4.2875,4.4127,4.4465,4.4736,4.5007,4.5703,4.6447,4.7192,4.7921,4.8529,4.9018,4.9018,4.9018,4.9018,4.9018,4.9018,4.9018,4.9018,4.9018,4.9018,4.9018,4.9882,5.1201,5.1201,5.2182,5.3518,5.3518,5.3518,5.3518,5.3518,5.3518,5.3518,5.3518,5.3518,5.3551,5.3822,5.4431,5.5175,5.5902,5.663,5.7306,5.7798,5.79,5.79,5.79,5.79,5.79,5.79,5.79,5.79,5.79,5.79,5.79,5.79,5.79,5.79,5.79,5.79,5.79,5.79,5.79,5.79,5.79,5.8829,5.9607,6.008,6.1405,6.2139,6.2139,6.2616,6.2874,6.2874,6.2542,6.24,6.24,6.24,6.24,6.24,6.24,6.24]}]]